ECMWFNIL_925_spd_003.txt.gz
Wind_Speed
25 24 23 22 21 19 18 16 15 14 14 15 15 13 11 11 11 10 8 7 7 7 5 4 5 5 4 3 4 5 6 7 8 8 9 10 9 9 8 9 9 9
27 24 23 22 21 19 18 18 17 16 16 16 15 13 13 13 12 11 9 9 9 8 7 6 6 6 6 5 6 7 8 8 8 8 9 10 11 12 12 11 12 12
28 25 24 22 21 20 19 18 17 16 16 16 15 14 14 14 13 12 11 10 10 10 9 8 7 8 8 7 8 9 9 9 8 8 8 9 11 12 13 13 14 15
28 26 24 22 22 21 20 19 18 17 17 16 15 14 14 14 13 12 12 11 11 11 11 9 8 9 9 9 10 10 10 10 9 9 9 9 10 12 13 14 15 17
28 26 25 23 22 21 20 19 19 19 18 17 15 14 14 14 14 13 13 13 12 11 10 10 10 10 10 10 11 11 11 11 10 9 10 11 12 13 14 14 16 17
29 27 25 24 23 21 20 20 20 19 18 16 15 14 15 16 15 15 14 13 12 11 11 11 11 11 11 11 11 12 11 11 10 10 12 14 14 15 15 15 16 17
31 29 27 25 23 21 19 19 19 19 18 17 16 16 17 17 17 16 15 14 12 12 11 11 11 11 11 11 12 12 11 11 12 13 15 15 15 15 15 16 17 18
32 30 29 26 24 21 20 20 20 20 20 19 18 17 18 18 18 17 16 14 13 12 11 11 11 11 11 11 12 12 12 13 13 14 14 15 15 16 17 17 18 18
33 32 31 28 26 24 22 21 22 22 22 22 20 18 18 19 18 17 16 14 12 12 12 12 12 12 12 12 13 13 14 13 12 12 13 14 15 16 17 17 17 17
36 34 32 30 29 27 25 23 23 23 23 23 21 18 19 19 18 17 16 15 14 13 13 14 14 13 13 13 14 14 14 12 11 12 12 13 14 16 16 15 14 15
38 36 35 33 32 29 26 25 24 24 24 24 22 20 20 20 19 19 19 18 17 16 15 14 13 13 14 14 14 14 14 13 12 12 12 13 14 15 15 14 13 14
39 38 38 35 33 31 28 27 26 24 24 24 23 21 20 20 19 20 20 20 18 17 16 15 14 14 15 14 14 14 14 13 12 12 13 14 14 14 14 15 15 15
39 40 40 37 34 32 30 29 27 24 24 24 23 22 21 20 20 20 20 19 18 16 15 15 16 16 16 16 15 13 13 13 13 13 14 14 15 16 16 16 16 16
42 43 41 37 34 33 30 29 28 25 24 24 24 24 22 20 20 19 20 19 17 15 14 14 16 16 17 16 15 13 13 14 14 13 14 15 16 18 18 17 17 17
44 44 41 38 36 33 31 30 29 26 25 25 25 25 23 21 20 19 19 18 17 15 13 14 16 18 18 17 15 14 14 15 14 14 15 16 17 18 20 19 18 18
43 42 41 39 37 34 32 31 30 27 26 27 26 26 24 22 21 21 21 19 17 16 15 17 19 19 19 19 18 16 15 15 15 15 15 16 17 18 19 19 17 17
43 44 43 42 38 34 32 31 29 28 27 28 28 27 25 23 24 24 23 20 18 18 19 20 21 20 20 20 19 17 16 15 16 17 16 15 16 17 17 16 15 16
42 41 36 30 25 25 28 30 29 27 28 29 29 28 26 25 25 26 24 21 20 20 21 22 22 22 21 21 20 19 18 18 18 18 18 16 16 16 15 14 14 15
29 25 20 17 17 23 28 30 29 29 30 31 30 29 27 27 28 28 25 23 22 22 23 23 23 23 22 22 22 22 21 20 19 19 18 16 16 16 15 14 14 14
29 26 22 22 23 25 27 29 31 31 31 32 31 30 29 29 30 29 27 25 25 24 24 24 24 23 22 22 23 23 23 21 19 18 17 17 16 16 15 14 14 13
40 38 33 27 24 23 24 27 31 32 33 33 32 31 32 31 31 29 28 26 25 24 24 25 24 23 22 23 23 23 23 20 18 18 17 17 17 16 15 14 13 12
41 38 32 24 21 21 23 27 31 33 35 35 34 34 33 31 30 29 27 26 25 24 24 24 23 21 21 23 24 23 22 20 18 18 18 18 17 17 16 14 13 11
32 29 25 19 19 22 26 29 32 34 36 36 34 34 33 31 31 28 25 24 22 19 18 18 19 19 18 20 22 21 20 20 19 18 18 18 18 18 16 14 11 10
28 27 25 23 23 27 29 31 35 39 38 35 34 33 32 32 30 24 20 19 16 13 12 15 20 21 18 17 19 19 20 20 19 18 18 19 19 18 15 12 10 10
29 27 26 26 27 32 34 35 37 35 30 29 31 32 30 29 25 20 17 15 11 9 11 16 22 22 17 14 16 18 19 19 18 18 19 19 18 16 14 12 11 11
27 25 25 26 30 36 37 34 28 20 17 21 24 25 25 22 17 13 11 9 7 10 14 17 21 20 15 14 15 16 17 17 17 18 19 18 16 14 14 13 12 10

ECMWFNIL_925_spd_006.txt.gz
Wind_Speed
30 28 28 27 26 26 26 26 26 24 23 23 23 21 20 18 16 15 15 14 12 10 8 8 7 6 6 6 5 5 4 4 5 6 6 7 7 8 9 9 10 10
30 28 28 27 26 25 25 25 24 23 22 22 22 21 20 18 16 15 15 15 14 11 9 8 7 6 6 6 5 5 5 6 6 5 5 5 6 8 9 11 12 13
30 29 29 27 26 25 25 24 23 22 21 21 21 21 20 19 17 16 16 16 15 12 11 9 9 8 7 6 7 7 7 8 8 7 6 7 7 9 10 11 13 15
31 31 30 28 26 25 24 24 23 23 21 21 21 21 20 18 18 18 18 17 15 13 12 11 11 11 9 8 9 9 9 10 10 10 10 10 10 10 11 11 13 15
34 33 31 30 27 25 25 25 25 23 21 21 21 21 20 19 19 19 19 17 16 14 14 13 13 13 11 10 11 11 11 11 11 11 12 11 11 11 12 13 14 15
37 35 34 31 29 27 27 27 25 23 21 21 22 21 20 20 19 19 19 18 16 16 15 15 15 13 12 12 13 13 12 12 12 12 12 12 12 13 14 14 15 16
38 37 35 33 31 29 28 27 24 22 22 23 23 22 21 20 19 19 19 18 17 17 17 16 15 14 13 14 14 14 13 12 12 12 13 13 13 14 15 15 15 16
38 38 37 36 33 30 29 27 23 22 23 24 24 23 20 19 19 19 19 19 19 19 18 17 16 15 14 13 13 13 13 12 11 12 13 14 14 14 14 14 15 16
39 40 39 37 35 33 31 28 25 24 25 25 24 22 20 19 20 21 21 20 20 20 19 18 17 15 14 14 14 13 12 12 12 13 14 14 14 14 14 13 14 16
41 41 40 38 37 35 32 29 26 25 25 26 24 22 21 20 21 22 22 22 22 21 19 18 16 15 15 15 14 13 13 13 13 14 15 15 15 14 14 13 14 15
41 42 42 41 39 36 33 30 27 27 28 28 26 24 23 22 22 23 23 23 23 21 19 17 16 15 15 15 14 13 14 14 15 16 16 16 16 14 14 14 14 15
40 42 43 41 37 34 31 27 26 27 29 29 27 26 24 24 23 24 24 25 23 21 19 18 17 17 17 16 15 14 15 16 16 16 16 16 15 15 14 14 15 16
41 42 40 33 28 26 25 23 25 27 28 28 28 26 25 25 25 25 25 25 23 21 20 19 19 18 18 18 16 16 17 17 17 16 16 16 16 16 15 15 16 16
42 39 34 29 28 27 26 27 30 30 29 29 29 27 26 26 26 26 25 25 23 22 21 20 19 19 20 20 19 18 18 18 18 17 17 17 17 17 16 15 16 17
33 27 27 31 34 34 33 34 35 33 30 29 29 28 27 26 27 26 25 25 23 22 20 19 19 19 19 19 19 18 18 18 18 18 19 19 18 17 16 16 17 17
15 16 22 31 38 39 39 38 35 32 30 30 30 30 28 27 27 26 25 25 23 21 20 20 20 20 19 18 18 18 18 19 20 21 20 19 19 18 17 17 16 16
19 24 31 39 44 43 40 37 32 30 30 29 31 32 30 28 28 27 26 25 23 21 21 20 20 20 19 18 18 18 18 20 21 23 22 21 20 19 18 17 16 16
28 34 40 45 46 40 35 34 33 31 28 27 29 31 31 30 28 27 27 25 24 23 22 22 21 20 19 19 19 19 20 21 23 24 25 25 23 20 18 16 16 16
30 35 41 44 41 36 32 33 33 32 29 28 31 33 32 31 29 29 28 27 25 25 24 23 22 21 20 20 20 21 22 23 25 25 26 26 24 21 18 16 16 16
31 34 33 30 30 30 30 32 32 30 30 32 33 32 31 30 29 29 29 28 26 25 24 23 22 21 21 20 21 23 23 24 25 24 25 26 23 19 18 18 16 16
29 24 20 21 27 30 31 33 32 31 31 30 28 27 28 29 30 30 30 29 27 25 25 25 24 22 22 22 23 23 22 23 23 22 23 24 21 19 20 19 17 16
28 25 24 28 34 38 39 39 36 33 30 26 23 23 26 28 29 31 31 29 27 26 26 26 26 24 24 23 21 19 19 22 22 21 21 22 20 19 20 19 17 15
30 31 33 34 37 40 39 33 28 25 23 22 22 24 26 28 29 30 30 29 28 27 27 27 27 25 21 18 16 16 19 21 21 20 20 20 19 18 18 17 16 14
31 33 35 36 38 36 29 23 20 20 22 23 24 26 27 26 25 24 25 26 26 26 26 25 24 21 18 17 16 16 19 21 19 18 19 18 18 18 18 17 14 12
29 29 30 31 32 29 24 22 23 25 26 25 25 24 21 19 18 18 20 22 23 23 23 22 21 20 19 20 19 17 18 18 16 16 17 17 18 18 17 16 13 12
25 25 24 21 18 17 21 25 29 30 28 24 20 16 12 12 14 14 14 16 17 17 16 15 16 17 18 21 20 16 15 15 15 16 17 17 17 17 16 15 13 12

ECMWFNIL_925_spd_009.txt.gz
Wind_Speed
20 24 31 33 31 31 29 27 28 28 28 28 27 26 26 24 22 20 20 20 20 18 15 12 13 14 12 12 12 10 9 9 8 8 8 9 9 9 9 9 9 10
21 24 32 33 32 32 29 29 29 29 29 29 28 27 25 24 21 21 21 21 21 19 16 14 13 13 12 12 11 10 10 9 9 8 8 8 9 9 9 10 10 11
25 30 34 34 33 33 30 30 30 30 30 29 28 27 25 23 22 22 22 22 22 21 17 15 14 13 12 12 11 10 10 10 9 9 8 8 9 9 9 10 10 11
31 36 36 34 34 33 31 31 31 31 30 29 28 27 25 24 23 23 23 22 22 21 19 16 15 14 13 13 12 11 10 10 10 10 10 10 11 11 11 10 10 10
38 38 36 35 34 34 32 32 32 32 31 30 28 27 26 25 25 25 24 23 23 22 19 18 16 15 15 15 14 12 11 11 11 12 12 12 12 13 12 12 11 11
39 38 37 36 34 34 33 32 32 31 30 29 27 26 27 27 26 26 25 24 23 22 20 19 17 16 16 16 16 14 13 11 11 13 14 13 13 13 13 13 13 13
39 39 38 36 35 35 34 33 32 29 28 27 27 27 27 27 28 27 25 24 24 23 21 19 18 17 17 17 17 16 15 14 13 14 14 14 13 13 14 15 15 15
39 39 38 37 36 35 33 33 31 28 27 28 27 28 28 28 28 27 25 25 24 23 22 20 19 18 18 17 18 17 15 14 14 14 15 14 14 15 15 15 15 15
38 38 37 34 33 32 33 34 31 29 29 29 29 29 28 28 27 26 25 25 25 23 23 22 20 19 18 18 17 17 15 14 14 15 15 15 15 15 15 15 15 15
37 34 30 27 29 31 34 34 32 30 29 29 29 29 28 28 26 25 25 25 25 24 23 22 20 19 19 18 17 17 16 15 15 16 16 16 16 16 15 15 15 14
31 25 25 28 32 36 36 35 32 30 30 30 29 28 27 27 25 25 26 26 25 25 24 22 20 19 19 18 18 17 17 16 16 17 17 17 17 17 16 16 15 14
22 24 30 36 38 38 37 36 34 31 30 30 29 27 27 26 25 26 27 27 27 26 24 21 20 20 19 19 18 18 18 18 18 18 18 18 18 18 17 16 15 15
26 33 40 42 42 41 40 39 37 34 32 31 30 29 29 26 24 26 28 27 27 26 23 21 20 20 20 19 18 19 19 19 19 19 19 19 19 18 17 16 16 16
34 41 44 46 45 42 40 40 40 37 34 33 32 31 31 28 25 26 28 27 27 25 23 22 22 22 21 20 20 20 21 21 21 20 20 20 20 19 18 17 17 17
36 39 43 45 42 38 38 39 39 37 34 34 34 33 31 29 25 24 27 29 27 25 23 23 24 24 23 22 22 23 23 24 23 22 22 21 21 20 19 19 18 19
33 36 39 40 37 37 36 32 30 34 36 36 36 34 33 30 25 25 28 29 28 25 23 24 25 26 25 23 23 23 23 24 23 22 22 22 22 21 21 20 19 19
31 34 39 40 35 33 35 35 33 36 39 39 38 36 34 30 26 26 27 27 27 26 25 25 26 27 25 23 23 22 22 22 22 22 22 22 22 22 22 22 21 20
33 35 35 30 21 20 32 44 47 44 42 39 38 37 34 30 27 25 23 23 24 24 26 27 27 26 25 24 24 23 22 22 22 23 23 23 24 23 23 23 22 20
33 31 25 20 19 23 35 46 49 50 47 40 36 33 30 28 24 19 16 18 19 22 27 28 27 26 25 25 25 24 23 23 23 24 24 25 25 24 25 26 23 18
29 27 26 27 30 34 38 40 43 46 42 33 28 25 24 23 19 14 13 17 18 23 28 28 28 29 27 27 28 25 23 23 24 25 25 25 25 24 26 26 22 19
29 29 31 34 34 34 36 39 42 42 33 23 20 21 21 19 18 17 18 20 21 26 29 28 31 33 30 29 30 27 26 25 25 25 24 23 23 23 25 24 21 19
30 30 31 33 33 34 36 38 40 36 28 21 20 22 21 18 20 23 25 26 27 29 29 29 32 33 30 31 32 30 27 25 24 23 21 20 20 21 23 22 21 19
28 29 30 30 31 31 33 36 36 33 28 26 25 25 25 25 27 28 27 25 25 26 27 29 31 31 30 32 32 29 25 22 21 20 19 19 20 20 21 21 20 18
27 28 29 27 27 27 27 28 28 27 28 29 28 27 29 32 34 31 26 22 21 23 25 27 28 28 30 30 27 23 20 19 19 17 18 20 19 18 19 19 17 15
24 26 25 22 21 21 19 19 20 23 26 27 26 26 28 30 29 26 24 22 21 22 24 25 26 28 29 27 24 22 20 18 16 15 18 21 18 15 16 15 13 12
22 22 19 18 19 19 19 22 26 29 29 28 26 25 23 21 20 18 19 21 21 22 23 23 23 23 23 21 21 21 19 17 15 16 18 19 15 12 11 9 9 10

ECMWFNIL_925_spd_012.txt.gz
Wind_Speed
22 24 22 21 22 20 20 20 18 18 17 16 15 14 15 15 14 14 15 14 13 13 12 11 10 10 10 9 10 9 9 9 9 9 8 8 8 8 8 7 7 7
24 25 23 21 21 20 20 20 19 18 17 16 15 14 14 14 14 14 14 14 13 13 12 12 11 11 11 11 11 11 10 10 10 9 9 9 9 9 9 9 9 9
25 26 25 23 21 20 20 20 19 18 17 16 15 13 13 13 13 14 14 13 13 13 13 13 12 12 12 12 11 11 11 10 10 9 9 9 9 9 9 9 10 9
26 27 25 22 21 20 20 20 18 17 17 16 14 13 13 13 13 14 14 14 13 13 13 14 13 13 13 12 12 11 11 10 10 10 9 10 10 9 10 10 10 10
28 28 23 21 23 21 20 20 18 17 16 15 14 14 14 14 14 14 14 15 15 14 14 14 14 13 13 13 12 11 10 10 10 10 10 10 10 10 10 10 10 10
28 27 23 23 24 22 22 22 19 18 17 16 16 16 16 16 16 15 15 16 16 16 15 15 15 14 13 13 13 12 10 10 10 10 11 11 11 10 10 10 10 10
26 25 24 25 24 23 23 21 20 20 20 19 20 20 18 19 20 19 18 18 17 16 16 15 15 15 14 13 13 13 11 10 10 11 12 12 11 10 10 10 10 11
25 25 26 26 24 25 24 21 21 24 24 22 22 21 20 20 20 20 20 20 18 16 15 15 16 15 14 13 13 13 12 11 11 12 12 12 11 11 10 10 10 12
25 25 26 26 27 28 25 22 22 25 26 25 22 19 19 21 20 19 20 20 19 18 18 17 16 15 15 14 13 13 12 11 12 12 12 12 12 11 11 10 11 12
26 27 27 28 29 28 25 23 22 21 22 24 21 15 17 22 20 19 21 20 19 21 21 19 17 16 15 14 14 13 12 12 12 12 12 12 12 12 11 11 11 12
29 29 28 30 30 27 24 21 16 13 16 22 23 19 20 24 23 24 25 22 22 23 21 19 19 17 16 15 14 12 12 12 13 13 13 13 13 13 12 12 12 13
30 29 28 30 28 20 15 14 14 15 19 24 28 28 29 28 28 31 29 26 27 26 21 19 19 18 18 16 14 12 12 13 14 14 14 14 14 13 13 13 13 14
28 27 26 24 21 18 19 21 22 24 25 28 32 34 35 33 33 35 33 30 30 27 24 23 21 20 19 17 15 14 14 14 15 15 15 15 14 14 14 14 14 14
24 21 19 18 19 24 28 25 26 30 32 36 40 41 42 39 36 37 36 33 30 28 27 27 24 23 21 19 17 17 17 17 15 15 16 16 15 15 15 15 15 15
19 17 18 20 23 27 27 24 31 38 41 44 46 46 43 37 32 34 35 33 31 30 30 29 27 25 22 19 18 17 17 18 16 17 18 18 17 16 16 17 17 16
18 19 21 23 27 29 28 32 40 43 44 45 45 45 42 35 31 34 35 34 34 33 31 30 29 27 23 20 19 16 16 17 17 20 21 21 20 18 18 18 17 17
18 20 21 22 27 32 34 38 42 43 42 41 38 38 38 33 30 31 33 33 34 33 29 29 30 27 24 23 20 15 14 16 20 23 23 22 21 19 19 18 17 17
19 20 23 24 27 34 38 39 41 40 37 34 30 29 30 27 25 28 32 32 31 29 26 28 30 27 25 24 20 16 15 17 21 24 24 23 21 19 19 19 17 17
19 21 24 26 29 35 38 38 38 37 35 30 25 23 25 26 25 26 30 30 26 24 26 29 29 26 26 24 20 17 18 17 20 24 25 25 23 21 20 19 17 16
20 22 25 27 28 32 36 35 34 34 32 28 22 21 24 26 25 25 26 27 27 27 28 28 26 25 26 23 18 18 19 17 20 24 26 26 24 23 22 20 17 14
20 21 24 25 25 28 31 33 34 33 30 25 22 22 23 24 25 25 24 26 30 29 27 25 24 24 24 20 19 20 17 16 20 24 26 27 27 27 25 20 15 13
20 20 21 22 23 25 26 28 31 31 27 24 23 23 23 22 23 24 24 26 28 26 24 23 22 24 23 19 20 20 16 17 20 22 23 25 27 27 23 19 16 15
19 19 19 20 22 23 24 25 27 26 24 24 25 25 25 24 24 24 26 28 24 20 22 22 21 24 25 20 18 18 16 18 20 19 20 23 25 25 20 15 14 16
17 18 18 19 20 22 23 24 24 24 23 22 21 20 21 23 23 21 23 25 21 17 20 19 18 23 25 20 17 16 15 17 18 18 20 24 26 23 16 12 12 16
15 15 16 17 18 20 21 20 20 22 22 21 19 18 18 21 23 21 20 19 16 15 18 18 17 20 22 20 17 14 14 17 19 18 20 23 22 18 16 15 14 13
12 13 14 14 15 15 16 16 17 18 19 19 18 18 19 21 22 20 19 18 15 15 16 16 16 16 18 17 14 13 16 20 21 20 19 18 16 16 18 18 13 10

ECMWFNIL_925_spd_015.txt.gz
Wind_Speed
21 20 19 18 17 17 17 17 16 15 15 14 14 13 13 13 12 11 11 11 11 10 10 8 8 8 7 7 8 8 7 7 7 7 6 7 7 7 7 6 6 6
23 21 20 19 18 18 18 18 18 17 17 16 15 13 13 12 12 12 12 11 11 10 10 9 9 9 9 8 8 8 8 8 9 8 8 8 8 8 8 8 8 7
23 23 22 21 19 19 19 19 18 18 18 17 15 14 12 12 12 12 12 12 12 11 11 11 11 11 10 9 9 9 10 10 10 10 9 9 9 9 10 9 9 9
25 24 24 23 21 19 18 18 18 18 18 16 15 13 12 12 12 12 12 13 13 12 13 13 13 13 12 12 11 10 11 11 11 10 10 10 10 10 10 10 10 10
26 25 25 24 22 20 19 18 18 18 18 16 15 13 12 13 14 13 13 14 14 14 14 15 15 14 14 13 13 12 11 12 12 12 11 11 10 10 11 11 11 11
26 26 26 25 23 21 20 19 18 17 17 17 16 15 14 15 16 15 16 16 17 17 16 17 17 17 16 15 14 13 12 13 13 13 13 12 11 11 11 11 11 11
27 28 27 25 23 22 20 19 17 17 17 17 18 18 18 18 18 19 21 22 21 21 20 20 21 21 19 18 17 16 16 15 14 14 13 13 12 12 11 11 11 11
28 28 27 25 24 22 21 19 18 18 19 19 20 21 20 22 23 25 26 27 25 24 23 24 25 24 22 21 21 21 20 18 16 15 13 13 13 11 11 11 11 11
28 27 26 25 24 22 21 20 19 20 22 22 21 22 23 27 29 30 30 30 29 27 27 26 26 25 23 22 22 22 21 19 17 16 14 13 13 12 12 12 12 12
28 27 26 26 24 23 23 23 23 23 24 24 24 26 30 34 34 34 34 33 31 29 28 26 24 23 22 22 22 21 21 20 19 17 15 13 12 12 12 12 12 12
28 27 27 26 25 25 27 27 26 25 27 29 31 32 36 39 38 35 34 33 31 28 28 26 24 23 22 21 21 20 20 20 19 17 15 13 11 11 11 12 12 13
29 28 28 28 29 30 30 30 29 28 30 34 35 34 34 37 38 34 32 33 32 29 28 27 24 23 23 22 21 21 20 19 18 17 15 14 12 10 11 12 13 14
30 29 29 31 34 34 32 30 30 31 32 35 36 33 31 33 34 33 33 34 32 30 28 27 25 24 24 23 22 22 21 20 19 18 17 16 14 12 11 12 14 16
28 29 30 32 33 33 33 32 32 32 34 36 38 35 32 31 31 32 34 33 30 29 28 27 27 25 25 25 24 22 22 21 20 19 19 18 16 15 13 13 15 18
26 26 28 29 28 28 30 32 33 34 36 40 41 37 32 29 28 29 31 30 28 28 28 27 27 26 26 26 25 23 22 22 21 20 20 20 18 16 15 14 15 19
25 25 27 27 27 27 27 29 30 30 31 33 32 29 26 24 24 25 27 28 28 29 29 28 27 27 27 27 28 26 22 21 21 21 21 21 18 16 15 14 15 19
25 26 27 27 28 28 29 31 30 28 28 26 21 20 21 20 20 23 24 25 26 27 28 28 26 27 29 30 31 28 23 22 23 21 19 18 16 13 12 12 13 16
24 25 26 25 25 27 29 31 30 26 24 22 18 17 19 19 20 21 22 23 25 26 27 27 26 28 31 33 34 29 23 22 21 18 15 14 13 12 10 10 10 13
23 24 24 22 21 23 24 25 26 24 21 19 18 17 17 18 19 21 22 24 26 26 25 26 26 29 33 35 34 29 23 20 19 17 15 14 14 12 9 9 11 12
22 23 22 21 21 22 22 22 23 23 22 19 17 16 17 19 20 22 24 27 27 24 22 23 25 29 34 36 35 31 25 20 17 17 15 14 13 11 8 10 12 12
23 22 21 22 22 20 21 22 22 22 21 20 18 18 19 20 22 23 24 25 24 22 20 20 22 27 32 34 32 28 23 18 16 17 17 16 14 11 9 11 13 14
24 22 21 22 21 19 18 18 19 19 18 17 18 18 17 18 20 21 22 21 20 21 20 18 20 26 31 31 29 25 21 18 17 18 19 18 14 10 9 10 12 15
22 22 21 21 20 18 16 15 15 15 15 15 16 16 16 17 18 20 20 19 20 23 22 19 22 28 32 32 29 27 24 21 19 18 18 16 12 9 9 10 14 15
21 21 20 19 18 17 15 14 13 13 13 13 13 13 14 13 13 14 15 17 21 23 20 19 22 26 29 30 30 29 25 23 21 20 18 14 10 9 10 12 16 15
20 19 18 18 17 17 16 15 14 13 13 12 11 12 12 9 8 10 12 16 19 21 20 20 22 25 28 30 30 28 24 23 23 20 15 10 9 11 13 14 16 16
18 18 18 17 17 17 16 16 15 13 14 12 10 11 10 7 9 11 14 17 18 19 20 20 20 23 29 30 29 27 23 22 20 17 13 11 12 12 13 14 15 17

ECMWFNIL_925_spd_018.txt.gz
Wind_Speed
27 26 26 24 22 21 20 20 20 19 19 19 19 18 17 17 17 17 18 17 17 17 15 15 16 16 15 13 14 15 12 11 13 14 14 13 11 10 9 8 8 7
28 27 27 25 23 22 21 21 21 21 21 20 19 19 19 18 18 18 19 20 21 21 19 19 19 19 19 16 15 17 15 13 13 13 14 13 12 11 10 9 8 8
29 28 28 26 24 23 22 21 21 22 22 21 20 20 20 20 20 20 21 23 25 24 22 22 21 21 20 18 17 17 17 16 15 13 13 12 12 11 9 9 9 10
31 30 29 27 25 24 23 23 23 23 22 21 21 21 22 22 23 24 24 25 27 25 24 24 22 21 21 20 19 19 18 18 17 15 14 13 13 12 10 9 9 8
32 31 29 28 26 25 25 25 25 24 23 23 23 23 25 26 27 28 29 28 28 26 24 24 23 22 22 21 20 20 19 18 18 17 15 14 13 13 12 11 9 9
32 31 30 29 27 26 26 26 26 26 25 26 27 27 27 29 30 31 31 30 29 26 24 24 24 23 23 23 22 20 20 18 18 18 17 15 14 13 13 12 11 11
32 32 31 29 29 28 27 26 26 28 28 29 30 30 30 31 32 32 31 30 29 27 25 25 25 25 23 24 24 22 21 19 18 19 19 17 16 15 14 12 11 10
31 31 31 30 30 30 29 28 28 30 31 31 32 33 33 33 33 32 31 30 29 28 27 27 27 26 25 25 26 25 24 22 20 20 20 20 19 17 16 14 11 9
31 31 32 32 32 30 30 30 30 31 32 32 33 33 34 34 33 33 32 31 30 29 29 29 29 29 28 27 27 27 27 24 22 21 20 20 20 19 18 17 14 12
32 31 32 33 32 31 32 32 31 31 32 34 33 32 34 34 34 33 33 33 32 31 32 32 31 31 31 29 29 29 28 26 23 22 21 20 20 19 18 17 17 16
33 32 33 34 33 32 33 33 31 31 32 34 34 33 33 35 34 34 33 34 35 34 34 34 33 33 34 32 31 30 29 27 24 23 23 21 20 19 19 19 18 19
34 34 34 35 35 33 33 34 33 31 32 34 35 34 33 33 34 34 34 35 36 35 35 35 33 34 35 33 31 30 29 27 25 24 23 22 21 21 21 20 19 19
35 37 37 36 35 35 34 34 33 32 32 33 34 34 32 30 30 33 34 34 35 35 34 35 34 34 34 33 31 29 28 27 26 25 24 22 21 21 22 21 20 19
36 38 38 37 35 35 35 34 34 34 34 33 33 32 31 29 27 29 31 33 35 35 34 34 34 33 34 33 31 29 28 28 27 26 24 23 22 22 21 21 20 19
36 35 36 36 35 35 36 36 36 36 34 33 33 32 30 28 25 25 27 30 33 33 33 33 34 34 34 34 33 30 29 29 27 26 25 24 23 23 22 21 20 18
36 34 34 35 35 35 36 37 36 35 33 31 32 31 29 27 25 23 24 26 29 31 32 32 32 33 34 36 35 33 31 30 29 28 27 25 25 24 22 21 21 19
36 34 32 33 34 34 34 34 33 31 29 27 27 27 27 26 24 23 22 22 23 27 30 31 31 32 34 36 36 35 33 31 30 28 26 24 25 25 22 20 19 18
35 33 32 32 32 31 29 28 28 26 24 22 21 21 22 23 22 21 20 20 21 23 26 29 30 31 33 35 36 35 33 29 26 26 25 23 23 22 20 18 17 15
34 32 30 30 29 27 25 23 23 23 22 19 15 14 17 20 20 19 19 20 21 23 25 27 27 28 31 33 35 35 31 26 23 23 23 22 20 18 17 17 15 13
32 29 27 26 25 23 22 20 20 20 20 17 13 10 12 16 17 17 18 20 22 23 24 24 25 25 28 32 35 35 31 25 21 21 21 20 19 18 17 15 14 13
29 26 24 24 24 23 21 18 16 15 15 15 13 11 11 13 14 14 16 18 20 20 19 19 19 20 23 31 36 35 31 24 20 20 21 21 19 18 17 16 15 15
28 26 24 23 24 22 19 16 12 11 12 13 12 10 9 10 12 15 16 16 16 17 16 15 17 18 22 30 36 36 32 25 21 21 21 20 19 18 17 17 17 16
26 25 23 22 22 20 17 14 12 12 13 13 11 9 8 9 12 15 17 17 17 17 16 16 17 19 23 31 35 35 32 26 21 19 19 20 20 19 17 17 16 15
27 25 22 22 21 20 18 17 16 16 15 14 12 10 9 9 10 11 13 17 18 17 18 19 19 21 27 33 36 35 31 25 20 18 18 20 21 19 17 16 14 13
26 24 22 22 22 22 21 20 19 17 15 14 14 12 9 8 7 7 10 13 15 16 18 20 21 25 30 33 34 33 30 26 23 22 21 20 19 17 15 14 14 14
26 25 23 22 23 23 21 19 19 18 17 16 15 14 12 9 6 6 8 11 13 15 17 18 21 26 29 29 28 27 28 27 26 25 22 18 17 16 15 15 15 16

ECMWFNIL_925_spd_021.txt.gz
Wind_Speed
35 34 33 32 32 31 30 31 31 31 31 31 31 29 30 32 30 29 29 26 26 25 23 22 21 19 18 16 14 15 18 18 18 16 15 14 14 13 13 11 10 9
36 35 34 33 33 32 31 32 33 33 32 32 31 29 30 32 31 30 30 27 26 26 25 23 23 21 19 18 16 17 19 19 19 18 16 15 14 15 15 12 11 11
36 35 35 34 34 33 32 32 34 34 33 33 33 32 31 32 31 29 29 29 27 27 26 24 24 23 21 20 19 19 20 19 20 19 18 18 16 16 17 14 12 13
36 36 37 36 35 35 33 32 34 34 33 34 34 33 33 32 32 30 29 30 30 28 27 26 25 24 23 23 22 21 21 20 20 19 19 20 20 18 18 15 13 13
37 37 37 37 35 35 34 33 34 35 35 35 34 34 34 33 32 31 30 31 32 30 29 29 27 26 25 26 25 24 23 23 22 20 19 21 21 21 21 19 15 13
37 37 38 38 36 36 36 35 36 37 36 36 35 34 34 34 33 32 31 32 33 32 31 31 30 29 28 29 28 26 25 25 25 24 23 22 21 22 22 21 19 16
37 38 38 38 37 36 36 37 37 37 37 36 36 35 34 34 34 34 33 32 33 33 33 33 33 32 31 31 30 28 26 26 26 27 26 24 22 23 24 22 21 21
37 38 39 38 37 37 37 38 38 38 37 36 36 36 35 35 35 35 35 33 33 34 34 35 34 34 34 33 32 30 29 28 28 29 29 28 25 25 25 23 21 22
37 39 39 38 38 37 38 39 39 38 38 37 37 36 35 36 36 36 36 35 34 34 35 36 37 36 36 35 34 32 31 31 30 30 30 30 29 27 26 24 23 24
38 39 39 39 38 39 39 39 39 39 39 38 37 37 36 37 37 36 37 37 36 36 35 36 37 38 37 36 35 35 34 33 32 31 31 31 31 30 28 27 25 25
39 39 39 39 39 40 40 40 39 38 39 39 38 38 38 37 37 36 37 38 39 39 38 37 37 38 37 36 36 36 35 35 34 33 32 32 32 32 31 30 29 27
40 40 40 41 41 41 40 40 39 38 38 39 39 39 38 38 37 37 37 38 39 39 39 39 38 38 38 37 37 36 36 35 35 34 33 33 33 33 33 32 31 29
41 41 41 42 42 42 41 40 40 39 39 39 39 39 38 37 38 38 38 38 38 38 38 38 37 37 37 37 36 36 36 36 35 35 36 35 32 31 32 32 30 28
43 42 42 42 43 42 41 40 40 40 39 38 38 38 38 37 36 36 36 36 36 36 35 35 35 35 36 36 35 34 35 36 36 36 35 33 30 29 29 28 27 26
43 42 41 41 42 41 41 40 40 40 39 37 37 38 37 35 33 32 33 33 33 33 32 33 33 34 35 35 34 34 35 36 37 35 32 30 29 29 27 25 25 24
42 40 40 40 41 41 42 41 40 39 37 36 36 37 36 33 31 30 31 32 31 31 31 32 33 35 36 36 36 36 36 37 35 33 32 31 29 26 25 24 23 21
40 39 39 40 40 40 40 40 39 37 36 34 33 34 33 32 31 30 30 31 31 31 32 33 34 36 36 36 37 37 37 36 34 33 33 31 27 24 23 22 20 19
39 39 39 39 40 39 38 38 37 35 33 32 31 32 32 32 32 31 30 30 31 32 33 34 35 36 36 37 37 38 38 36 33 32 31 28 27 25 24 22 21 20
40 40 39 39 39 39 37 36 35 33 32 31 30 30 31 32 32 30 28 28 30 31 32 34 35 35 37 37 37 38 39 36 31 29 28 28 28 27 25 23 22 21
41 40 40 39 39 38 35 34 34 32 31 30 28 28 29 30 30 28 26 26 28 29 31 33 35 36 37 36 35 37 39 36 31 28 27 27 27 27 25 23 23 24
41 40 39 38 37 36 35 34 33 32 30 28 27 27 28 28 28 26 24 24 26 28 30 32 33 34 34 33 33 35 37 35 31 28 27 26 27 28 26 25 26 27
41 39 38 36 35 35 34 33 32 31 29 28 27 25 25 25 26 25 25 25 25 26 26 26 26 27 28 29 30 32 34 34 31 29 29 28 27 26 25 25 26 26
41 38 36 35 35 34 33 33 33 32 30 27 26 24 24 23 23 23 24 24 23 22 19 18 18 20 23 25 27 30 34 33 31 30 29 28 26 25 24 24 24 23
40 38 37 36 36 35 34 33 33 32 30 28 26 24 22 22 21 20 20 20 21 21 19 18 17 18 20 22 26 30 34 33 31 30 29 27 25 23 22 22 22 21
39 39 38 38 37 35 35 34 33 31 29 27 24 22 20 19 19 18 18 18 19 20 20 19 19 19 19 21 26 31 33 32 31 29 27 25 23 22 20 20 20 19
39 39 39 38 37 35 34 33 31 29 27 24 22 20 18 17 16 17 17 17 17 18 19 18 18 19 20 22 27 31 33 32 30 28 25 24 23 22 20 20 19 19

ECMWFNIL_925_spd_024.txt.gz
Wind_Speed
39 39 38 37 36 36 36 35 34 34 35 35 35 35 35 34 32 32 31 30 30 29 28 28 27 25 24 22 22 24 25 22 19 18 18 18 17 18 20 20 18 16
40 39 38 37 36 36 36 36 36 36 37 36 36 36 36 35 34 34 33 32 31 30 29 30 29 27 26 24 22 24 26 24 21 20 20 20 20 19 21 21 19 17
40 39 38 37 37 37 37 37 37 38 38 37 37 37 36 36 35 35 34 33 33 30 30 32 31 29 28 25 23 24 26 26 23 22 22 22 21 21 21 21 20 18
41 41 39 38 38 38 37 37 38 38 38 37 37 37 37 37 36 35 35 35 34 32 31 32 32 31 29 27 25 24 25 25 24 24 24 24 22 21 22 22 21 20
43 42 40 39 38 37 37 37 39 39 38 37 37 38 38 37 36 36 36 36 35 34 33 33 33 32 31 30 28 26 25 25 25 26 26 25 23 22 22 22 23 22
43 42 41 39 38 37 37 39 40 40 39 38 38 38 38 38 37 37 38 38 37 36 35 35 35 34 33 32 30 28 27 26 27 28 28 27 26 24 23 23 25 25
43 42 41 39 39 38 38 40 40 40 40 39 38 39 39 39 38 38 39 39 39 38 37 37 37 37 35 35 33 31 30 29 28 29 29 29 28 27 26 26 27 27
44 43 41 39 39 38 39 40 40 40 40 39 39 40 40 40 39 39 39 40 40 40 39 38 38 38 37 37 36 34 33 32 31 31 31 30 30 30 30 29 29 28
44 42 40 40 40 39 40 41 40 40 40 40 40 41 41 41 40 39 39 40 41 41 40 40 39 39 39 39 38 36 35 35 34 34 33 33 33 33 32 30 30 30
43 42 40 40 40 40 41 42 40 39 39 40 41 40 41 41 40 40 40 40 41 41 41 41 40 40 40 40 40 39 38 37 36 36 36 36 36 35 33 31 30 30
43 41 41 41 42 42 42 42 41 39 40 40 41 40 41 41 40 40 41 42 42 42 42 42 41 41 41 41 41 40 39 38 37 37 36 37 37 35 32 31 31 30
42 42 42 42 43 43 43 42 41 40 40 41 41 41 40 40 41 41 42 43 43 42 42 42 42 42 42 42 41 40 39 38 37 37 37 37 36 34 32 32 31 30
42 43 44 44 44 45 44 42 42 42 41 41 42 41 40 40 41 42 43 43 42 41 41 42 42 42 41 41 39 38 38 38 38 38 37 36 34 33 32 32 31 30
44 45 45 45 45 44 43 42 42 42 42 42 41 40 41 41 42 42 42 41 41 41 40 40 40 40 40 39 38 38 38 39 40 39 38 35 33 33 32 31 31 30
44 44 44 44 44 43 43 42 42 42 42 41 40 41 41 41 41 40 39 39 39 39 38 38 38 39 40 39 39 39 39 39 40 40 38 35 33 32 31 30 30 30
43 43 42 43 43 43 43 43 42 42 41 40 40 41 41 40 38 37 37 37 37 37 37 37 38 39 40 41 42 41 40 38 39 40 39 35 32 31 29 29 29 28
42 42 42 42 43 44 43 43 43 42 41 40 40 40 39 38 36 36 37 37 37 37 37 38 40 40 41 42 42 41 39 38 39 40 39 36 32 31 30 29 27 26
42 42 42 42 43 43 43 43 42 41 40 40 39 38 37 36 35 36 37 37 37 38 38 39 41 42 43 42 41 40 39 39 40 40 38 35 32 31 31 30 27 25
43 42 42 43 43 44 43 41 40 40 40 39 38 37 36 35 35 36 36 36 38 38 39 40 41 41 41 40 39 40 40 41 40 37 35 34 32 32 32 30 28 26
42 42 43 43 43 42 40 39 39 40 40 38 36 35 34 34 35 36 36 37 38 39 39 40 40 39 38 38 39 39 39 41 39 35 34 34 32 32 32 30 29 28
42 42 43 42 41 40 38 38 39 39 37 35 34 34 35 35 35 36 37 38 38 38 37 37 37 36 35 36 37 37 37 39 38 34 32 32 31 32 33 32 31 29
42 42 41 40 39 38 37 38 38 37 36 34 33 34 35 35 36 37 38 38 37 36 35 34 33 33 32 33 33 34 36 38 36 32 30 31 31 32 33 33 31 30
43 42 40 39 38 37 37 38 37 36 35 34 34 34 35 36 37 38 38 37 36 35 34 32 30 29 29 29 30 31 34 36 35 32 30 31 32 32 33 32 31 31
43 42 40 38 38 38 37 37 36 35 35 36 36 36 36 37 37 35 34 35 36 36 35 32 29 27 26 25 27 29 33 36 36 32 29 29 29 30 31 31 30 30
42 41 40 38 38 38 37 36 36 36 36 37 37 36 35 35 34 33 32 33 34 34 32 29 26 24 23 24 25 28 32 34 34 32 29 28 28 29 30 31 29 26
41 40 40 39 38 37 36 37 36 35 36 36 35 34 33 33 33 33 31 30 29 29 27 25 24 23 23 24 25 27 30 33 33 31 29 28 28 29 29 27 25 23

ECMWFNIL_925_spd_027.txt.gz
Wind_Speed
43 42 40 39 37 36 34 34 34 35 37 37 36 36 36 35 33 32 31 29 29 29 29 27 26 25 25 25 25 25 24 24 24 24 24 23 21 21 21 21 20 19
43 42 40 38 37 36 35 35 35 36 38 38 38 37 36 34 33 32 32 31 30 30 29 28 27 26 26 27 27 26 26 25 25 26 26 24 22 21 21 21 22 21
44 42 41 39 38 37 36 36 35 37 38 38 38 37 35 34 34 33 33 32 32 31 30 29 28 28 28 28 28 27 27 27 26 27 26 25 23 22 21 21 23 23
44 43 42 41 39 38 37 36 36 37 37 37 37 37 36 35 34 34 34 34 33 33 32 31 30 30 30 30 29 29 28 28 27 28 27 26 24 23 22 21 22 23
45 44 43 42 40 38 37 38 38 38 38 37 37 37 36 35 35 35 35 35 35 34 33 33 32 32 31 32 32 31 30 30 29 29 29 28 26 25 23 22 23 24
43 43 43 42 40 39 38 39 40 40 38 37 37 37 37 37 36 36 36 37 37 36 35 34 34 33 33 34 34 33 33 31 29 29 30 30 28 26 25 24 24 24
42 42 42 41 40 39 40 41 41 40 39 38 37 37 37 37 37 37 37 37 37 37 37 36 35 35 35 35 36 35 34 32 30 29 31 31 31 29 27 26 26 25
42 41 41 40 40 39 40 41 41 40 40 38 37 38 37 38 38 38 38 38 38 38 38 37 37 36 35 35 36 36 35 33 32 31 32 33 33 32 30 28 27 26
41 41 41 40 41 40 41 42 42 41 39 38 38 38 37 38 38 38 38 38 38 38 38 38 38 37 36 36 37 37 36 36 35 34 33 33 34 34 32 30 28 27
41 41 40 40 41 41 42 43 42 40 39 39 39 37 37 37 37 38 38 38 38 38 38 38 38 37 36 37 38 38 38 38 37 36 35 34 35 34 33 32 31 30
41 41 40 41 42 42 43 43 42 40 39 39 38 37 36 36 36 37 37 38 39 39 39 38 38 37 37 37 38 39 39 39 38 37 36 35 35 34 33 33 32 32
41 41 42 42 42 42 42 43 42 40 39 38 38 37 36 36 36 37 38 38 39 39 39 38 37 37 38 39 39 40 40 39 38 37 37 36 35 34 34 33 33 32
42 43 42 42 43 42 42 41 40 40 39 38 38 37 36 36 36 37 38 38 38 38 38 37 36 37 38 39 40 40 40 40 38 37 37 37 36 36 35 34 34 32
44 43 43 42 42 41 40 39 39 39 39 38 37 37 37 37 37 37 36 36 36 36 36 36 36 38 39 40 40 40 40 39 38 37 37 37 36 36 36 36 34 33
43 42 41 41 39 38 39 39 38 38 37 36 36 37 37 36 36 35 34 34 34 34 35 35 37 39 40 40 40 39 39 38 37 36 37 37 36 36 36 35 34 33
41 41 40 39 38 38 38 38 37 36 35 36 36 36 35 34 34 33 33 34 34 34 34 35 38 40 41 41 41 40 38 37 36 36 37 37 37 36 35 33 32 32
41 40 39 39 39 38 37 37 36 35 34 35 35 34 34 33 33 33 34 34 35 35 35 37 39 41 41 41 40 40 38 37 36 37 38 38 38 36 34 31 30 30
40 40 39 39 39 38 37 36 35 34 34 34 34 34 33 33 33 34 35 35 35 36 36 38 40 41 40 40 40 39 39 38 37 37 38 38 38 36 33 30 29 29
39 39 39 39 39 39 37 35 34 34 34 35 34 34 34 34 35 35 35 35 36 36 38 40 40 40 39 39 39 39 39 39 38 38 38 38 37 35 33 32 32 30
38 39 39 39 38 37 35 34 34 35 36 35 34 34 34 35 36 36 36 37 37 37 39 39 39 39 38 38 39 39 39 39 40 39 38 37 36 35 35 35 34 32
38 39 39 37 36 35 34 35 36 36 36 36 35 35 37 37 37 37 37 38 38 38 38 38 38 38 38 38 39 39 38 39 40 39 37 34 34 33 34 35 34 32
39 39 37 36 34 34 35 36 37 37 37 37 36 37 37 37 36 37 38 38 38 38 38 37 37 37 38 39 39 38 38 39 39 38 34 32 32 32 32 33 31 30
38 37 36 35 34 35 37 38 38 39 38 38 38 37 37 37 37 37 37 38 38 38 38 37 37 37 38 38 37 37 37 37 38 36 33 31 32 32 31 30 29 29
39 37 35 35 36 37 38 38 39 39 39 39 39 38 38 37 37 36 36 38 38 38 38 37 37 38 38 37 37 36 35 35 36 36 32 31 31 29 28 28 28 28
39 38 36 36 38 40 40 40 40 39 39 39 39 38 36 36 36 36 36 37 37 37 38 37 37 38 37 36 35 33 31 33 34 33 30 29 29 27 25 25 25 26
38 39 40 40 41 42 41 40 40 38 37 38 37 36 35 35 36 36 35 35 35 35 36 36 37 36 35 34 32 29 28 30 32 31 29 28 27 26 25 24 24 25

ECMWFNIL_925_spd_030.txt.gz
Wind_Speed
42 41 40 39 38 37 36 35 35 35 35 34 33 33 33 33 31 30 30 30 30 29 27 25 23 22 22 21 21 22 23 23 22 21 21 21 20 20 20 18 17 17
42 41 40 39 38 38 37 37 36 36 36 36 35 34 33 32 31 30 30 30 30 29 28 26 24 23 23 23 22 23 24 24 23 22 23 23 22 22 21 20 19 18
43 41 40 39 39 39 38 37 37 37 36 36 35 34 32 31 31 30 30 29 30 30 28 27 25 24 24 24 24 24 25 25 24 24 23 23 23 23 23 21 20 19
42 42 41 41 40 40 38 37 37 37 36 35 34 34 33 32 31 30 30 29 29 29 29 28 26 25 26 26 25 25 25 25 24 24 24 24 24 24 23 22 21 19
43 43 42 41 40 39 38 37 37 37 37 36 34 33 32 32 31 31 30 30 30 30 30 29 28 27 27 27 27 26 25 25 26 26 26 26 25 25 24 23 22 20
41 41 41 40 39 38 37 38 38 38 37 36 34 33 33 32 32 32 31 31 30 30 30 30 29 29 28 28 28 28 27 27 27 27 27 27 26 25 25 24 23 22
39 40 40 40 39 38 38 38 38 38 37 35 34 33 33 33 33 33 32 32 31 31 31 31 31 31 30 29 29 29 29 29 29 29 29 28 27 27 27 26 25 23
39 39 40 40 39 39 39 39 39 38 36 34 33 33 34 34 34 34 33 32 32 32 32 33 33 33 32 31 31 31 31 31 31 31 31 30 29 29 29 28 27 25
39 38 39 40 40 40 40 40 39 37 36 34 34 34 34 34 35 35 34 33 33 33 33 34 34 34 33 33 33 32 32 33 33 33 33 32 32 31 30 29 28 27
39 38 38 40 40 40 39 39 38 37 35 35 34 33 34 34 35 35 35 34 34 34 35 35 35 35 35 35 34 34 34 34 34 34 34 34 33 32 30 29 29 29
39 38 39 40 40 39 39 38 38 36 35 34 34 33 34 34 34 35 35 35 36 36 36 36 36 36 36 36 36 36 35 35 34 34 35 35 35 34 32 31 31 30
40 40 40 40 40 39 38 38 38 37 35 34 34 34 34 34 35 35 36 37 38 38 38 38 37 36 37 37 37 37 36 35 35 35 35 35 35 35 34 33 32 32
41 42 41 40 40 39 38 38 39 39 37 35 34 34 35 35 36 36 37 39 39 39 39 38 37 37 37 38 38 37 37 36 35 35 35 35 35 35 34 34 34 33
43 42 41 41 40 39 39 39 40 39 38 36 35 35 36 36 37 38 39 40 40 40 39 38 37 38 38 38 38 37 37 37 36 35 35 34 34 34 34 35 34 34
42 40 40 40 39 39 39 40 40 40 38 37 36 36 37 37 37 39 40 40 40 39 39 38 38 38 39 40 39 38 37 37 36 36 35 35 34 34 34 35 35 34
40 39 39 39 39 39 40 40 40 39 37 37 38 38 38 38 38 39 40 40 39 38 38 38 38 40 41 41 41 40 38 37 36 36 36 35 34 34 34 35 35 35
39 39 38 39 40 40 39 39 39 38 38 39 39 39 40 40 40 40 41 40 39 38 38 38 40 41 42 42 42 40 39 37 36 36 36 36 35 35 35 36 36 34
38 38 38 39 39 39 38 38 38 39 39 39 40 41 41 41 41 42 41 39 38 38 39 39 41 42 43 42 42 41 40 38 37 36 36 35 36 36 35 36 34 29
37 37 38 38 38 38 37 37 38 39 40 41 41 42 42 41 42 41 40 39 38 39 39 39 41 42 43 43 41 40 40 39 37 37 36 36 36 36 35 35 32 28
37 38 38 38 38 37 37 37 39 40 41 41 42 41 40 40 40 40 39 39 40 39 39 39 41 42 43 42 41 40 39 39 38 37 36 36 36 35 35 34 32 31
37 38 38 37 37 37 37 38 39 40 41 41 40 40 40 40 39 39 39 39 39 39 37 38 41 42 42 41 40 40 38 38 38 37 36 36 35 34 34 33 32 33
38 37 36 35 36 36 36 37 39 40 41 40 39 39 38 38 38 38 38 38 38 37 37 39 40 40 40 40 40 39 38 37 37 37 36 34 33 33 33 32 32 31
37 35 34 34 34 35 36 38 39 40 40 40 38 37 36 36 36 37 37 37 36 37 39 40 39 38 40 40 39 38 37 36 37 37 35 33 32 32 32 31 31 31
36 36 35 36 37 39 40 40 41 41 40 40 39 37 36 36 36 35 35 36 37 39 41 40 38 38 39 39 39 38 37 37 37 36 34 33 32 31 31 30 29 29
36 38 38 39 39 41 41 41 41 41 40 39 39 38 37 36 35 34 33 35 38 40 41 39 37 36 37 37 37 37 37 37 37 35 33 32 30 29 29 28 27 26
39 40 40 41 41 42 41 40 40 38 37 37 37 36 34 33 34 34 33 35 37 38 39 39 37 36 36 37 36 37 37 37 36 34 33 31 30 28 27 26 25 23

ECMWFNIL_925_spd_033.txt.gz
Wind_Speed
37 36 37 34 32 32 32 33 34 32 31 29 29 31 31 31 30 29 29 26 20 16 17 18 18 18 16 14 14 16 17 17 18 19 18 17 17 15 14 14 13 12
37 36 37 34 32 35 36 36 36 34 34 33 32 32 32 32 31 30 29 29 25 19 16 18 18 18 17 15 15 17 17 18 19 20 20 19 19 17 16 15 14 14
38 36 37 35 34 37 36 34 36 36 35 34 33 33 32 32 32 31 30 30 28 23 18 17 16 17 17 16 17 19 20 20 20 21 21 21 20 20 18 16 15 16
39 37 37 35 34 34 34 32 34 36 34 33 34 33 32 32 32 31 31 30 29 27 22 17 16 16 17 17 20 22 21 21 22 22 23 22 22 21 20 18 17 17
40 39 37 35 32 33 34 34 34 35 34 33 34 33 33 33 32 31 30 30 29 27 23 19 17 16 16 17 22 24 23 22 23 23 23 23 23 22 21 20 19 18
39 39 38 36 34 35 36 35 35 35 34 33 33 34 34 33 33 32 31 31 29 27 25 23 20 17 16 18 24 26 24 24 25 25 25 25 24 23 22 21 20 19
37 38 39 37 36 37 37 36 36 37 36 35 34 35 35 34 34 34 33 32 31 29 29 28 25 21 17 18 25 27 26 26 27 26 26 26 25 24 23 22 21 20
37 37 39 39 36 35 35 35 35 37 38 36 35 36 36 36 35 35 34 34 33 32 32 31 30 27 20 20 27 29 28 28 29 28 28 27 26 25 24 23 22 21
36 36 37 38 36 33 33 33 33 36 39 39 36 35 36 38 37 37 37 36 35 35 35 33 33 30 26 26 30 30 30 31 31 30 29 28 28 27 25 24 23 23
36 35 35 36 35 33 32 32 32 33 37 39 37 33 35 39 39 38 38 38 37 36 36 36 35 34 31 31 31 31 32 33 32 32 31 30 30 28 27 26 25 25
37 36 35 35 35 33 33 34 33 31 33 37 37 33 34 38 41 40 40 40 39 39 38 38 37 36 35 33 32 32 33 34 34 33 33 32 31 29 28 28 28 28
36 36 35 35 35 34 34 35 34 32 31 35 37 34 33 36 40 42 42 42 41 40 40 39 39 38 37 35 34 33 34 35 35 35 34 33 32 30 29 29 29 29
36 37 36 35 36 36 35 34 35 34 32 33 35 35 34 34 38 42 44 43 43 42 41 40 40 39 39 37 36 35 36 36 36 35 35 34 33 31 30 29 29 30
37 36 36 36 36 36 35 34 34 35 33 33 34 35 35 35 37 40 43 43 43 42 42 41 40 40 40 39 38 37 37 37 37 36 35 34 33 32 30 29 29 29
36 34 33 36 36 35 35 35 34 34 34 33 36 37 36 35 36 36 38 41 42 41 41 40 40 40 41 41 40 39 38 37 37 37 36 34 33 32 30 30 31 31
38 36 33 35 39 38 38 39 36 35 35 34 37 39 36 33 34 33 34 37 38 39 39 38 39 41 42 42 41 41 40 39 37 37 36 35 34 32 30 30 32 32
40 40 36 37 41 40 39 41 38 36 36 35 37 39 36 34 35 34 32 31 33 36 36 36 39 42 42 42 43 41 39 39 38 38 37 36 35 32 31 31 32 32
39 38 38 37 39 38 38 40 38 35 35 34 35 37 36 34 34 34 33 31 29 31 33 35 39 42 42 43 44 43 41 38 36 37 37 36 35 33 31 32 32 31
37 37 37 35 36 37 36 37 37 36 35 34 35 35 35 34 32 32 33 32 30 30 32 33 37 41 43 44 43 44 43 39 34 34 36 36 35 34 33 33 32 31
36 36 34 32 33 35 34 35 37 36 35 34 33 33 33 34 35 33 32 33 33 32 32 33 36 41 43 43 44 43 43 41 36 32 34 36 36 36 35 34 34 33
35 33 29 29 31 32 32 34 35 35 35 33 31 32 33 34 34 34 34 35 34 33 33 34 36 40 42 42 44 44 42 42 39 33 31 33 35 36 35 35 35 34
31 28 26 27 29 30 31 33 34 35 34 32 30 31 32 33 33 34 35 35 34 34 35 34 34 38 42 42 43 43 41 40 41 36 30 30 33 35 35 35 35 34
30 30 29 29 30 32 33 34 35 34 34 35 34 31 31 33 34 35 34 34 36 37 36 35 33 35 41 42 41 43 41 40 42 38 30 28 31 33 34 35 35 35
38 39 38 35 34 35 36 36 36 35 36 39 37 32 32 34 34 34 35 35 37 37 36 36 34 35 40 41 40 42 41 41 42 38 30 28 29 28 28 31 35 36
43 42 40 38 36 35 35 35 35 35 35 38 37 33 33 34 34 36 37 35 35 36 38 38 34 33 38 41 40 41 41 41 42 39 32 29 28 26 25 24 27 32
41 40 39 39 39 37 35 34 34 35 36 38 38 34 32 33 34 36 36 34 35 36 38 39 35 33 36 40 40 40 41 41 40 37 33 30 29 29 27 23 21 25

ECMWFNIL_925_spd_036.txt.gz
Wind_Speed
26 26 25 24 24 23 22 22 21 21 21 21 20 20 20 20 19 19 19 18 19 19 17 16 15 15 15 14 14 13 12 12 12 11 12 13 12 11 11 12 11 10
29 27 25 24 24 24 23 23 22 21 22 22 21 20 20 20 19 19 19 19 19 19 18 17 16 17 16 15 15 14 13 13 13 12 13 14 13 12 13 12 12 12
29 29 27 26 25 25 24 23 21 22 21 21 22 21 20 19 19 20 21 20 20 19 19 18 17 17 17 17 16 15 15 15 14 13 14 15 14 13 14 13 13 13
31 31 30 28 26 24 24 23 22 22 22 22 22 22 21 19 20 20 21 21 20 19 19 19 19 18 18 18 17 17 17 16 15 14 15 16 15 15 14 14 14 13
33 32 30 29 27 24 23 24 24 23 23 23 22 22 22 21 21 21 21 22 22 21 20 20 20 19 18 18 18 18 18 17 16 16 17 17 16 16 16 15 15 14
33 33 31 30 29 26 24 25 25 24 24 24 23 22 23 23 23 22 22 22 22 22 21 21 21 20 19 19 19 19 19 17 17 17 18 18 16 16 16 16 16 16
33 33 33 32 30 28 27 26 26 26 25 24 24 24 24 24 24 24 24 23 23 22 22 22 22 21 20 20 20 20 20 18 17 18 19 19 17 16 17 17 17 17
34 33 33 33 31 29 29 28 27 27 27 26 25 25 25 25 26 26 25 25 24 23 23 23 22 22 21 21 21 21 21 19 19 19 20 20 18 17 18 17 17 18
34 33 33 33 32 31 30 30 28 28 28 28 27 26 26 27 27 26 26 26 25 24 24 24 23 23 22 22 22 23 22 21 20 21 21 21 19 19 19 18 17 18
34 33 33 33 33 32 31 31 30 29 29 29 29 28 27 27 28 27 26 26 26 25 25 24 24 24 23 23 23 23 23 22 21 22 22 21 20 20 20 20 19 19
34 34 34 34 34 33 32 32 31 30 29 30 30 30 28 27 27 28 27 26 26 26 25 25 25 25 25 25 24 24 24 23 22 22 22 22 22 21 21 21 20 20
35 35 35 35 35 33 33 33 33 32 30 30 30 31 30 28 27 27 27 27 26 25 25 25 25 25 26 26 25 24 24 24 23 22 23 23 22 22 22 22 21 21
36 36 36 36 35 34 33 33 34 33 32 31 30 30 31 30 28 27 27 27 26 26 26 26 26 26 26 27 27 25 24 24 23 22 22 22 23 23 23 23 22 22
35 35 35 34 34 34 34 34 33 33 33 31 30 30 30 31 30 29 27 26 26 27 27 26 26 27 27 27 27 26 25 24 24 23 22 22 22 23 23 23 23 22
33 33 32 33 33 33 34 34 33 32 32 31 30 29 29 30 30 29 28 26 27 27 28 27 27 28 28 28 28 27 25 24 24 24 23 22 22 23 23 23 23 23
31 31 31 31 33 33 34 34 33 31 31 31 31 29 28 29 29 29 28 27 27 27 28 28 28 28 30 32 31 28 26 24 24 23 24 23 22 22 23 23 23 23
30 31 30 31 32 33 33 33 33 31 30 30 30 29 28 28 28 29 28 28 27 27 28 28 28 30 33 36 37 34 29 24 23 23 23 23 23 23 22 23 23 23
30 30 29 30 31 32 31 31 31 30 29 29 29 29 29 28 28 29 29 28 27 27 28 29 29 31 35 37 38 39 36 29 23 22 23 23 24 24 23 22 22 23
28 28 29 29 30 30 29 29 30 30 30 29 28 28 28 28 28 28 29 29 29 28 28 29 28 31 36 39 39 40 40 36 28 23 22 23 23 24 24 23 22 22
27 28 28 28 28 28 27 28 30 31 30 28 27 28 28 28 28 28 29 29 30 29 28 28 28 30 35 39 40 40 41 41 35 26 23 23 23 24 24 24 24 23
29 29 27 27 26 27 27 28 28 29 29 29 28 28 28 29 29 29 29 29 29 29 28 28 29 32 35 37 40 40 40 41 39 31 26 25 24 24 25 25 25 25
30 30 28 27 27 27 28 29 29 30 30 30 29 28 28 29 29 30 30 30 31 31 30 30 30 33 37 38 38 39 39 41 40 34 29 28 25 25 26 27 27 26
30 30 29 28 28 29 30 31 31 32 31 30 30 29 28 29 30 30 30 31 33 33 33 33 32 33 37 40 40 39 39 42 41 34 30 29 27 26 26 28 29 28
28 28 28 29 29 30 32 32 32 31 30 29 29 29 29 29 28 29 29 31 33 33 34 34 32 32 36 39 41 40 41 43 40 33 29 29 28 28 28 28 30 30
27 28 29 29 31 32 32 31 30 28 27 27 28 28 28 27 26 27 29 30 30 31 32 32 30 30 33 38 41 41 43 43 38 31 30 29 29 30 30 30 30 30
28 29 30 30 31 31 29 27 27 26 26 27 27 27 26 26 26 26 27 27 27 28 30 31 32 33 33 36 40 42 44 43 37 32 32 32 31 31 29 30 31 31

ECMWFNIL_925_spd_039.txt.gz
Wind_Speed
25 25 25 25 24 23 23 23 21 21 21 21 20 19 20 20 19 19 19 19 19 19 18 18 17 17 15 15 14 12 12 12 12 11 12 12 13 13 13 14 13 12
27 25 24 24 24 24 24 24 23 22 22 22 21 20 19 20 20 21 20 20 20 20 19 19 19 18 17 15 15 14 13 13 13 13 13 13 14 14 14 14 15 13
28 27 26 25 25 25 24 24 23 23 22 22 22 21 20 20 21 22 22 22 21 21 20 20 19 19 18 16 16 16 15 15 14 14 14 14 15 15 14 14 15 14
31 29 28 27 25 25 24 24 24 24 23 23 23 23 21 20 21 22 22 23 22 22 21 21 20 19 18 17 17 16 16 16 16 15 15 15 16 16 14 14 14 14
34 32 29 27 26 25 24 24 25 25 25 24 23 23 23 22 21 22 22 23 23 23 22 22 22 21 20 19 18 17 17 17 17 17 17 17 17 17 15 15 15 15
34 33 31 29 27 26 25 26 26 26 25 25 24 23 23 23 23 23 23 24 24 23 23 23 23 22 21 21 20 19 18 18 18 19 19 18 18 17 17 16 16 16
34 34 33 31 29 28 28 27 27 26 26 25 25 24 24 24 24 24 24 24 24 24 23 23 23 23 22 22 22 21 20 20 19 20 21 20 19 18 18 17 18 18
34 34 33 33 31 31 30 29 27 27 27 26 25 25 25 25 25 25 25 24 24 24 24 24 24 24 23 22 22 22 22 21 20 21 22 22 21 20 19 19 18 19
34 34 34 34 33 32 31 31 29 28 28 27 27 26 26 26 26 25 25 25 25 24 24 24 24 24 24 23 23 23 23 22 21 22 23 23 22 21 21 20 19 20
34 34 34 35 35 34 33 33 31 29 29 29 28 27 26 26 26 25 25 25 25 24 24 24 24 25 25 24 24 24 23 23 23 23 23 24 23 22 22 22 21 21
35 35 35 36 36 35 35 35 33 31 30 30 30 29 27 26 26 26 26 25 25 25 25 25 25 25 25 25 24 24 24 24 23 23 23 24 24 23 23 23 23 22
35 35 35 37 37 36 35 35 35 33 31 30 29 29 29 28 27 27 27 27 27 27 27 27 27 27 26 26 25 25 25 24 24 23 23 23 24 24 24 24 24 24
35 35 35 36 36 35 35 34 34 34 32 30 29 29 30 30 29 28 28 28 28 28 28 29 28 28 28 27 27 26 25 25 24 24 23 23 24 24 24 25 25 24
35 34 34 35 35 35 34 33 33 33 33 31 30 29 30 30 30 30 29 28 29 30 30 30 30 29 29 29 29 28 27 26 25 25 25 24 24 24 25 26 25 25
33 32 32 33 33 34 34 33 32 32 32 32 30 30 29 30 30 30 29 29 29 30 30 30 30 31 31 31 30 29 29 28 27 26 26 26 25 25 26 27 26 25
31 31 31 32 33 33 34 33 32 30 31 31 31 30 29 29 29 30 30 29 29 29 30 30 30 31 33 35 34 32 29 28 28 27 27 27 26 25 26 27 27 26
31 31 30 31 33 32 32 32 32 30 30 31 31 31 30 29 28 29 30 30 30 30 30 30 31 32 35 38 38 36 32 29 28 28 27 27 27 26 26 27 27 26
30 30 30 30 31 31 31 31 31 30 29 29 30 31 30 29 29 29 31 30 30 30 31 31 31 33 37 39 41 41 38 32 27 27 27 27 28 27 26 26 26 26
29 30 30 29 30 30 29 28 29 30 29 29 29 30 30 30 30 30 30 31 31 30 31 31 31 33 37 40 42 43 43 38 31 27 27 27 27 28 28 27 26 25
29 29 30 29 28 28 28 28 29 31 31 29 29 29 30 31 31 30 31 32 32 31 31 31 31 32 36 40 43 43 45 44 37 29 27 28 28 29 29 28 28 27
29 29 29 29 28 28 29 30 31 31 32 31 30 30 31 31 31 31 32 32 32 32 31 31 31 32 35 38 42 44 45 46 42 33 29 29 29 30 30 30 30 29
29 29 29 28 29 29 31 32 31 31 31 31 30 29 29 30 30 31 31 31 32 32 32 32 31 32 35 37 41 43 44 46 46 37 31 30 29 29 30 30 30 31
29 29 28 28 29 29 31 31 30 29 29 29 29 29 29 30 29 29 30 31 32 32 32 32 31 33 37 39 40 42 43 47 47 38 31 31 29 29 31 31 32 33
29 29 28 28 28 29 30 29 29 28 28 28 29 29 29 29 28 27 28 29 31 32 32 32 31 33 37 39 41 42 43 46 46 37 31 30 30 30 32 33 33 35
28 28 27 28 28 29 28 28 27 27 26 27 28 28 27 26 26 26 26 28 29 31 33 33 32 32 35 37 39 41 42 46 43 35 30 31 29 29 31 32 34 37
26 27 27 27 27 27 25 25 25 25 24 25 26 25 25 25 26 26 26 27 28 29 31 33 33 33 34 36 38 40 43 45 41 33 31 32 30 29 30 31 33 37

ECMWFNIL_925_spd_042.txt.gz
Wind_Speed
32 31 31 29 29 28 27 26 25 26 25 24 24 25 25 24 23 23 23 24 24 24 22 21 20 19 18 16 16 15 14 14 14 14 15 14 13 13 12 13 13 13
33 32 31 30 29 29 28 28 27 26 27 26 24 24 25 25 24 24 24 25 25 24 23 22 21 21 20 18 18 18 17 16 15 14 15 15 14 14 14 14 14 15
35 33 33 31 30 30 30 29 28 27 27 27 26 24 24 25 24 25 24 25 25 23 23 23 22 22 22 20 19 19 19 19 18 16 16 17 16 15 15 15 16 16
38 36 35 33 31 31 31 30 29 29 27 27 27 26 24 23 23 25 25 25 25 24 23 23 23 22 23 22 21 20 20 20 20 18 17 18 18 16 16 16 16 17
41 39 36 34 32 31 31 31 30 30 28 27 27 27 26 24 23 24 26 26 26 25 24 24 24 24 23 23 22 22 21 20 21 20 19 19 19 18 17 17 18 17
41 40 38 36 34 32 32 32 31 31 30 28 27 27 27 27 25 25 25 26 26 26 25 25 25 25 24 24 24 23 22 20 21 22 21 21 20 19 18 18 19 19
40 40 39 37 34 33 33 33 32 31 30 29 28 27 27 28 28 27 26 27 27 26 26 25 26 26 25 25 26 25 23 21 21 23 24 22 21 20 20 20 20 21
39 40 39 37 35 34 34 33 32 32 31 29 28 28 28 28 29 30 28 27 27 28 28 27 27 28 27 26 27 27 25 23 22 23 25 24 23 23 22 21 21 22
38 38 38 37 35 34 34 33 31 32 32 31 29 28 29 29 29 30 30 29 29 28 29 29 28 29 29 28 28 28 28 26 24 24 26 26 25 25 25 24 23 24
38 37 36 36 35 34 33 33 31 30 31 32 30 27 28 30 29 30 30 31 30 30 30 31 30 31 31 30 30 30 30 29 27 26 27 28 28 27 27 27 26 26
37 36 35 36 36 34 33 33 32 30 30 31 31 29 28 29 30 30 31 32 33 32 31 32 32 32 33 32 31 31 31 31 30 28 28 28 29 29 29 29 28 28
35 35 35 35 36 34 33 33 32 30 30 30 31 31 30 29 31 32 32 33 34 34 33 33 33 33 33 33 32 31 31 31 30 30 30 30 30 30 30 31 31 30
35 36 36 35 36 35 33 33 33 32 31 31 31 31 31 30 31 33 34 34 34 35 34 34 34 34 34 34 33 31 31 31 30 30 30 30 30 30 31 31 32 31
36 37 38 37 37 37 36 34 34 33 33 32 32 32 32 31 31 31 33 34 34 35 35 34 34 35 34 34 35 33 31 31 31 30 30 30 30 30 30 31 31 31
36 36 38 39 37 37 38 37 35 35 35 34 33 32 32 32 31 31 31 33 34 34 35 35 35 36 36 36 36 35 33 32 31 31 30 29 29 29 30 31 31 30
36 36 37 38 38 38 39 39 37 36 35 35 35 34 33 32 32 31 31 32 33 33 34 35 35 36 38 39 39 38 36 33 32 32 31 30 30 30 30 31 31 31
35 35 35 37 39 38 38 39 38 37 35 35 36 35 34 34 33 33 32 31 32 33 34 35 36 36 38 41 42 41 39 36 33 32 32 33 32 31 32 32 33 33
35 35 34 35 37 38 38 38 39 38 36 35 36 36 35 34 34 35 35 33 32 33 34 34 36 37 39 41 44 44 43 40 36 34 33 34 34 34 34 33 33 34
34 34 34 35 36 37 36 36 37 38 37 36 36 36 36 36 36 36 36 36 34 33 35 35 35 36 39 42 44 46 46 43 39 36 35 35 36 36 35 35 35 35
34 34 34 34 33 34 34 34 35 37 38 36 34 34 36 37 37 36 37 38 37 35 35 36 36 36 38 42 45 47 48 47 43 39 38 37 37 38 37 37 37 36
35 34 33 32 31 32 33 33 35 36 36 35 33 34 36 37 36 37 36 37 39 37 35 35 36 38 39 41 45 47 49 50 47 42 39 39 39 39 39 39 39 38
34 33 32 32 31 31 32 34 34 34 35 35 33 32 33 34 35 36 36 35 36 37 36 35 34 36 39 41 44 46 48 50 50 45 40 39 39 38 38 39 39 40
33 32 31 31 31 31 32 34 33 33 33 34 33 31 30 32 33 33 34 34 34 36 38 38 36 35 37 40 42 44 47 50 51 46 41 39 38 38 39 39 40 41
32 32 31 31 31 31 31 32 32 31 31 32 33 32 31 30 30 31 32 33 34 35 37 39 37 35 35 37 39 42 46 50 51 47 42 40 38 37 37 39 40 42
31 31 31 31 32 31 29 30 30 29 29 31 32 32 31 29 28 28 29 31 32 34 35 36 36 34 34 35 36 38 43 48 48 44 42 41 38 36 36 37 38 40
31 31 31 30 30 29 28 28 29 28 28 29 29 28 28 28 27 27 27 28 29 30 31 33 33 32 32 34 35 37 41 45 45 43 42 40 36 34 35 35 36 37

ECMWFNIL_925_spd_045.txt.gz
Wind_Speed
39 38 37 35 35 34 33 34 34 34 32 31 31 31 32 32 30 28 29 29 28 27 26 25 23 23 23 21 20 19 19 19 20 18 17 18 17 16 15 16 17 14
39 39 38 36 35 34 33 34 35 35 34 32 32 31 30 31 30 28 28 29 29 28 27 26 24 24 23 22 21 21 20 20 21 19 18 19 20 18 17 18 19 17
40 39 39 37 37 36 35 34 34 35 35 33 32 31 30 30 30 29 29 29 30 29 28 28 26 25 25 24 23 23 22 21 21 21 19 19 22 21 18 18 20 20
42 41 41 40 39 39 37 34 33 33 34 33 32 32 31 30 30 29 29 30 31 31 30 30 28 27 26 26 25 24 24 23 22 22 21 20 22 22 20 19 20 21
45 43 43 42 40 38 37 35 34 32 32 33 33 31 31 31 31 30 30 31 32 32 31 31 30 29 28 27 27 26 26 26 24 23 22 22 23 23 21 21 21 21
44 44 43 42 40 39 37 37 36 34 33 33 33 33 31 31 32 33 33 32 33 33 32 32 31 31 30 29 29 28 28 27 27 26 25 24 24 24 24 23 23 23
41 43 42 41 40 39 39 39 38 36 35 33 32 33 32 31 31 33 34 34 33 33 33 33 32 32 31 31 31 30 30 29 28 28 27 26 26 27 27 26 25 25
40 41 41 40 39 39 39 39 38 37 36 34 33 33 34 34 33 32 34 35 34 34 34 34 33 33 32 32 33 32 32 31 29 29 29 28 28 28 29 29 27 27
40 40 40 39 38 39 39 38 38 38 37 35 35 34 34 35 35 33 33 35 36 35 34 35 34 34 34 34 34 34 34 33 32 31 31 31 31 30 31 31 29 29
40 40 40 40 39 39 39 38 37 37 37 37 36 35 34 35 36 35 34 34 36 37 36 36 36 36 36 36 36 36 36 35 34 33 33 32 33 33 32 32 32 31
40 40 40 41 41 39 39 38 37 36 37 37 37 36 35 35 35 36 36 35 36 37 38 39 38 38 38 38 38 38 37 37 36 35 34 34 34 34 34 34 34 34
40 40 40 41 42 41 39 39 38 36 37 38 38 37 36 35 35 36 37 38 38 38 39 40 40 39 39 39 39 38 38 37 37 36 36 35 35 35 36 36 36 36
42 42 42 42 42 42 40 39 39 38 38 38 39 38 36 36 36 37 38 39 40 40 40 40 41 41 40 40 39 38 38 38 37 37 36 36 36 36 37 37 37 37
43 43 43 42 42 42 41 40 40 39 38 38 38 39 38 38 37 38 39 40 40 41 41 40 40 41 40 40 39 39 38 38 38 37 37 37 36 37 38 39 39 39
42 41 42 42 41 41 42 41 40 40 39 38 38 39 40 39 38 38 39 39 40 41 42 41 40 40 41 40 41 40 39 39 38 38 38 37 37 36 37 38 40 40
41 40 40 40 40 41 43 42 41 40 39 39 39 40 40 40 39 38 38 39 40 40 40 40 40 40 41 42 42 42 41 39 38 38 38 38 38 37 37 38 39 41
40 40 39 40 41 41 42 43 41 40 40 39 39 39 39 39 40 39 38 38 39 40 39 40 41 41 42 43 43 43 42 40 39 38 39 39 39 38 38 39 39 40
39 40 39 40 41 41 41 42 42 40 39 39 39 39 39 39 40 40 39 38 38 40 40 40 42 43 43 43 44 45 44 43 40 39 39 39 39 39 39 39 39 39
39 39 39 39 41 41 41 40 40 40 39 39 40 39 39 40 40 40 40 38 37 38 40 42 42 44 44 45 45 46 46 45 43 40 39 39 40 40 40 39 39 38
40 39 39 39 39 40 39 38 39 40 40 39 39 39 39 39 40 39 40 40 39 38 39 42 42 43 45 46 46 46 47 47 46 42 40 40 40 41 41 40 39 38
41 40 39 39 38 38 38 38 38 39 39 39 38 39 40 39 39 39 40 41 41 39 38 40 42 43 45 46 47 47 47 48 47 44 41 39 40 40 41 40 40 39
40 40 39 38 37 36 36 37 38 38 39 39 38 37 38 38 38 39 40 40 41 40 39 39 39 40 43 45 46 46 46 47 48 45 41 39 39 39 39 39 39 39
39 39 38 38 37 36 36 37 38 38 38 38 37 36 35 36 38 39 39 39 39 39 41 40 38 36 38 41 44 44 45 46 47 45 42 40 40 38 37 38 38 39
38 38 38 38 37 37 37 36 36 36 36 36 36 36 35 35 36 36 36 36 37 38 39 40 38 35 34 34 37 41 44 45 45 43 42 41 39 37 37 37 38 39
36 38 38 37 38 38 36 35 35 34 34 34 34 34 34 33 31 31 32 33 34 36 37 37 36 35 33 32 31 34 40 44 44 42 41 40 38 36 37 38 39 39
36 37 38 37 37 36 34 33 33 32 31 31 32 32 32 31 30 29 29 31 32 33 34 34 33 33 32 32 29 28 33 40 42 42 40 38 37 37 38 39 40 38

ECMWFNIL_925_spd_048.txt.gz
Wind_Speed
41 40 39 38 36 36 37 37 36 35 35 34 34 34 34 33 31 30 28 27 27 27 26 25 24 24 24 22 19 19 20 21 21 20 19 18 19 19 19 17 17 17
41 40 39 38 36 34 35 36 36 36 36 35 35 35 34 32 31 30 29 28 28 28 28 27 25 25 25 24 22 21 21 22 22 22 21 20 19 19 20 19 18 19
40 40 39 38 37 36 35 35 36 36 36 35 35 34 33 33 31 31 30 29 29 29 29 28 27 26 25 25 24 24 23 23 24 23 23 22 21 20 20 20 19 20
40 40 40 40 39 39 37 35 35 36 35 35 35 34 33 32 32 31 31 30 30 29 30 30 29 27 26 26 26 27 26 25 25 25 25 25 23 22 22 21 20 21
41 40 40 40 39 38 37 36 36 36 36 36 35 35 33 32 32 32 32 31 31 30 30 30 30 29 28 27 28 29 28 27 26 26 27 27 25 24 23 22 22 22
39 40 39 39 38 37 37 37 38 37 37 37 36 35 34 33 32 32 32 32 32 32 31 31 31 31 30 30 30 30 30 29 29 28 28 29 28 26 25 25 25 24
39 40 39 38 36 36 36 37 37 38 38 37 36 36 35 34 33 33 33 33 33 33 33 32 32 33 32 32 33 33 32 31 31 30 30 31 30 28 27 27 27 27
40 39 39 37 36 35 36 36 36 37 37 36 36 36 36 35 35 34 34 34 34 35 35 34 34 34 34 34 35 35 34 33 33 32 32 32 32 31 31 30 30 30
39 39 38 38 37 36 37 36 36 36 35 35 36 36 36 37 37 37 36 35 35 36 36 36 36 36 36 37 37 36 36 35 34 34 34 34 34 34 34 33 32 32
40 39 38 38 38 38 38 37 37 36 35 35 36 35 36 37 38 37 37 37 37 37 38 38 38 38 38 38 38 38 37 37 36 36 36 37 37 37 36 35 35 35
40 40 39 39 39 38 38 38 38 37 36 37 36 36 36 37 37 37 38 39 40 40 40 40 40 40 39 39 40 39 39 39 38 37 38 38 39 39 38 38 37 38
41 40 40 40 40 39 38 38 38 38 38 38 38 38 37 36 37 38 39 40 42 42 41 41 41 40 40 40 40 40 40 40 39 39 39 39 40 40 40 39 39 39
40 41 41 40 40 40 39 39 39 39 38 39 39 39 38 37 38 39 40 41 42 42 42 42 41 41 41 41 41 40 40 40 40 40 40 40 40 40 40 40 40 40
40 40 41 40 40 40 40 39 39 39 39 39 39 39 39 40 40 40 41 41 42 42 42 42 41 41 41 41 41 41 40 40 40 40 40 40 40 40 40 39 39 39
39 38 38 39 38 38 39 40 39 39 39 39 39 39 40 41 41 40 40 41 42 42 42 41 41 41 42 42 42 42 41 41 41 41 40 40 40 40 40 40 39 38
38 37 36 37 37 38 39 39 39 39 39 39 39 40 40 41 40 40 40 41 41 41 41 41 41 42 43 44 45 44 43 42 41 40 40 39 39 39 39 39 39 39
37 36 36 36 37 38 39 39 40 39 38 39 39 40 40 40 40 40 41 41 41 41 41 41 42 43 44 45 46 46 44 42 40 40 39 39 38 38 38 39 39 39
37 36 36 36 37 38 39 39 38 38 38 38 39 40 40 40 40 41 42 41 40 40 41 42 43 44 45 46 47 47 46 43 41 40 39 39 39 38 38 38 38 38
37 36 36 37 37 38 38 37 37 38 39 39 39 40 40 40 41 41 41 41 41 40 41 42 43 44 45 46 46 47 47 45 43 41 39 39 39 38 38 38 38 37
37 37 37 37 38 38 37 37 38 39 39 39 39 39 39 40 40 41 41 42 42 41 41 42 43 44 45 46 46 46 46 46 45 42 40 39 39 38 38 38 39 38
37 36 36 37 37 38 37 38 39 39 39 39 39 39 40 40 40 40 41 42 42 42 42 41 42 44 44 45 47 46 46 46 46 44 41 39 39 39 39 39 39 39
36 36 36 37 37 37 37 38 39 40 40 40 39 38 39 39 40 40 40 41 41 41 41 42 42 43 43 45 46 46 45 44 45 44 42 41 40 39 39 39 39 39
37 37 36 37 37 37 38 38 39 40 40 39 38 38 37 38 39 39 39 40 39 40 41 41 42 41 41 43 43 43 43 44 44 44 43 42 41 40 40 40 39 40
39 39 38 38 38 38 38 38 39 39 39 39 39 39 39 40 39 38 38 38 38 39 40 39 39 38 38 39 39 40 41 43 44 43 42 42 42 41 41 40 39 40
40 41 40 39 39 39 39 39 39 40 39 39 40 40 40 40 38 37 37 38 38 38 38 37 36 35 34 34 35 36 39 41 43 42 41 40 40 40 40 40 39 39
39 41 42 41 41 40 39 39 40 39 38 38 38 38 38 37 37 37 37 37 37 37 37 36 36 34 33 32 32 33 35 39 42 42 40 39 39 39 38 38 38 38

ECMWFNIL_925_spd_051.txt.gz
Wind_Speed
40 38 37 36 35 35 34 34 34 34 35 35 34 33 32 30 29 29 28 27 25 23 22 21 21 21 20 19 19 19 19 18 19 20 20 20 21 20 20 20 20 21
40 39 38 36 35 34 34 34 35 34 35 35 36 35 34 31 29 29 29 28 26 25 23 22 22 21 21 20 20 21 20 20 20 20 21 21 21 21 21 20 20 21
40 39 38 37 36 36 35 35 34 35 35 34 35 35 34 32 31 29 29 28 27 27 25 24 23 22 22 21 21 22 22 22 22 21 22 22 22 22 22 21 20 21
40 39 39 38 37 36 34 33 34 34 34 34 34 34 33 32 31 30 29 28 28 28 27 26 24 24 24 23 23 23 24 24 24 23 23 23 23 24 23 21 21 21
40 40 39 38 37 35 33 33 34 35 35 35 34 34 33 32 31 30 29 29 29 29 28 27 27 26 26 26 26 25 25 26 26 25 25 25 25 25 24 23 22 22
39 39 39 38 37 35 34 34 35 35 35 35 34 34 34 33 32 32 31 30 30 29 30 29 29 28 28 28 28 28 27 27 27 27 28 28 27 27 26 25 25 24
38 39 39 38 37 36 36 36 35 34 35 34 33 33 34 33 33 33 33 32 31 31 31 31 31 30 29 29 30 30 29 29 28 28 30 30 29 29 28 27 27 27
39 39 39 38 37 36 36 36 35 34 33 32 32 33 33 34 34 34 34 34 33 33 32 32 32 31 31 30 31 31 31 31 30 30 31 32 31 31 31 30 29 30
39 39 38 38 37 37 37 36 35 34 33 32 33 33 32 33 34 35 35 35 35 35 34 34 33 33 32 32 32 32 32 32 32 32 33 33 33 33 33 32 31 32
39 38 37 37 38 38 37 37 35 34 33 34 34 33 33 34 35 35 35 35 35 36 36 36 35 35 34 33 33 33 33 33 33 33 34 34 34 34 34 33 33 33
39 38 38 38 39 38 38 37 36 35 34 35 35 35 35 35 34 35 35 36 36 37 37 37 37 36 36 35 35 34 34 34 34 34 35 35 35 35 35 34 34 35
38 38 38 39 39 38 38 37 36 36 35 35 36 36 36 35 35 35 36 37 38 38 37 38 37 36 37 36 36 36 35 35 35 35 35 36 36 36 35 35 34 35
39 39 39 39 39 39 38 37 37 37 37 36 37 37 37 36 36 36 37 38 39 38 38 38 37 36 37 37 37 36 36 36 36 36 36 36 36 36 35 35 35 36
39 39 39 39 38 38 37 37 37 37 37 37 37 37 37 37 37 37 38 38 38 38 38 37 36 36 37 38 37 37 37 37 37 37 37 36 36 36 35 35 36 36
38 37 38 38 37 37 37 37 36 36 37 37 37 37 38 38 38 37 37 37 37 38 38 37 37 38 39 39 39 38 38 38 38 37 37 37 37 35 34 35 36 36
37 37 36 36 37 37 37 37 36 36 36 37 37 38 38 38 37 37 37 37 37 37 37 37 37 39 41 41 41 40 39 38 38 38 37 37 36 35 34 35 36 37
36 35 35 36 37 38 37 37 37 36 36 37 37 38 38 38 37 37 38 38 37 37 38 38 38 40 42 42 43 43 41 39 38 37 37 36 36 36 35 36 36 37
34 34 34 35 36 37 37 37 37 37 36 36 37 37 38 37 37 38 39 38 37 38 38 38 40 41 42 42 43 43 43 41 39 37 36 36 36 37 37 37 36 36
34 34 35 36 36 37 37 37 36 37 37 38 38 38 37 37 37 38 39 38 37 38 38 39 40 42 42 43 44 44 43 42 40 38 36 36 36 37 38 38 37 36
35 35 36 37 37 37 37 36 37 38 39 39 38 37 37 38 38 38 38 38 38 38 38 39 40 41 42 43 44 44 43 42 42 40 38 37 37 37 38 38 38 37
35 36 36 37 37 37 36 37 38 38 38 38 38 38 39 39 39 38 38 38 38 37 37 38 40 41 41 42 43 44 43 42 41 41 40 39 39 38 38 38 37 37
36 36 37 37 37 37 36 37 37 38 38 38 38 39 39 39 39 38 38 38 37 37 37 39 40 40 40 41 42 41 40 40 40 41 41 41 41 40 39 38 37 37
37 37 37 38 37 36 36 37 38 38 39 39 38 38 38 38 39 38 38 38 37 37 38 39 40 41 40 40 40 38 38 39 40 41 41 41 42 41 40 39 39 39
39 39 39 38 37 37 37 38 39 39 39 39 39 39 39 40 39 38 37 38 38 39 39 39 40 41 39 39 39 37 36 37 39 40 40 41 41 41 40 39 39 39
39 39 39 38 37 38 38 39 40 40 40 40 40 40 40 39 38 36 36 37 38 38 39 39 40 40 38 38 38 37 36 37 38 38 39 39 39 39 39 39 39 40
39 39 39 39 38 39 39 40 40 40 39 38 38 38 37 36 35 35 35 36 36 36 37 38 39 38 38 38 38 37 37 37 37 38 39 38 38 37 37 37 38 39

ECMWFNIL_925_spd_054.txt.gz
Wind_Speed
37 36 35 35 34 33 32 32 31 31 31 31 31 31 31 30 28 26 26 25 24 24 24 22 20 19 19 19 20 20 20 18 17 16 15 16 16 16 17 17 17 17
38 37 35 34 33 33 33 33 32 32 32 32 32 32 31 30 29 27 26 25 24 24 24 23 21 20 19 19 20 21 20 20 19 18 17 17 17 18 18 18 17 17
39 38 36 35 34 34 33 33 33 32 32 32 32 31 31 31 30 28 27 25 24 24 24 24 23 22 21 20 20 21 21 21 20 20 19 18 17 18 19 18 17 18
39 38 38 37 36 35 33 32 32 32 32 32 32 32 31 31 30 29 28 27 25 25 25 25 24 23 22 21 20 21 21 21 20 20 20 20 19 19 19 19 19 19
39 39 38 37 36 34 32 32 33 33 33 33 33 32 31 31 30 30 29 28 28 27 26 26 26 25 24 22 22 22 22 22 21 20 21 21 21 20 20 20 20 20
38 38 38 37 36 34 33 33 34 33 33 33 32 31 31 31 30 30 30 29 29 28 28 28 27 26 26 24 24 23 23 23 22 22 22 22 22 22 21 21 22 22
37 38 37 36 35 34 34 35 34 33 33 32 31 31 31 31 31 30 30 30 29 29 28 28 28 28 27 27 26 25 24 24 24 24 24 24 23 23 23 23 24 24
37 37 37 36 35 35 35 35 34 34 33 32 31 31 31 31 32 31 31 31 30 30 29 29 29 28 28 28 27 27 26 26 26 26 26 26 25 25 25 25 25 26
37 37 37 36 36 36 36 36 35 33 33 32 32 32 32 32 33 33 33 33 32 31 30 30 30 29 29 28 28 28 28 27 27 27 27 27 27 27 27 26 27 28
37 36 36 36 36 37 36 36 35 33 32 32 32 32 32 33 33 33 33 33 33 33 32 31 31 31 30 29 29 29 28 28 28 28 28 28 28 29 28 28 28 29
37 36 36 36 37 37 37 36 35 33 32 33 33 33 33 33 34 34 34 34 34 34 34 33 33 32 32 31 31 30 29 29 29 29 29 29 29 30 29 29 29 31
37 36 36 37 37 38 37 36 35 34 34 34 34 34 34 34 34 34 34 35 35 35 35 34 34 33 33 32 31 31 30 30 30 30 31 30 31 30 30 31 31 32
38 38 38 38 38 38 37 36 36 35 35 35 35 34 34 34 34 34 35 35 36 36 35 35 34 34 34 33 32 32 32 32 32 31 32 32 32 32 31 32 32 33
39 39 39 38 38 37 36 36 36 36 36 35 35 34 35 35 35 35 35 35 35 35 35 35 34 34 34 34 33 33 33 33 33 32 32 32 32 33 33 33 34 34
38 38 38 37 36 35 36 36 36 36 36 35 35 35 36 36 35 35 34 34 34 35 34 34 34 35 35 35 35 34 34 34 33 32 32 32 32 32 33 34 35 35
37 36 35 35 35 36 36 36 36 35 35 35 35 36 36 35 34 34 34 34 35 34 34 33 34 36 37 37 36 35 34 34 33 33 32 32 31 32 33 34 34 35
35 35 34 35 36 36 36 36 36 35 35 36 36 36 36 35 34 34 35 35 35 34 34 34 35 37 37 37 37 36 35 34 33 33 32 32 32 32 33 34 34 34
34 34 34 35 36 36 36 36 36 35 35 36 36 36 36 36 35 35 36 36 35 34 35 35 36 38 38 37 37 37 36 35 34 33 32 32 32 33 33 34 34 34
34 34 34 35 36 37 36 36 35 36 36 36 36 37 36 36 36 37 37 36 35 35 36 36 36 38 38 38 38 37 37 36 35 34 33 32 32 33 33 34 34 34
35 35 36 37 37 37 36 36 36 37 37 37 37 36 35 36 37 38 38 37 37 37 37 36 37 38 38 38 38 38 37 36 36 35 34 34 34 34 34 35 34 34
36 36 37 37 37 37 37 37 37 37 38 37 37 36 37 38 38 38 38 38 37 37 37 37 38 39 39 39 39 38 37 36 36 35 35 35 35 35 36 36 35 34
37 37 37 37 37 36 36 36 37 37 38 37 37 37 37 37 37 37 37 38 37 37 36 37 39 40 40 40 40 38 36 35 35 35 35 35 36 37 37 37 36 35
37 38 37 37 36 35 35 36 37 37 38 37 36 36 36 36 37 37 38 37 36 36 36 38 40 40 40 40 40 38 36 34 34 35 35 36 37 38 37 37 37 37
38 39 38 37 35 35 36 37 37 38 38 37 37 36 36 37 37 37 37 36 36 37 38 38 39 40 40 39 39 37 36 35 35 35 35 36 37 37 38 38 38 38
39 39 38 37 36 36 37 38 38 38 38 37 36 37 36 36 36 35 35 35 36 37 37 37 38 39 39 38 38 37 36 36 35 35 35 35 35 36 36 37 37 37
37 38 38 36 36 37 38 39 38 37 35 34 35 36 35 34 34 34 34 34 35 35 35 36 37 38 38 38 37 36 36 36 36 35 35 34 34 35 35 34 35 35

ECMWFNIL_925_spd_057.txt.gz
Wind_Speed
35 35 35 33 31 30 29 30 30 28 28 27 27 28 28 27 27 26 26 26 24 23 21 20 19 18 18 17 16 15 15 15 14 14 13 12 11 10 10 11 11 11
36 36 36 32 31 33 32 32 31 30 31 30 29 28 28 28 27 26 25 25 25 24 22 21 20 19 19 18 17 15 15 15 13 14 15 14 12 11 11 12 12 13
35 34 35 33 31 34 32 30 32 32 31 30 30 29 28 28 27 27 26 25 25 24 23 22 21 20 20 19 18 17 16 15 13 14 16 15 14 13 12 12 11 12
35 34 34 32 30 31 30 29 31 31 30 30 31 30 28 28 28 27 26 26 25 25 24 23 22 21 21 20 19 19 17 16 15 15 16 16 16 15 14 13 13 12
37 35 34 31 28 28 30 31 31 31 31 31 31 30 29 28 28 27 27 27 26 26 25 25 24 23 22 22 21 20 19 16 15 15 16 16 16 16 16 15 15 14
35 36 35 32 29 29 32 32 32 32 31 31 31 31 30 29 28 28 27 27 26 26 26 26 26 25 24 23 22 22 20 17 14 13 15 17 17 16 16 16 17 17
34 34 35 32 29 30 32 32 32 33 32 31 31 32 30 29 29 28 28 28 26 26 25 26 26 26 25 24 24 23 22 20 17 14 14 17 18 18 18 18 18 18
33 32 33 31 28 29 30 30 32 34 34 32 31 31 31 30 29 29 29 28 27 26 26 26 26 25 25 24 24 24 23 21 20 18 16 17 19 21 20 20 19 19
31 30 31 31 29 29 29 29 30 32 34 34 32 29 30 31 30 30 30 29 28 27 27 27 26 25 25 25 25 25 24 22 21 21 20 20 21 22 21 20 20 20
31 30 30 30 30 29 29 29 28 27 30 33 30 26 27 31 31 30 30 29 28 28 28 28 27 26 25 25 25 25 25 24 23 23 23 22 23 23 22 20 19 20
31 30 30 30 31 30 29 29 27 25 27 30 29 26 26 29 31 31 31 30 30 29 29 29 28 28 27 26 26 25 25 25 24 24 24 24 25 25 24 22 21 21
31 31 30 31 31 30 29 29 28 25 26 29 29 28 26 27 29 31 32 31 31 30 30 30 29 29 29 28 26 25 26 25 25 25 25 26 26 26 25 24 23 23
32 31 31 31 31 30 28 27 28 26 26 28 29 28 27 26 26 28 31 32 32 31 30 30 30 29 29 29 28 27 27 27 26 25 26 26 27 27 25 23 23 24
32 31 31 31 30 30 29 27 27 27 27 27 28 28 28 27 26 26 29 31 31 31 31 30 30 30 30 30 30 29 28 28 27 26 25 25 27 27 26 25 24 23
32 30 30 31 31 32 33 30 27 27 27 26 28 29 28 27 26 25 25 27 29 30 30 29 29 30 30 31 31 30 29 27 26 27 27 26 26 26 26 27 26 24
32 32 31 33 35 37 37 35 29 26 27 27 28 29 28 27 27 25 24 25 26 28 28 28 28 30 32 32 31 30 29 26 25 27 29 28 27 27 27 27 26 25
35 36 35 36 38 38 38 37 33 28 27 28 28 29 30 29 27 26 25 25 24 25 26 26 28 31 33 33 32 31 29 26 25 27 28 28 27 27 28 26 24 24
34 34 35 35 38 38 37 37 35 30 28 29 30 31 31 30 28 27 28 27 24 23 24 25 28 31 33 33 33 32 31 29 26 24 24 25 25 26 26 24 23 23
32 32 33 34 37 38 37 36 35 32 30 30 30 30 29 30 29 28 28 28 26 25 25 25 26 29 33 34 33 32 31 31 29 25 22 23 23 24 24 24 24 24
33 34 34 34 37 38 36 35 34 33 31 30 28 28 27 28 29 28 28 28 28 27 26 25 25 28 32 34 33 33 32 31 31 28 25 23 24 24 24 25 26 25
34 34 34 34 36 36 35 34 33 32 31 29 27 26 27 29 30 29 28 28 29 28 26 26 28 30 32 33 33 33 32 31 32 31 29 26 25 26 27 27 27 26
34 33 33 33 34 34 33 32 31 32 33 32 28 26 25 27 29 29 28 28 30 30 27 27 29 31 33 35 34 33 32 31 32 33 32 30 28 28 29 29 29 28
34 34 33 33 32 32 31 31 31 33 34 33 29 26 24 25 27 27 27 28 28 28 27 28 29 31 34 35 34 33 32 32 33 33 33 32 31 31 30 29 31 31
35 34 33 31 30 30 30 30 30 31 31 31 30 28 26 26 26 26 26 26 26 27 28 30 29 30 33 35 34 33 33 33 34 33 32 32 32 32 32 32 32 33
35 34 33 30 29 29 29 29 30 31 31 31 30 29 27 25 25 25 25 25 25 27 30 31 29 27 31 34 34 34 33 33 34 32 30 30 30 30 30 30 32 33
35 34 33 30 29 30 31 32 33 32 29 28 27 26 25 25 24 24 24 24 24 25 27 30 29 27 29 33 34 34 33 33 34 32 29 28 29 28 26 25 26 29

ECMWFNIL_925_spd_060.txt.gz
Wind_Speed
24 23 23 22 22 21 20 20 19 19 19 18 17 16 16 16 15 15 14 14 14 14 14 14 14 13 12 11 11 10 9 10 10 10 10 10 9 9 8 8 7 7
25 24 23 22 21 20 21 21 20 20 20 20 19 16 15 15 15 15 15 14 14 14 14 14 14 14 13 12 12 11 11 10 10 10 10 11 10 9 9 8 8 8
26 25 24 23 22 22 22 21 21 21 21 20 20 18 16 15 15 15 15 15 14 14 14 14 15 15 14 13 13 12 12 11 11 10 10 11 11 10 9 8 8 8
27 26 25 25 24 23 22 21 21 21 21 20 20 20 18 16 15 15 15 15 15 14 14 14 15 14 14 14 14 13 12 12 11 11 11 11 11 11 10 9 9 8
28 27 25 25 24 22 21 22 22 22 22 22 21 20 19 18 16 16 15 15 15 15 15 15 15 15 14 14 14 13 13 13 12 11 12 12 11 11 11 10 10 10
28 28 27 25 24 23 22 23 23 22 22 22 21 20 19 19 19 18 16 15 15 16 16 16 15 15 15 14 14 14 13 13 12 12 12 12 12 12 11 11 11 11
28 29 28 26 24 24 23 23 23 23 22 21 21 20 19 19 19 19 18 17 16 15 16 16 15 15 15 14 14 14 14 14 13 13 13 12 12 12 12 11 11 12
28 28 28 27 25 25 25 24 23 23 22 21 21 21 20 20 20 19 19 18 17 16 16 16 15 15 15 14 15 14 15 15 14 14 15 14 13 12 13 12 12 13
29 28 27 27 27 26 26 25 24 23 23 22 22 21 20 21 20 19 19 20 19 18 17 17 16 16 15 15 15 15 15 15 15 15 15 15 14 14 13 13 13 13
29 29 28 28 28 27 27 26 25 23 23 24 23 22 21 21 21 20 20 20 20 19 19 18 18 17 17 16 16 16 15 15 15 15 16 16 15 15 14 13 13 14
30 30 29 30 29 28 28 27 26 24 24 24 24 23 21 21 21 21 21 21 21 21 20 20 19 19 18 18 17 16 16 16 15 16 16 16 16 16 15 14 14 15
31 31 30 30 30 29 28 27 26 25 24 24 24 24 23 22 21 21 22 22 22 21 21 21 20 20 20 19 18 17 16 16 16 16 16 17 17 16 16 15 15 16
32 32 31 30 29 29 27 27 27 26 25 24 23 24 24 23 22 22 22 22 22 22 21 20 20 20 20 20 20 18 17 17 17 17 17 17 17 17 16 16 16 16
33 31 31 30 29 28 27 26 26 26 25 24 23 23 24 24 23 22 21 21 22 22 21 21 20 20 20 20 20 19 19 18 18 18 18 17 17 17 16 16 17 17
31 30 29 29 28 28 27 26 26 25 25 24 23 23 23 24 24 23 22 21 21 21 21 21 21 21 21 21 21 20 20 19 19 19 19 18 17 17 16 16 17 17
30 29 29 29 29 28 28 28 26 25 25 25 24 23 23 23 23 23 22 21 21 21 21 22 22 22 23 25 24 22 20 19 19 19 19 18 17 17 17 17 17 17
30 29 29 30 30 29 29 28 27 25 25 25 24 24 23 22 22 23 23 22 21 21 21 22 22 22 25 27 28 25 22 19 18 19 19 18 17 17 18 18 17 17
30 30 29 29 29 29 29 29 28 26 25 25 25 24 23 22 22 23 23 22 21 21 21 22 21 23 26 28 29 29 27 22 19 18 18 18 17 18 18 17 17 17
30 29 29 29 29 28 28 27 28 27 26 25 25 23 23 23 23 22 22 22 22 21 21 21 21 22 26 28 29 29 29 27 23 19 18 18 18 18 18 18 17 17
29 29 29 29 28 28 27 27 28 29 27 25 24 23 23 23 23 23 22 22 22 22 22 21 21 22 24 27 29 28 28 29 27 22 20 19 19 18 18 18 18 17
30 29 29 28 28 27 27 28 28 28 27 26 24 23 24 23 23 23 23 22 22 22 22 22 22 23 25 26 27 28 27 28 28 25 21 20 20 20 20 19 19 19
31 30 29 28 28 28 28 28 27 27 27 26 24 23 23 22 22 22 23 23 23 23 23 23 23 24 26 27 28 27 26 26 28 26 23 22 21 21 21 21 20 20
31 30 29 29 28 29 28 28 27 27 26 26 25 23 22 22 22 22 23 23 24 24 24 24 23 24 27 29 29 28 27 27 27 24 22 22 22 22 21 21 21 22
30 30 29 29 29 29 29 28 27 26 26 26 25 25 23 22 22 22 22 23 24 24 24 24 23 24 27 29 30 30 29 28 26 23 22 22 22 22 22 22 23 24
29 29 29 28 28 28 27 27 26 26 25 25 25 25 24 23 22 22 21 22 22 23 25 25 24 24 26 29 30 30 31 30 26 22 21 22 21 21 21 21 22 24
28 28 28 27 27 26 25 25 25 24 24 24 24 24 23 23 23 22 21 21 21 22 23 25 25 24 25 29 30 30 32 32 27 23 22 22 21 20 20 20 21 22

ECMWFNIL_925_spd_063.txt.gz
Wind_Speed
25 24 24 24 23 22 21 20 18 18 18 17 16 15 15 15 14 14 14 14 14 14 13 13 12 11 10 9 9 8 8 8 8 8 8 8 8 8 7 7 7 6
26 25 24 24 24 23 22 21 20 19 19 19 18 16 15 15 15 15 15 14 14 14 14 13 13 12 12 11 10 10 9 9 9 8 8 9 9 9 8 8 8 7
27 26 25 25 25 24 24 23 21 20 20 20 20 18 16 16 16 16 16 15 15 14 14 14 14 13 13 12 11 11 10 10 10 9 9 9 9 9 8 8 8 7
28 27 26 26 26 25 25 24 23 22 21 20 20 20 19 17 16 17 17 16 16 15 15 15 15 14 14 13 13 12 12 11 11 10 10 10 10 10 9 8 8 7
28 27 27 26 26 25 25 24 24 23 23 22 20 20 20 19 18 17 17 17 17 16 16 16 16 15 15 14 14 13 13 12 12 11 11 11 10 10 10 9 9 8
28 28 27 26 26 26 24 25 25 24 23 23 21 20 20 21 20 19 18 18 18 17 17 16 17 16 16 15 15 14 14 13 12 12 12 12 11 11 10 10 10 10
29 29 28 26 26 26 25 24 25 25 24 23 22 21 20 21 21 21 20 19 19 18 18 18 18 17 17 16 16 15 15 14 13 13 13 13 12 11 11 11 10 10
31 29 28 27 26 26 26 25 24 25 24 23 22 22 22 21 22 22 22 21 20 19 19 19 19 18 18 17 17 16 16 15 14 14 14 13 13 12 12 11 11 11
30 29 29 29 28 27 27 27 25 25 25 24 23 22 22 23 22 22 22 22 21 20 20 19 19 19 19 18 18 17 17 16 16 15 16 15 14 14 13 13 12 12
31 30 30 30 29 28 28 28 27 25 25 25 24 23 23 23 23 22 22 22 23 22 21 20 20 20 19 18 18 18 18 17 17 16 16 16 16 16 15 14 14 14
32 32 31 31 30 29 29 29 28 26 26 25 25 25 24 23 23 23 23 23 23 23 23 22 21 21 20 19 19 18 18 18 17 17 17 17 17 16 16 15 15 15
34 33 32 32 32 30 29 29 29 28 27 26 26 26 25 24 24 24 23 24 24 24 23 23 22 21 21 20 19 19 18 18 17 17 17 18 17 17 17 16 15 15
35 34 33 33 32 31 30 29 29 29 28 27 26 26 26 25 25 25 24 24 24 24 23 23 23 22 22 22 21 19 19 18 18 18 18 18 18 18 18 17 17 17
35 34 34 33 32 31 30 29 29 29 28 27 26 25 26 26 26 25 24 24 24 24 23 23 23 23 23 22 22 21 20 20 19 19 18 18 18 18 18 18 18 17
35 33 33 33 32 32 31 30 29 29 28 27 26 26 26 26 26 25 25 24 24 24 24 23 23 24 24 24 23 23 22 21 21 20 20 19 18 18 18 18 18 18
33 33 32 33 33 32 32 31 29 28 28 28 27 26 25 26 26 26 25 25 24 24 24 24 24 24 25 27 26 25 23 22 22 21 21 20 19 18 18 18 18 18
32 32 32 33 33 33 33 32 30 29 29 29 28 27 26 25 26 26 26 25 25 25 24 25 25 25 27 30 30 28 25 23 22 22 21 21 20 19 19 18 18 18
32 32 33 34 34 33 33 33 32 30 29 29 28 27 26 26 25 26 26 25 25 25 25 25 25 25 28 31 32 32 29 25 22 22 21 21 20 20 19 19 19 19
33 33 32 33 33 33 32 32 32 31 30 29 29 28 27 26 26 26 26 25 25 24 25 25 24 25 28 30 32 33 33 29 23 20 21 21 20 20 20 19 19 18
33 33 32 32 32 32 31 31 32 31 30 29 28 28 27 27 26 26 25 26 25 24 24 23 24 25 27 30 31 32 33 33 28 21 19 20 20 19 19 19 19 19
32 32 32 32 32 31 31 31 31 31 30 29 28 28 28 27 26 26 25 25 26 25 23 22 23 25 26 28 31 31 31 33 31 24 19 18 19 19 19 19 19 19
33 32 31 31 32 31 31 30 31 30 29 28 27 26 26 26 25 25 25 25 25 25 25 24 23 24 25 26 28 29 28 30 31 27 22 20 19 19 20 20 19 19
33 32 32 31 31 31 31 30 30 29 28 28 26 25 25 25 25 25 25 25 25 25 26 25 25 26 27 26 26 27 26 28 29 26 22 21 20 19 20 20 20 21
33 33 32 31 31 32 31 30 29 28 28 27 27 26 25 25 24 24 24 25 26 26 26 26 25 28 29 29 28 28 27 28 28 24 21 21 20 19 19 19 21 23
32 32 32 31 31 31 30 29 28 27 26 26 26 25 24 24 23 23 23 24 25 26 27 27 25 27 29 31 31 31 31 30 28 23 21 20 20 19 19 19 20 22
32 32 32 31 30 30 29 28 27 26 25 25 25 24 23 23 23 23 23 23 23 24 26 27 26 25 28 31 32 33 33 33 29 23 21 21 20 19 18 18 19 20

ECMWFNIL_925_spd_066.txt.gz
Wind_Speed
33 32 30 28 27 25 23 22 22 22 21 19 19 19 18 17 16 15 16 16 16 15 14 13 13 12 11 9 9 9 7 6 6 6 6 6 6 6 6 6 5 5
33 33 32 29 28 27 25 24 23 22 22 22 19 19 18 18 18 17 16 17 16 15 15 14 13 13 12 11 10 10 9 8 7 6 7 7 7 7 7 6 6 6
34 33 33 31 29 29 27 25 24 23 23 23 22 20 18 18 19 19 18 17 17 16 16 15 14 14 14 13 12 11 10 10 9 8 8 8 8 8 7 6 6 7
35 34 34 32 30 30 29 27 26 25 23 23 24 22 20 18 19 21 20 19 18 17 17 17 16 15 15 14 13 13 11 11 10 9 9 9 8 9 8 7 7 7
37 35 34 33 31 31 31 29 27 26 25 23 23 23 23 21 20 21 22 21 20 19 18 18 18 17 17 16 16 15 13 12 11 11 11 10 9 9 8 8 8 7
36 36 34 34 32 31 31 31 29 28 27 25 23 23 24 24 22 22 22 23 22 21 20 19 20 19 18 18 18 17 15 13 13 13 13 12 11 10 9 9 9 9
35 36 35 33 32 32 31 31 31 30 29 27 26 24 24 25 25 23 23 23 22 22 21 21 21 21 20 19 19 19 18 16 15 14 14 14 12 11 11 10 10 10
34 35 35 33 31 32 31 31 31 32 30 28 27 26 24 24 26 26 24 24 23 23 23 22 22 23 21 20 21 20 19 18 17 16 15 15 14 13 13 12 11 11
34 33 34 33 31 30 31 30 30 31 31 30 27 26 26 26 26 27 26 25 24 24 24 23 23 24 23 22 22 22 21 19 18 18 17 16 16 15 15 14 13 12
35 33 33 33 32 30 31 31 30 30 31 31 29 26 27 27 27 27 27 27 26 25 25 25 24 24 24 23 23 23 22 21 19 18 19 19 18 17 16 15 15 15
35 34 34 34 33 31 31 32 30 29 29 31 30 28 27 28 28 28 28 29 29 27 26 26 25 25 25 24 23 23 23 22 20 19 19 20 19 18 17 17 17 16
35 35 34 35 34 32 32 32 31 30 29 30 30 30 28 28 29 29 28 29 30 29 27 27 26 26 26 26 24 23 23 22 21 21 20 20 20 20 19 19 19 18
36 36 35 35 35 34 33 33 32 31 30 29 30 30 29 28 28 29 29 29 29 30 29 28 28 27 27 27 26 24 24 24 22 21 21 21 21 21 20 20 20 20
36 36 36 36 36 35 34 33 33 32 31 31 30 30 29 29 28 28 29 28 28 30 29 28 29 29 28 29 28 27 25 25 24 23 22 22 22 21 21 21 21 20
36 35 35 36 36 36 35 34 33 33 33 32 32 30 29 29 28 28 28 28 28 28 29 28 28 30 30 30 31 30 27 26 26 25 23 22 22 22 22 21 21 21
37 35 35 36 36 37 36 35 34 33 33 32 32 32 30 30 30 29 28 29 28 28 28 28 28 29 31 32 32 32 30 27 26 26 25 24 23 23 22 22 22 21
37 36 36 37 37 37 37 36 34 33 33 33 33 33 32 31 31 30 29 28 28 28 28 28 28 28 30 33 33 33 32 30 28 27 27 26 25 24 23 23 22 22
37 36 37 37 37 38 38 38 35 33 33 34 33 33 33 32 31 31 30 28 28 28 28 27 28 28 29 32 34 34 33 31 29 27 27 27 26 25 24 24 23 22
38 37 37 38 38 38 38 39 37 34 33 34 33 32 32 32 31 31 31 29 28 29 29 28 27 28 29 31 33 35 34 32 29 26 26 26 26 26 25 25 25 25
37 37 37 38 38 38 38 38 39 36 34 32 32 32 31 32 31 30 31 31 29 28 30 30 28 28 29 30 32 34 35 34 31 26 24 24 24 25 25 25 26 26
36 37 37 37 38 37 37 37 38 38 35 32 31 31 31 31 31 30 30 32 31 29 27 28 28 28 29 30 32 33 34 35 34 28 23 22 22 23 25 25 26 26
35 35 35 35 36 37 36 37 37 38 37 33 31 30 30 30 31 31 30 30 31 31 28 26 26 27 29 31 32 33 33 34 35 32 28 24 21 20 21 23 25 26
36 35 35 34 35 36 36 37 38 38 38 35 31 29 29 29 30 30 29 29 29 31 30 27 25 26 28 29 31 32 33 33 34 34 32 29 26 22 20 20 22 24
37 36 35 34 35 36 36 36 37 37 37 36 33 30 28 29 29 29 29 29 28 29 31 30 27 26 27 27 28 31 33 33 34 33 31 29 27 26 24 22 22 23
36 36 35 35 35 35 35 34 34 35 36 35 34 31 29 28 28 27 27 28 28 28 29 30 30 29 29 28 27 28 31 33 33 32 29 27 26 26 26 26 26 26
35 35 35 35 34 34 32 32 32 32 33 34 33 31 29 28 27 27 26 27 27 27 29 30 30 29 30 31 30 30 31 32 33 32 30 28 27 25 25 25 28 29

ECMWFNIL_925_spd_069.txt.gz
Wind_Speed
36 36 34 32 33 33 30 28 26 26 26 26 25 23 21 20 18 19 19 18 17 16 16 14 14 14 13 13 12 10 12 11 8 8 7 6 6 6 5 5 5 5
38 37 36 34 33 32 32 31 29 28 27 28 27 25 23 21 20 20 20 20 19 17 17 16 16 16 15 15 15 14 13 13 11 9 8 7 6 6 6 6 6 6
39 38 38 36 35 33 32 32 31 31 29 29 28 27 26 24 23 22 21 21 21 19 18 18 18 18 18 17 17 16 15 15 14 12 10 8 8 8 8 8 7 7
42 40 39 39 37 35 32 32 32 32 31 30 29 28 26 26 25 24 23 23 24 22 19 19 20 20 19 18 17 16 15 15 15 14 13 11 10 10 9 8 7 7
43 42 41 40 39 37 34 33 32 32 31 31 30 28 26 26 26 26 25 24 24 24 21 20 21 21 20 18 18 17 16 15 14 14 14 13 12 11 11 10 10 9
42 42 42 41 39 39 37 35 34 33 33 32 31 30 28 27 27 27 27 26 25 25 24 22 22 23 21 20 20 20 18 17 15 14 14 15 15 13 12 11 11 11
41 42 42 42 40 39 39 38 37 35 34 33 32 32 30 29 28 29 29 28 27 26 26 25 25 24 23 22 21 22 21 20 17 16 16 15 15 15 14 12 12 12
41 42 42 41 41 40 40 40 39 38 36 35 33 33 32 31 30 30 30 31 30 29 28 27 26 26 25 24 24 23 23 22 20 19 18 17 16 16 16 15 14 14
40 41 41 41 41 40 40 41 41 40 39 37 35 34 32 33 32 31 31 32 33 32 30 29 27 27 26 26 26 25 25 24 23 22 21 20 19 17 16 17 17 16
39 40 41 41 41 41 41 41 41 41 40 38 37 36 34 33 34 33 33 32 33 33 33 32 30 29 28 29 29 27 26 26 25 24 23 22 21 20 18 18 19 19
39 40 41 42 42 42 42 42 41 40 40 40 38 37 36 35 34 35 35 34 34 34 34 33 33 32 31 31 31 29 28 27 26 25 25 24 23 22 21 20 19 20
39 40 41 42 43 42 42 42 41 40 40 40 40 38 36 36 36 36 37 37 36 35 34 34 34 34 33 33 33 31 29 29 27 26 25 25 25 24 23 22 21 20
39 40 41 42 43 42 42 41 41 40 40 40 40 39 37 36 37 37 37 38 38 36 35 35 35 35 35 34 34 33 31 30 29 28 27 26 26 26 25 25 23 22
39 40 41 42 43 42 41 41 41 41 40 40 40 40 39 38 37 38 38 38 39 38 37 36 35 35 36 35 34 34 32 31 31 30 29 28 27 26 26 26 25 24
38 38 39 40 41 42 41 40 41 41 40 40 40 41 41 40 38 37 38 38 38 39 39 37 35 35 36 36 36 35 34 33 32 31 30 30 29 28 27 26 26 25
37 37 38 39 40 42 42 41 40 41 40 40 40 41 41 40 38 37 38 39 38 38 38 37 36 36 36 36 37 37 36 34 32 32 31 30 30 30 29 28 28 27
36 36 37 38 40 41 43 43 41 40 40 40 40 41 40 40 39 37 37 39 39 38 38 38 37 37 37 37 37 37 36 35 33 32 32 32 30 30 30 30 29 29
36 37 37 38 40 41 42 43 42 40 41 40 39 40 40 39 39 38 36 37 39 38 37 38 38 37 38 38 38 38 37 36 34 33 32 33 32 31 31 30 30 29
36 36 38 38 39 41 41 42 42 40 41 41 39 40 40 39 40 39 36 35 38 39 38 37 38 38 38 38 37 38 38 37 36 33 32 33 33 33 32 31 30 30
37 36 38 39 38 39 39 40 41 41 41 42 40 39 40 40 39 40 38 35 36 39 38 37 37 38 37 37 36 37 38 38 38 35 33 32 32 33 33 33 32 31
37 39 38 38 37 37 38 39 41 41 40 40 39 39 40 41 40 39 39 36 34 37 39 37 37 38 38 36 36 36 36 38 38 36 34 32 31 32 33 34 33 33
37 40 39 38 38 37 37 39 40 41 40 39 38 37 38 39 39 39 40 39 35 35 37 37 36 37 37 37 36 36 35 37 38 36 34 33 32 31 31 32 33 33
39 41 40 39 38 38 38 39 40 41 41 38 37 36 36 37 39 38 39 40 38 35 34 36 36 36 37 37 36 36 35 36 38 37 35 34 33 32 31 30 31 33
38 42 42 40 39 40 40 40 39 40 41 39 37 36 36 36 37 37 37 39 40 38 35 34 34 35 37 37 36 36 36 37 38 38 37 36 35 33 31 28 27 29
35 39 42 41 41 41 40 39 39 38 39 40 38 36 35 35 35 36 36 36 38 40 39 36 33 32 33 35 37 37 36 37 39 38 37 37 37 36 34 32 29 27
34 38 41 42 42 42 40 39 38 37 37 38 38 35 33 33 34 35 35 35 36 37 38 38 36 33 31 31 34 37 38 39 39 39 38 38 38 37 35 35 36 34

ECMWFNIL_925_spd_072.txt.gz
Wind_Speed
37 36 37 39 38 36 35 33 32 30 30 30 29 28 28 27 26 25 23 21 20 18 16 17 18 16 14 13 13 13 15 15 12 9 10 10 10 10 10 9 8 8
38 37 37 39 39 37 35 34 33 31 31 31 30 28 27 27 26 26 25 23 21 20 18 18 18 16 15 15 14 12 13 17 15 12 11 10 10 11 11 10 8 8
40 38 38 39 40 39 36 34 33 32 31 31 31 30 28 27 26 26 26 24 23 22 20 20 19 18 18 17 17 15 14 16 17 15 14 12 10 10 11 10 9 8
41 40 39 40 41 41 38 35 34 33 32 31 31 30 29 27 25 25 25 25 24 23 22 22 22 21 21 20 20 20 18 18 18 16 15 14 12 11 11 11 11 11
44 42 40 40 40 41 40 37 35 34 33 32 32 30 29 28 26 25 26 25 25 24 23 23 23 23 23 23 23 23 22 21 20 18 17 16 15 14 13 13 13 12
44 43 41 40 40 40 41 40 39 37 35 34 33 32 31 29 28 27 26 27 27 27 26 25 25 25 25 25 25 24 24 23 22 21 21 20 19 17 15 15 15 14
42 43 42 41 40 40 41 42 41 40 39 37 36 35 34 33 31 30 29 29 28 28 28 28 27 26 26 26 26 26 25 24 23 22 22 22 21 20 18 18 18 17
41 42 42 41 40 39 40 41 42 42 41 39 38 38 37 36 34 32 31 31 31 30 29 30 30 28 26 26 27 27 26 25 25 23 22 21 22 22 21 20 19 19
39 39 40 41 41 40 40 41 41 42 41 40 39 39 38 37 35 33 31 31 32 32 31 30 31 31 29 27 28 29 28 27 27 26 24 23 23 23 23 22 21 20
38 38 38 39 41 41 41 41 41 41 40 40 40 39 38 38 37 34 33 32 33 34 33 32 32 33 32 30 30 30 29 28 28 28 27 26 25 24 23 22 23 23
40 38 38 39 40 41 41 42 41 40 40 40 40 39 38 38 38 37 36 35 35 35 36 35 35 35 34 33 32 32 31 30 29 29 29 28 28 27 25 23 23 24
41 40 39 40 40 40 41 41 41 41 40 40 40 39 38 38 39 39 38 38 37 37 37 37 37 36 36 36 35 34 33 31 30 30 30 30 29 29 28 26 26 25
40 41 41 40 40 41 41 40 41 41 40 40 41 40 39 38 38 39 40 39 39 38 39 39 38 38 37 37 36 35 34 33 32 32 31 31 30 30 29 29 28 27
39 40 40 41 40 40 40 40 40 40 41 41 40 40 40 40 39 39 40 40 40 40 40 40 40 40 39 38 37 36 35 34 34 34 33 32 31 31 30 30 30 29
38 38 38 39 39 39 40 40 40 40 40 40 40 40 40 40 40 39 39 39 40 41 40 40 40 41 41 40 39 38 36 36 35 35 35 34 33 32 31 31 31 30
36 36 37 37 38 39 40 40 40 39 39 40 40 40 40 40 39 39 38 39 40 40 41 40 40 41 42 42 41 40 38 37 36 36 36 35 34 33 33 32 31 31
36 36 37 37 38 39 40 40 40 39 39 39 39 40 40 39 39 39 39 39 40 41 41 41 41 42 43 44 43 42 40 38 37 36 36 36 35 35 34 34 33 32
38 38 38 39 39 40 41 41 40 39 38 38 39 39 39 39 39 39 39 39 39 40 41 41 41 42 43 44 44 44 42 40 38 37 36 36 36 36 36 36 35 34
40 39 40 40 40 41 41 40 40 40 39 39 39 39 39 39 39 40 40 40 39 39 40 41 42 43 44 45 45 44 44 42 40 38 36 36 36 37 37 37 36 36
37 36 38 39 40 40 40 40 40 40 40 40 38 38 38 38 39 40 40 41 41 40 40 40 42 44 45 45 45 44 43 43 42 39 37 37 37 37 37 38 37 36
36 36 36 37 38 39 39 40 40 40 41 40 38 37 38 38 39 40 40 41 42 41 40 40 41 43 44 45 46 45 43 43 42 40 38 37 37 38 38 39 38 38
40 39 37 37 38 39 40 40 41 41 40 40 38 37 37 38 38 39 40 40 41 41 40 40 41 42 43 45 45 45 44 43 42 41 38 37 37 38 39 40 39 39
42 40 38 37 37 38 40 41 41 40 40 39 38 37 37 37 37 38 39 39 40 41 41 41 41 41 43 44 45 44 44 43 42 41 38 38 39 40 40 41 41 40
42 40 38 36 36 38 39 39 39 39 39 39 38 38 38 37 37 37 37 38 39 40 41 41 41 41 43 44 45 44 44 43 42 40 39 39 40 41 41 41 41 41
40 39 37 36 37 38 39 38 39 39 38 39 39 39 38 37 36 35 36 37 38 39 41 42 41 41 42 43 44 44 44 44 42 40 38 39 40 40 40 41 41 42
38 37 37 37 37 37 38 38 37 37 37 37 38 38 37 36 35 35 35 36 37 37 39 41 41 40 41 42 43 43 44 44 43 40 39 39 40 40 39 39 40 41

ECMWFNIL_925_spd_075.txt.gz
Wind_Speed
38 38 37 36 35 33 32 32 31 30 28 27 27 26 25 25 24 23 22 21 20 20 19 18 18 19 18 15 14 14 14 15 15 13 12 12 12 11 12 12 11 10
39 39 38 36 36 35 33 33 33 32 30 28 27 26 25 25 25 25 24 23 22 21 20 19 18 19 20 18 16 15 13 13 15 15 14 13 12 12 13 13 12 11
39 40 39 38 37 37 36 34 34 34 32 30 29 27 26 25 25 25 25 24 23 23 22 21 19 19 20 20 18 16 14 14 14 15 15 14 12 12 12 12 13 12
39 40 41 40 39 39 38 36 35 35 34 33 31 29 28 26 25 26 26 25 25 24 23 22 20 19 20 21 19 17 17 16 14 14 16 15 14 13 12 12 13 13
41 41 41 41 40 39 38 37 37 37 36 35 34 32 30 29 28 27 27 27 26 25 24 23 22 21 21 21 20 19 19 18 16 14 16 17 16 15 13 13 14 14
40 40 40 40 39 38 38 39 40 39 38 37 36 34 33 32 30 29 28 27 27 26 25 25 23 22 22 22 21 21 21 20 18 16 17 18 17 16 15 15 15 16
38 38 38 38 37 37 38 39 40 40 39 38 37 36 34 34 33 32 30 28 27 27 26 25 24 23 23 23 23 23 23 23 22 20 20 20 19 19 18 18 18 18
38 38 38 37 36 36 36 38 39 40 41 39 38 37 36 35 34 33 32 30 29 27 26 26 25 25 24 24 25 25 25 25 25 24 23 22 22 22 22 21 20 20
37 37 38 37 36 36 36 37 38 40 40 40 40 39 37 36 35 34 34 32 31 30 28 28 27 26 26 26 27 27 27 27 27 26 25 24 24 24 24 23 23 23
36 37 37 37 38 37 37 36 37 37 38 39 39 39 38 37 36 35 35 34 33 32 31 30 29 29 28 28 28 29 29 29 28 27 27 26 25 25 24 23 23 24
37 36 36 37 39 39 39 38 36 35 36 37 38 38 37 37 37 36 36 35 35 34 33 32 32 31 31 30 30 30 30 30 29 28 27 26 26 25 25 24 23 24
37 36 36 37 38 39 39 39 38 36 35 36 36 37 37 37 37 38 37 37 37 36 35 35 34 33 33 32 32 31 31 31 30 29 28 27 26 26 26 26 25 25
37 37 38 38 38 38 39 39 39 38 37 36 36 36 36 37 37 38 39 39 39 39 38 37 35 35 34 33 33 32 31 31 31 30 30 29 28 28 27 27 27 27
38 38 38 38 38 37 37 38 38 39 39 38 36 35 36 36 37 38 38 39 40 40 40 38 37 36 35 34 34 33 32 32 32 32 31 31 30 30 29 28 28 28
37 37 37 38 37 37 37 38 38 38 38 38 37 36 37 37 37 37 36 37 38 39 39 39 38 38 37 36 36 35 34 34 34 33 33 32 32 31 30 30 29 29
37 36 36 36 36 37 38 38 38 38 37 37 37 38 38 37 37 36 36 35 36 37 38 38 38 39 39 39 38 37 36 36 35 35 34 34 33 32 32 32 31 31
36 36 36 36 37 38 38 38 38 38 38 38 37 38 38 38 37 37 37 36 36 36 37 38 39 40 40 40 40 39 38 37 36 36 35 35 34 34 34 34 33 32
36 36 36 37 37 38 38 39 38 38 38 38 38 38 38 37 37 38 38 37 36 36 36 37 39 41 41 42 41 41 40 38 37 36 35 35 35 35 35 35 34 34
36 36 36 37 38 39 39 38 38 38 38 38 38 38 37 37 38 38 38 38 37 37 37 38 39 41 42 42 42 43 42 40 39 37 36 35 36 36 36 36 35 34
36 36 37 38 38 38 38 37 37 38 39 38 38 36 36 37 38 38 38 38 38 38 39 39 39 41 42 42 43 43 43 42 41 39 38 37 37 36 36 36 36 35
36 36 37 37 37 37 36 37 37 38 38 38 37 36 37 38 38 37 38 38 39 39 39 39 40 41 41 42 42 43 43 42 42 41 39 38 38 37 37 37 37 36
35 36 36 36 36 36 36 37 37 37 38 37 36 36 36 36 36 37 38 38 39 39 39 40 41 42 41 42 43 43 43 42 42 42 40 40 40 39 38 38 38 37
35 35 36 36 35 35 36 37 37 37 38 37 35 35 35 35 36 37 38 38 38 39 39 41 42 42 42 42 43 42 42 42 42 42 41 40 41 41 40 39 39 38
35 36 36 35 35 35 36 37 37 37 37 36 36 36 36 36 36 36 37 38 39 40 41 41 41 42 42 42 43 43 42 42 42 41 40 40 41 41 40 40 40 39
33 35 35 35 35 36 37 36 36 37 36 36 36 36 36 36 35 35 36 37 39 40 41 41 41 42 42 43 44 44 42 42 42 39 38 39 40 40 40 40 40 39
29 32 33 34 35 36 36 36 36 36 35 35 36 36 36 35 35 35 36 37 38 38 39 40 41 42 42 44 45 44 43 43 41 39 38 39 40 39 38 38 38 39

ECMWFNIL_925_spd_078.txt.gz
Wind_Speed
36 36 35 33 32 31 30 28 26 26 26 25 25 23 21 20 21 21 20 19 19 18 16 14 13 12 11 11 11 10 10 10 10 11 11 11 10 10 9 9 9 8
37 36 35 35 34 32 31 30 28 27 27 27 26 24 22 20 20 21 21 20 19 19 18 16 14 13 12 12 13 13 12 11 10 10 10 11 10 10 10 9 9 9
37 37 36 36 36 35 33 32 30 29 28 27 27 26 23 21 20 20 21 21 21 20 18 17 16 15 14 13 14 15 14 13 11 9 10 10 11 11 10 9 10 10
37 37 37 37 37 36 35 33 32 31 29 28 28 27 25 23 21 21 20 21 22 21 20 18 16 16 15 15 15 16 16 15 13 11 11 11 11 11 10 9 10 10
38 38 38 37 36 35 35 34 34 33 32 31 30 29 27 25 23 22 21 21 21 21 21 19 18 17 16 16 16 16 17 17 15 13 12 12 11 11 11 11 11 10
37 38 38 37 36 35 34 35 35 35 34 33 32 30 29 28 26 24 23 22 21 21 21 21 20 19 18 18 17 17 17 17 16 14 14 14 13 12 12 13 13 12
36 37 37 37 36 35 35 35 35 35 36 35 33 32 31 30 29 27 26 25 23 22 22 22 21 21 20 19 19 18 18 18 18 16 16 16 15 14 14 14 15 15
36 36 36 36 36 35 36 36 35 35 36 35 34 33 32 31 31 30 29 28 26 25 24 23 23 22 21 20 20 20 20 20 19 19 18 18 18 17 17 16 16 17
35 35 36 36 36 36 37 37 37 36 36 35 35 34 33 32 31 31 31 30 29 28 27 26 24 23 22 21 21 21 21 21 21 21 20 20 20 20 19 18 18 19
34 34 35 35 36 37 38 38 38 37 36 36 36 35 34 33 32 32 31 31 30 29 29 28 27 25 24 23 23 22 22 22 22 22 22 22 21 21 20 20 20 20
35 34 34 35 37 37 38 38 37 36 36 37 37 36 35 34 34 33 32 31 31 31 30 30 29 28 26 25 24 24 24 24 23 23 23 23 23 22 21 20 20 20
34 34 34 35 36 37 37 37 36 35 35 37 37 37 36 35 35 34 34 33 33 33 32 31 31 30 29 28 26 26 25 25 25 25 25 25 25 24 23 22 21 20
34 35 35 35 36 37 36 36 36 35 35 36 36 37 37 36 36 36 36 35 35 34 33 33 32 32 31 30 29 28 27 27 27 27 27 27 27 26 25 24 23 21
36 35 35 36 36 36 36 36 36 37 37 36 36 36 37 37 37 36 36 36 36 35 34 33 32 32 32 31 31 30 29 29 29 29 29 29 28 28 27 26 25 24
35 34 35 36 36 36 36 37 37 37 37 37 36 37 37 37 37 36 36 35 36 35 35 33 33 33 33 33 32 32 31 31 30 30 30 29 29 29 29 28 27 26
34 34 34 35 35 36 36 37 37 36 36 37 37 37 37 37 36 36 35 35 35 35 35 35 35 35 36 35 34 34 33 32 32 31 31 30 30 30 30 29 29 28
34 34 34 34 35 36 36 36 37 36 35 36 36 37 37 37 36 35 35 35 35 35 36 36 36 37 37 37 36 35 34 33 33 33 32 32 31 31 31 31 31 30
34 34 34 35 36 36 36 36 36 35 35 35 35 36 36 35 35 35 36 35 35 35 35 36 37 38 38 38 38 37 36 35 34 34 33 33 32 32 32 32 31 31
35 34 34 35 36 36 37 36 35 35 35 35 36 36 35 34 35 36 36 36 35 36 36 37 38 39 39 38 38 38 37 36 35 34 34 33 33 33 33 32 32 31
39 38 38 38 38 37 36 35 35 36 37 36 36 34 33 35 36 36 36 37 37 37 38 38 39 40 40 39 39 38 37 36 35 35 34 34 34 33 33 33 32 32
40 40 41 40 39 38 36 35 36 37 37 36 35 34 34 36 37 36 37 38 38 38 38 39 40 42 41 40 40 39 37 36 35 35 35 34 34 34 34 34 33 33
37 36 36 37 37 36 36 36 36 37 37 36 35 34 34 35 35 36 37 38 39 38 37 38 41 42 42 42 42 40 38 36 35 35 35 35 35 35 35 35 35 34
33 33 33 33 34 34 35 36 37 37 37 36 34 33 34 35 35 36 37 38 37 37 37 39 41 42 42 42 42 40 38 36 36 36 35 35 36 36 36 35 35 36
28 31 33 33 32 33 34 35 35 35 36 35 34 34 35 36 36 36 36 37 37 37 38 40 41 42 41 41 42 40 38 37 37 36 35 35 36 36 35 35 36 36
27 29 31 32 32 33 34 34 34 35 35 34 34 35 36 36 35 34 35 36 37 38 39 39 41 41 40 41 41 40 39 38 37 35 34 35 35 35 35 34 35 36
24 27 29 30 31 31 32 32 33 33 33 32 32 34 35 34 34 34 35 36 36 37 38 39 40 41 40 40 41 40 39 38 37 35 35 35 35 35 34 33 33 35

ECMWFNIL_925_spd_081.txt.gz
Wind_Speed
34 33 32 31 29 28 27 27 25 24 22 20 18 18 18 16 15 14 15 16 15 14 14 13 11 9 8 8 7 6 6 5 4 4 4 4 4 3 4 4 4 4
35 34 33 32 31 30 29 29 27 26 25 22 20 19 18 17 15 15 15 15 16 16 15 14 13 11 10 9 9 8 8 8 6 5 4 4 4 4 4 4 4 4
35 34 34 33 32 31 29 29 28 27 26 24 22 20 19 19 17 16 15 15 16 17 16 15 14 13 11 10 10 10 10 10 8 7 5 4 3 4 4 4 4 4
37 36 35 34 32 31 30 29 29 27 26 25 24 22 20 20 19 17 16 15 16 17 17 16 16 15 14 12 11 11 11 11 11 10 7 6 5 5 5 5 5 5
38 38 36 35 33 33 32 30 30 29 28 27 26 24 22 21 19 19 18 17 16 16 17 17 17 16 15 14 13 12 12 11 12 12 10 9 8 6 6 6 7 6
38 38 38 36 35 34 33 32 32 31 30 28 27 26 25 23 21 20 19 18 17 16 16 17 18 18 17 15 14 14 13 11 11 13 13 12 10 9 7 8 8 8
36 37 38 37 35 34 34 34 33 33 32 30 28 27 27 25 24 22 21 20 18 17 17 17 17 18 18 17 16 15 15 13 13 14 14 13 12 11 10 10 10 10
32 33 36 36 33 32 33 34 34 34 33 32 30 29 28 28 27 25 24 22 21 20 19 18 18 17 17 18 17 17 16 15 15 15 15 15 14 14 13 12 12 12
30 30 33 34 32 31 31 32 32 34 34 33 32 29 28 29 28 27 27 25 24 23 22 21 20 19 18 18 18 18 17 16 15 16 17 16 15 15 14 14 14 14
29 29 29 30 31 30 30 30 29 29 32 34 32 29 28 30 29 29 28 27 25 24 24 23 23 22 20 20 19 18 18 18 17 17 18 17 16 16 15 15 15 15
29 28 27 29 30 29 29 29 27 25 29 33 32 29 28 30 30 30 29 29 27 26 25 25 24 23 22 21 20 20 19 18 18 18 19 18 19 18 18 18 17 17
28 28 28 29 30 29 27 27 27 25 26 30 32 30 29 29 29 31 31 30 30 28 26 26 24 24 23 22 21 21 21 20 20 20 20 20 20 20 20 20 20 19
28 29 29 28 29 30 28 26 27 27 26 28 31 31 30 28 27 30 32 32 31 30 28 27 26 25 25 24 24 23 23 23 22 22 22 22 22 22 21 21 21 21
28 28 28 28 29 31 32 30 27 27 27 28 30 32 32 30 28 29 33 34 33 32 31 29 28 28 28 27 27 26 25 25 25 25 24 23 23 23 22 22 22 22
27 25 25 27 30 34 36 34 29 27 28 29 30 31 31 29 29 28 30 34 34 34 33 32 31 31 31 31 30 29 28 27 27 27 26 25 25 24 23 23 23 23
27 28 27 27 33 37 38 37 33 28 27 28 30 31 30 29 30 28 27 30 33 35 35 34 34 34 34 34 32 31 30 29 29 29 28 27 27 26 25 25 24 24
30 33 33 32 35 39 38 38 36 30 27 29 31 31 31 31 31 29 27 26 27 31 33 33 35 37 37 36 35 33 32 31 31 31 30 29 29 28 27 26 25 25
32 33 35 37 37 38 38 38 37 32 30 31 31 31 32 32 29 29 30 28 25 26 28 30 34 38 39 38 38 36 35 33 32 31 30 29 29 30 30 29 27 25
34 31 34 37 37 38 38 37 36 34 33 33 32 30 30 32 31 30 31 31 28 26 27 28 32 37 40 40 39 38 37 35 34 31 29 29 30 31 31 31 30 28
30 28 31 35 36 37 35 33 33 34 34 31 28 27 28 33 34 30 31 33 31 30 31 30 30 35 39 40 39 39 38 37 35 33 30 29 31 33 32 32 32 31
21 22 23 25 28 29 30 30 32 34 33 29 25 24 28 34 35 29 30 35 36 33 32 31 32 35 37 38 39 39 38 37 36 35 32 30 32 34 34 34 34 33
19 23 23 23 23 23 24 26 28 32 33 30 25 23 24 28 31 29 29 33 35 33 31 31 33 36 37 38 39 38 37 36 36 37 35 33 33 35 36 36 35 34
15 20 24 26 25 23 24 24 25 28 30 28 25 23 23 24 26 28 29 30 30 30 32 34 36 38 38 38 38 37 36 36 36 37 37 36 36 37 37 37 37 37
11 15 18 21 23 25 26 25 24 24 25 27 26 25 25 25 25 25 26 27 27 29 32 35 36 37 38 38 38 37 36 37 37 37 37 38 38 38 39 39 38 38
8 11 13 15 19 25 27 27 27 25 23 25 26 26 26 25 24 23 24 25 26 28 31 34 34 34 35 37 37 37 36 37 38 37 36 37 38 37 38 40 41 40
6 8 11 13 17 24 29 30 30 27 24 25 26 28 28 26 24 24 25 25 26 27 29 31 33 34 34 36 36 36 36 37 37 37 37 38 37 36 34 35 38 40

ECMWFNIL_925_spd_084.txt.gz
Wind_Speed
20 19 18 17 16 16 15 15 14 14 13 12 11 10 10 10 9 10 10 10 10 10 9 9 8 8 7 7 8 7 6 6 5 5 5 5 5 4 4 5 4 4
21 20 18 17 17 16 16 15 14 14 14 13 12 10 10 10 10 10 10 10 10 11 10 10 9 9 8 7 8 8 7 7 6 6 5 5 5 5 5 5 5 4
22 21 20 19 18 17 17 16 15 14 14 14 13 12 11 11 11 11 10 10 10 11 11 11 10 10 9 8 8 8 8 8 8 6 5 5 5 5 5 5 5 5
24 23 22 21 20 18 17 16 15 15 15 14 14 14 13 12 11 11 11 11 10 10 11 11 11 10 10 10 9 9 8 9 9 7 6 6 6 5 5 5 5 4
25 24 23 21 20 18 17 16 17 16 16 15 14 14 13 13 12 12 12 12 11 11 11 11 11 11 11 11 10 10 9 9 9 9 8 7 7 7 6 5 5 5
23 24 23 22 20 19 18 17 17 17 16 16 15 15 14 14 14 13 13 13 12 12 11 11 11 11 11 11 11 11 10 10 9 8 9 9 8 8 7 6 6 6
23 23 23 22 21 20 20 19 18 17 17 16 16 16 15 15 15 14 14 13 13 12 12 12 12 12 12 12 12 12 11 11 9 9 9 9 9 9 8 7 7 7
22 22 22 22 22 21 20 20 19 18 18 17 16 16 16 16 15 15 15 14 14 13 13 13 12 12 13 12 13 13 12 12 11 10 10 10 10 10 10 9 8 9
22 21 21 22 22 22 21 21 20 19 19 19 19 18 17 17 17 16 16 15 15 15 14 14 13 13 13 13 13 13 13 13 12 11 11 11 11 11 11 10 10 10
22 22 22 22 23 22 22 22 21 20 19 20 20 19 18 18 18 17 17 16 17 17 16 15 15 15 15 14 14 14 13 14 13 12 12 12 12 12 11 11 11 11
23 23 22 23 23 23 23 22 22 20 20 20 20 20 19 18 18 18 18 18 18 18 18 17 16 16 16 16 15 15 14 14 14 14 14 13 13 13 12 12 11 11
23 23 23 23 23 23 22 22 22 21 20 19 19 20 20 19 18 18 19 19 19 19 18 18 17 17 17 17 17 16 15 15 14 14 14 14 14 14 13 13 13 13
24 23 23 23 23 22 22 22 22 21 21 20 19 19 20 20 19 19 19 19 20 20 19 18 18 18 18 18 18 17 16 16 15 15 14 14 14 14 14 14 14 14
23 22 22 22 22 22 21 21 21 21 21 21 20 19 20 21 20 20 19 19 20 20 20 19 18 18 18 18 18 18 18 17 17 17 16 16 15 15 15 15 15 15
21 20 20 21 21 21 22 22 21 21 21 21 20 20 20 20 21 20 20 19 19 20 20 20 20 19 19 19 19 18 19 19 18 18 18 18 17 16 16 16 16 16
19 19 19 20 21 21 22 22 22 20 20 21 21 21 20 19 20 20 21 20 20 19 20 20 21 21 21 23 23 21 19 19 19 18 18 18 18 18 17 17 17 17
20 20 20 20 20 21 21 21 22 21 20 20 20 20 20 19 19 20 21 21 21 20 20 21 21 22 23 27 29 28 24 20 18 19 19 19 19 19 19 18 18 18
19 19 21 21 20 21 21 20 20 20 20 19 20 20 20 20 20 20 21 22 22 22 22 22 22 22 24 28 31 32 31 27 23 20 20 20 20 20 20 19 19 19
19 19 20 22 22 22 20 19 18 19 20 20 19 19 18 19 20 20 21 21 22 23 23 23 23 23 25 29 31 33 34 33 29 25 23 22 21 20 20 20 20 19
19 19 20 21 21 21 19 18 19 20 21 20 18 17 17 19 20 20 20 21 21 22 23 23 24 24 25 28 31 33 34 35 33 29 26 25 24 22 21 21 21 20
18 19 20 20 19 19 18 19 20 20 20 20 19 18 18 19 20 20 20 20 21 22 22 23 24 24 26 29 31 33 33 33 34 31 28 26 25 24 24 23 23 22
16 17 19 19 19 18 19 19 20 20 20 20 19 19 19 19 19 19 20 20 21 21 22 23 24 24 27 30 32 33 32 32 33 32 29 27 27 26 25 25 25 24
11 13 15 17 18 18 19 19 19 20 20 19 19 20 20 20 20 19 19 19 20 21 22 23 24 25 27 30 32 33 32 32 33 31 27 27 27 27 26 26 26 26
8 10 13 15 16 18 19 19 19 19 19 20 20 21 21 22 21 20 20 20 19 20 21 23 24 24 27 30 33 33 33 34 33 29 26 26 26 26 27 27 28 29
7 9 11 14 16 17 19 20 21 21 20 20 21 21 21 22 22 23 23 24 24 23 22 23 25 25 26 29 33 34 34 36 33 27 25 26 26 25 26 27 28 30
7 9 10 12 15 17 19 21 21 22 22 22 21 21 22 23 24 25 26 28 29 29 27 25 25 26 27 29 32 33 34 36 34 28 25 26 26 25 25 26 26 27

ECMWFNIL_925_spd_087.txt.gz
Wind_Speed
19 18 17 16 15 14 13 13 12 12 11 11 10 10 9 9 8 9 9 9 9 9 8 7 7 7 6 6 6 5 4 5 5 4 3 3 4 4 4 4 4 4
20 19 17 16 16 15 14 14 13 13 12 11 10 9 9 10 9 9 9 9 9 9 9 8 8 8 7 7 8 7 5 5 4 3 3 4 4 4 4 5 4 4
21 20 19 18 17 16 16 15 14 13 13 13 12 10 10 10 10 10 10 9 9 9 9 9 9 9 9 8 8 7 6 6 5 5 4 4 5 4 4 5 5 5
22 21 20 19 18 17 16 16 15 14 14 14 13 12 11 10 11 11 11 10 10 9 9 10 9 9 9 9 8 7 7 8 7 7 6 5 5 5 4 4 4 3
23 22 21 20 19 18 17 16 16 16 15 15 14 14 13 12 11 12 12 11 11 10 10 10 10 9 9 9 9 8 8 8 8 9 9 7 7 7 5 5 4 4
23 22 21 20 19 19 18 18 17 17 16 16 15 15 14 14 13 13 13 13 12 11 11 11 11 11 10 10 10 9 9 8 8 9 10 9 8 7 6 5 5 5
23 22 22 20 20 20 20 19 18 18 17 16 16 16 16 15 15 14 14 13 13 12 12 12 11 11 11 11 11 10 10 9 8 8 9 9 8 8 8 6 5 6
23 23 22 22 21 21 21 20 19 19 18 17 17 17 17 16 16 16 15 14 14 14 13 12 12 12 12 12 11 11 11 10 9 9 9 9 8 9 9 8 6 7
24 23 23 23 22 21 22 21 21 20 19 19 19 18 17 17 17 16 16 16 15 15 15 14 14 14 13 13 12 12 12 12 11 10 10 10 10 10 10 9 9 9
24 24 23 23 23 22 22 23 22 21 21 21 20 19 18 18 18 17 17 17 17 16 16 16 15 15 15 14 14 14 13 13 12 11 11 11 11 11 10 10 10 10
25 24 24 24 24 23 23 23 22 22 22 21 21 20 20 19 19 18 18 18 18 18 18 17 16 16 16 16 16 15 15 14 14 13 13 12 12 12 11 11 12 11
25 24 25 25 24 24 23 23 23 22 23 22 22 21 21 20 20 20 19 19 19 19 18 18 18 17 17 17 17 16 16 15 15 14 14 13 13 13 13 13 13 12
24 24 24 25 25 24 24 23 23 23 23 23 22 22 22 21 21 21 21 20 20 20 20 19 19 19 18 18 18 18 17 16 16 15 15 14 14 14 14 14 14 14
23 24 24 24 24 25 24 23 23 23 23 22 22 22 22 22 22 21 21 21 21 21 21 20 20 20 20 19 19 18 18 18 17 17 17 16 15 15 15 15 15 15
20 21 23 23 24 24 25 25 24 23 23 22 22 22 21 21 22 22 22 22 21 21 21 21 21 21 21 20 20 19 19 19 19 18 18 17 16 16 16 16 16 16
18 19 21 22 24 24 24 25 24 24 23 23 23 22 21 21 21 22 22 22 22 22 21 21 21 21 22 23 22 20 19 19 19 19 19 18 18 17 17 17 17 17
17 18 19 20 23 24 24 24 24 24 24 24 24 24 23 22 22 22 22 22 22 22 22 22 21 21 23 25 26 24 22 19 18 19 19 19 19 18 18 18 19 19
16 18 19 19 21 23 24 24 23 23 23 24 24 24 24 24 23 23 22 22 22 22 23 23 22 22 23 25 27 29 27 23 20 19 19 19 19 20 19 19 19 20
17 17 19 21 22 22 22 23 23 22 23 24 24 24 23 24 24 23 23 23 23 23 23 23 23 23 24 26 27 29 30 28 25 22 21 21 21 20 20 21 21 21
19 18 18 21 22 20 19 21 22 22 23 24 24 24 23 24 24 24 23 23 23 23 23 24 24 24 25 27 29 29 30 30 29 26 24 24 24 23 22 22 22 22
15 17 16 17 18 17 17 18 20 22 22 22 22 23 24 24 23 23 23 23 23 23 23 24 25 25 25 26 28 29 30 31 31 29 25 24 25 25 25 25 24 23
12 13 13 12 11 13 16 19 20 19 19 20 21 22 23 23 22 23 23 23 24 23 23 23 24 25 27 28 27 28 28 29 32 31 27 24 24 25 26 27 27 26
15 13 10 8 8 11 15 19 20 20 20 19 19 19 20 21 21 21 22 22 23 24 23 23 23 24 26 29 29 29 29 30 32 31 26 25 25 25 26 27 28 29
18 16 12 8 9 13 17 20 21 21 21 19 18 17 18 19 19 20 20 21 22 23 23 23 23 23 25 28 30 31 32 33 33 30 26 25 25 25 26 27 28 31
19 18 16 13 11 13 16 19 22 22 19 17 19 20 18 17 18 18 19 20 21 22 23 24 23 23 25 27 29 32 33 35 33 27 24 24 24 24 24 25 27 30
19 18 17 15 14 15 17 18 20 21 18 16 20 23 21 18 17 17 18 20 20 20 22 24 24 24 25 26 28 30 33 35 33 27 23 23 23 22 23 23 24 25

ECMWFNIL_925_spd_090.txt.gz
Wind_Speed
21 20 19 18 17 16 15 15 14 14 14 14 13 13 13 13 13 13 14 14 12 12 12 11 10 10 10 9 8 8 7 6 7 7 5 5 5 5 4 5 5 4
22 21 20 19 18 18 17 16 15 15 15 14 13 14 14 13 13 14 14 14 14 12 12 12 11 11 10 10 9 8 7 7 7 6 5 5 6 5 3 4 5 4
24 22 21 20 19 19 18 17 17 16 15 14 14 14 15 14 14 15 15 14 14 13 13 12 12 12 11 11 11 10 9 8 7 6 5 7 6 5 4 3 5 5
25 24 23 21 20 20 20 18 18 18 16 15 15 15 14 15 15 16 15 15 15 14 14 14 13 13 13 12 11 11 11 9 8 8 7 8 7 5 4 4 4 5
25 24 24 23 21 21 21 20 19 19 18 17 17 16 14 15 16 17 16 16 16 15 15 15 15 14 14 13 11 10 11 10 10 10 10 10 8 6 6 5 5 5
25 25 24 23 23 23 22 22 21 21 19 18 18 17 16 15 16 17 17 17 16 16 16 16 16 15 14 15 13 11 12 12 12 12 13 12 10 8 7 8 8 7
23 24 25 23 23 23 23 23 22 22 21 20 19 18 18 18 17 17 18 18 17 17 17 17 17 17 15 16 16 14 14 13 12 13 14 13 11 10 9 10 10 9
23 23 23 24 23 23 24 24 23 23 23 21 21 20 20 19 19 18 18 18 18 18 18 18 18 18 16 16 17 16 15 13 12 13 13 12 12 12 11 11 10 10
20 24 24 24 24 25 24 24 24 24 24 23 22 21 21 21 21 20 19 19 18 19 19 18 19 19 18 17 17 17 17 15 15 15 14 13 13 13 13 12 11 10
17 21 25 25 25 25 26 25 24 24 24 24 23 22 22 22 22 21 22 21 19 19 20 20 19 19 19 18 18 18 18 17 16 16 16 15 15 14 14 14 13 13
21 23 25 27 27 26 26 27 26 25 25 25 24 23 23 24 24 23 23 25 23 20 21 21 20 19 19 19 18 17 17 17 16 16 15 15 15 15 14 14 14 14
27 27 28 28 29 28 27 28 27 25 25 26 25 24 23 24 25 25 24 25 26 23 22 22 22 20 20 20 18 17 18 17 16 16 16 15 15 15 15 15 15 15
29 30 32 30 29 29 27 27 28 26 25 25 26 25 24 23 24 26 25 25 26 25 23 23 24 23 22 21 20 19 19 18 18 17 17 17 16 16 16 16 16 16
22 21 25 29 28 30 29 27 26 27 27 26 26 25 24 23 23 25 25 25 25 26 25 23 24 24 23 23 23 21 19 19 19 19 18 18 18 17 17 17 17 17
16 17 21 28 28 25 28 29 27 26 25 26 27 26 24 23 23 23 25 25 24 25 25 24 24 25 24 24 24 24 22 20 20 21 20 20 19 19 18 18 18 18
13 18 20 22 28 28 22 21 24 25 24 23 25 26 25 25 24 22 23 25 26 26 26 24 24 24 25 27 26 26 25 23 22 23 22 22 21 21 21 20 20 19
9 14 17 17 19 22 23 23 18 15 18 20 22 23 23 24 25 25 23 23 24 25 26 25 25 24 26 28 29 28 27 25 24 24 24 24 24 23 23 22 21 21
7 9 11 11 12 13 16 20 21 20 18 16 14 18 20 21 23 24 24 23 23 24 25 26 25 25 26 29 30 30 29 27 26 24 24 25 25 25 25 24 24 23
5 5 6 9 11 12 14 14 12 12 18 21 18 14 15 18 20 22 23 23 23 23 24 26 26 26 27 29 31 33 33 30 27 25 25 25 25 26 26 25 25 25
8 7 6 6 10 14 14 13 15 18 19 22 21 18 16 17 18 20 22 24 26 26 23 22 25 27 28 29 31 33 35 35 32 28 26 26 26 27 27 27 26 26
8 8 7 6 6 11 15 15 17 17 17 21 25 23 22 21 18 18 21 23 25 28 27 24 23 24 27 30 33 34 34 36 36 33 29 27 27 27 27 27 28 28
9 8 7 7 7 7 11 13 15 16 14 14 17 18 21 25 23 20 20 21 21 23 26 27 26 25 25 26 30 34 35 36 38 37 32 30 29 28 29 29 29 28
12 10 9 9 9 8 9 11 12 12 12 13 14 16 18 22 24 23 22 21 21 22 24 26 27 27 27 27 28 31 34 37 39 38 35 32 31 29 29 29 29 30
14 13 12 12 12 11 10 11 11 10 11 12 14 16 20 22 23 25 25 25 26 27 25 26 28 28 28 30 30 30 32 36 38 37 34 32 31 30 29 29 29 30
14 14 15 16 15 14 13 12 12 12 11 12 13 15 18 21 22 23 25 26 27 29 30 29 31 31 30 30 31 31 32 34 36 36 33 31 30 28 28 29 30 30
13 14 16 17 16 16 17 15 14 13 13 13 13 14 15 19 21 20 22 24 24 26 28 30 31 31 32 32 32 33 33 34 35 34 32 31 29 27 26 26 27 29

ECMWFNIL_925_spd_093.txt.gz
Wind_Speed
20 21 19 18 19 19 19 20 18 17 17 18 18 17 17 15 14 16 16 15 15 14 14 14 13 12 12 12 12 12 11 10 10 10 9 8 8 7 6 6 5 5
22 22 20 18 19 19 19 19 19 18 17 17 17 16 16 15 14 16 18 16 15 15 14 15 14 12 13 13 13 13 11 10 11 10 9 8 8 7 7 7 7 6
22 22 22 20 19 19 19 18 18 18 16 15 16 15 15 15 14 16 18 16 16 16 15 14 14 13 13 13 13 13 11 11 11 10 9 9 8 8 8 8 8 7
24 23 23 22 20 19 18 18 18 18 17 16 15 15 14 14 14 15 16 15 14 16 15 14 14 14 13 13 12 13 12 11 11 10 9 9 10 9 8 9 9 8
25 24 23 23 22 20 19 19 19 18 18 17 16 15 15 15 15 15 16 15 15 15 16 15 14 14 14 13 13 13 12 11 11 10 9 9 11 10 9 10 9 9
25 25 24 24 23 21 20 20 20 19 18 18 17 16 16 16 18 18 17 17 16 16 17 16 15 15 14 14 14 13 12 12 11 11 10 11 12 11 9 10 10 9
25 26 25 25 24 22 22 21 20 20 19 19 18 18 17 17 18 19 19 19 18 17 17 17 16 16 15 15 14 13 13 12 11 12 13 13 14 12 11 11 11 10
24 26 25 25 25 23 23 22 22 21 20 20 19 20 20 18 18 19 19 19 19 19 18 17 18 18 17 17 16 15 14 13 13 14 14 14 14 14 13 12 12 12
18 23 25 24 24 24 23 23 23 22 21 21 21 21 22 22 21 20 20 20 19 20 20 19 19 19 19 19 19 17 16 16 16 16 16 15 15 15 14 14 13 12
15 18 23 25 24 24 23 22 24 23 22 23 22 22 22 23 23 23 21 21 21 20 20 21 21 21 21 21 21 20 19 18 17 17 18 17 16 15 15 16 15 13
14 14 18 22 21 22 22 22 23 24 24 24 24 23 23 23 24 25 24 23 23 22 22 22 22 22 23 22 22 21 21 20 18 18 19 19 18 16 15 17 17 16
16 16 14 17 19 19 20 19 19 21 23 25 26 24 23 24 24 25 25 25 25 24 23 23 23 22 23 24 23 22 21 20 20 19 19 19 20 19 17 18 19 18
14 16 19 20 20 19 19 18 16 16 17 20 26 28 25 23 25 26 27 26 27 27 26 24 24 24 24 24 24 23 22 22 21 21 20 20 20 20 19 19 19 20
12 14 20 21 20 18 18 19 18 16 13 12 18 28 30 26 24 26 29 28 27 28 29 27 26 25 25 25 24 24 23 23 23 23 23 22 22 22 22 21 21 21
10 14 18 19 18 18 18 21 22 19 17 13 11 18 28 31 28 26 28 31 29 28 30 30 28 28 28 27 27 26 26 26 26 26 25 25 24 24 24 24 23 23
7 12 17 17 18 18 18 21 23 21 21 21 15 12 17 26 30 29 27 30 33 31 30 31 31 30 30 30 30 29 29 29 28 27 27 27 27 26 26 25 25 24
8 9 12 14 16 16 15 15 17 18 20 24 24 17 12 16 25 31 30 30 32 34 33 33 33 32 31 30 31 31 31 31 31 29 28 27 28 28 27 27 27 26
7 7 9 10 12 13 13 12 14 16 17 21 26 25 19 16 18 24 29 31 31 34 35 34 34 34 33 31 30 31 32 32 33 33 31 29 29 29 30 29 28 27
7 6 6 7 8 8 9 10 12 13 14 15 20 24 24 22 18 17 20 25 28 31 34 35 35 34 34 33 31 31 32 33 34 34 33 32 31 30 30 30 30 29
8 7 5 3 4 5 7 7 8 9 10 12 15 20 23 25 23 18 16 17 19 22 27 32 34 35 35 35 33 32 32 34 35 35 34 34 34 32 31 31 31 31
8 7 7 5 2 1 4 6 7 8 9 11 13 17 20 23 25 24 22 19 17 17 18 21 25 28 30 33 34 34 33 34 36 38 36 34 34 34 33 32 32 32
11 10 10 7 4 3 3 3 4 5 7 9 12 14 17 19 22 24 24 22 20 19 19 20 21 21 21 24 28 32 35 36 37 39 38 37 35 35 34 33 32 32
12 12 11 9 7 7 7 7 5 5 6 7 9 11 13 15 17 19 19 20 21 21 21 21 23 25 23 21 20 23 28 34 38 39 37 36 36 35 34 34 33 32
12 12 12 11 9 8 9 8 7 6 6 6 7 9 10 11 14 16 17 18 20 22 22 22 24 26 26 25 23 21 20 24 29 35 37 37 37 36 35 34 33 33
10 11 11 10 9 8 7 7 7 7 7 6 6 8 9 9 10 12 15 17 19 20 22 22 23 25 25 26 26 25 24 23 22 23 27 29 31 33 34 35 35 35
11 9 8 8 7 7 7 5 6 6 6 7 7 6 7 8 9 10 12 15 16 17 18 19 21 22 21 20 21 22 24 24 21 19 21 23 24 25 28 32 34 35

ECMWFNIL_925_spd_096.txt.gz
Wind_Speed
23 23 21 23 23 20 21 23 23 23 22 21 21 20 19 18 17 17 16 14 15 15 14 14 13 13 13 12 12 12 11 11 10 10 10 10 10 10 10 9 8 8
23 22 22 23 23 20 20 22 21 21 22 21 21 20 19 18 17 17 17 15 16 16 16 15 15 14 14 13 13 13 12 11 10 9 9 9 9 9 10 10 8 8
25 23 23 23 23 21 20 21 20 20 20 19 20 20 19 17 17 17 18 17 17 17 16 16 16 16 15 14 14 14 13 11 10 10 10 10 9 10 10 10 9 9
27 25 24 24 23 23 22 21 21 21 19 18 19 20 20 19 17 18 19 19 19 18 17 17 16 16 16 15 14 15 14 12 10 10 11 11 10 10 10 10 10 10
29 27 25 24 23 23 23 23 22 22 21 20 20 20 21 20 19 19 19 20 21 20 18 17 17 16 16 16 15 15 14 13 12 11 12 11 11 11 10 10 11 11
30 28 27 26 24 22 23 23 22 21 23 22 20 19 20 21 20 19 19 19 21 21 18 17 17 16 16 17 16 15 15 14 13 13 13 13 12 12 11 11 11 11
30 29 27 27 26 25 24 23 22 22 22 22 22 21 21 21 21 21 20 18 20 21 18 17 17 16 16 16 16 16 15 14 13 13 14 14 13 12 11 12 12 12
30 30 29 27 27 27 26 25 24 23 22 22 23 23 22 22 22 22 22 21 21 21 19 18 18 18 17 17 16 16 15 14 14 14 15 15 15 13 12 12 13 13
29 29 29 28 27 27 27 27 26 25 24 24 24 23 23 23 23 23 24 24 23 22 21 20 19 19 19 18 17 17 16 15 14 14 15 15 15 15 13 13 13 14
26 28 29 29 29 28 28 28 27 26 26 26 25 24 24 25 25 24 24 25 26 24 23 22 21 20 20 20 19 18 17 16 15 15 15 16 16 16 15 14 14 16
20 24 27 29 29 28 28 28 28 27 27 27 26 26 26 26 26 26 25 25 26 26 24 23 22 22 22 22 21 20 18 17 16 16 16 16 16 17 17 17 16 17
21 21 24 26 28 28 27 27 27 27 27 27 27 27 27 27 27 28 28 27 27 26 25 24 22 22 23 24 24 23 21 19 18 18 18 18 18 18 18 19 18 18
24 21 22 25 28 28 27 26 24 23 26 27 28 28 28 28 28 29 30 31 30 28 27 26 24 22 22 23 24 25 24 23 21 20 20 20 20 20 19 19 19 19
24 23 22 23 26 27 26 26 23 20 21 25 28 29 29 29 29 29 30 31 31 31 29 27 26 25 24 24 25 25 25 25 24 23 22 22 22 22 21 21 21 20
21 22 23 23 25 26 25 25 24 20 18 20 24 26 29 30 30 29 29 31 32 32 31 30 28 27 26 25 26 26 26 26 27 26 25 24 23 23 23 23 23 23
17 18 20 21 23 26 26 24 24 21 19 19 21 23 25 28 29 29 29 30 32 33 33 32 31 30 29 28 28 27 27 27 28 28 27 26 25 25 26 26 26 25
13 15 17 19 21 24 26 25 25 23 21 22 22 23 23 24 27 29 29 29 30 32 34 34 33 32 32 31 30 30 30 29 29 29 29 28 28 28 28 28 28 27
10 12 13 15 18 20 22 24 23 23 23 24 25 26 25 24 25 27 29 31 30 30 33 35 35 35 34 33 32 31 32 32 32 32 31 31 30 30 30 29 28 28
7 10 11 13 15 18 20 21 22 23 24 24 25 26 24 25 26 25 25 27 29 29 30 33 35 36 35 34 33 33 33 33 33 33 32 32 32 32 32 31 30 29
4 6 7 8 11 13 15 17 19 19 20 21 22 22 21 22 25 25 22 21 22 24 26 29 33 35 35 35 35 34 33 34 34 34 33 32 32 32 32 32 32 32
8 7 6 3 3 6 7 9 11 11 12 14 15 16 17 18 20 23 24 21 19 18 18 20 23 28 30 32 33 34 34 33 33 33 33 33 33 33 33 33 33 33
9 8 8 7 4 1 1 2 3 4 5 7 8 10 12 13 14 17 20 21 20 18 15 14 14 16 18 22 26 29 32 34 34 33 33 31 31 31 32 33 34 35
11 9 8 7 6 4 3 3 3 2 2 3 4 6 7 9 11 13 15 17 17 17 15 14 12 12 13 14 16 19 23 27 29 31 31 32 32 32 31 31 32 34
11 10 8 7 7 6 5 4 5 4 3 3 3 5 6 7 9 11 12 13 14 15 15 13 12 13 15 15 16 16 16 18 20 22 23 25 27 29 31 32 33 33
9 7 6 5 7 8 7 4 4 4 3 3 3 4 4 5 7 9 10 10 11 12 13 13 13 14 17 19 19 18 17 17 18 20 21 21 22 23 26 29 32 34
9 8 8 7 8 10 10 6 4 4 4 3 2 2 2 3 4 5 7 8 8 9 10 11 12 15 18 20 20 19 19 18 18 20 23 25 26 26 27 29 30 32

ECMWFNIL_925_spd_099.txt.gz
Wind_Speed
22 22 24 23 21 20 20 21 21 20 19 18 17 16 15 14 13 13 13 12 12 12 12 13 12 11 11 10 10 10 10 9 9 9 9 9 9 8 8 8 7 6
23 22 22 22 22 21 21 21 21 21 21 19 18 16 16 15 14 14 14 13 13 12 12 13 13 12 11 11 11 12 11 10 10 10 9 9 8 8 8 8 7 6
24 23 23 23 22 21 21 21 21 21 21 20 19 18 17 16 16 15 14 14 14 13 12 13 13 13 12 12 12 12 12 12 11 10 9 8 8 9 8 8 7 7
26 25 24 24 23 21 21 22 21 21 22 21 20 19 18 17 17 16 15 15 15 14 14 15 15 14 14 14 13 13 13 13 12 10 10 10 9 9 9 8 8 7
29 27 26 25 23 21 22 22 21 21 22 21 20 19 19 18 18 18 17 17 16 16 16 16 16 16 15 15 15 14 14 14 13 12 12 11 10 10 10 9 9 8
30 28 27 26 23 22 23 22 21 21 21 21 20 19 19 19 19 19 18 18 18 18 18 18 18 17 16 16 15 15 14 14 14 14 13 12 11 11 11 10 10 9
30 30 29 27 24 23 24 23 22 22 21 21 21 20 19 19 20 21 20 19 19 19 20 20 20 19 18 17 16 16 15 15 14 14 14 13 12 12 12 11 11 10
30 30 30 29 26 24 24 24 23 23 22 22 22 21 21 20 20 21 21 21 20 19 20 20 20 20 18 18 17 16 15 15 14 14 14 13 13 14 13 12 12 12
30 30 31 31 29 26 25 25 24 24 23 22 22 21 22 22 21 20 20 22 22 20 20 20 20 20 19 18 18 17 16 15 14 14 14 14 14 14 13 12 12 12
30 30 30 31 31 29 28 27 26 24 24 24 22 21 22 22 21 21 20 21 22 22 22 21 21 21 20 19 19 18 17 16 14 14 15 15 15 15 14 13 12 13
30 30 30 31 32 31 30 29 28 27 25 25 24 23 23 23 23 22 22 22 23 23 23 23 22 22 22 21 20 20 19 18 16 16 16 16 16 15 15 15 14 13
30 30 30 30 31 32 31 30 29 29 28 27 26 25 25 25 25 24 24 24 24 24 24 24 24 24 23 22 22 22 21 20 19 18 17 17 17 16 16 16 16 15
29 30 30 31 31 31 31 31 30 29 30 29 28 27 26 26 26 26 26 25 25 25 25 24 24 24 25 24 23 23 23 23 22 22 21 20 19 18 17 17 17 16
21 23 24 25 29 31 31 30 30 29 29 29 28 28 27 27 27 27 27 26 26 25 25 26 26 26 26 25 24 24 24 25 25 24 24 23 22 21 20 19 19 19
12 15 17 17 20 26 29 29 28 28 28 28 28 28 27 27 26 27 28 28 27 26 26 26 27 28 28 27 26 25 25 25 25 25 26 25 25 24 23 22 21 21
20 20 20 19 19 21 24 27 28 28 27 27 26 25 25 25 26 28 29 29 28 27 27 27 28 30 30 29 28 27 27 26 26 27 27 26 26 26 25 25 24 23
23 21 22 25 25 23 22 23 25 27 27 26 25 23 21 21 23 25 28 30 30 29 28 27 28 30 30 30 30 30 29 29 29 29 28 28 28 28 27 27 26 25
15 15 18 22 24 24 24 23 23 25 25 25 24 23 21 19 20 21 24 26 28 29 29 28 29 30 30 31 31 31 31 31 31 31 31 30 30 29 29 29 28 28
9 9 12 15 16 18 20 19 20 23 23 21 21 22 21 22 22 23 23 23 24 25 27 28 30 31 31 31 31 31 31 32 33 33 33 32 32 31 30 30 30 30
5 4 6 10 11 12 12 13 15 18 17 14 15 17 18 20 22 23 24 24 23 23 24 25 27 29 30 31 31 31 31 32 33 34 34 33 33 32 32 31 31 31
8 7 6 2 1 1 2 4 5 8 8 8 9 12 14 16 18 19 20 21 22 22 21 21 22 24 26 28 30 30 30 31 33 34 34 33 33 33 33 33 32 32
13 13 14 13 10 7 5 3 2 1 3 5 6 6 9 11 13 15 16 17 18 20 22 22 21 20 21 23 26 27 28 29 31 32 33 34 35 35 35 35 34 33
15 15 16 16 14 12 10 7 7 7 5 3 4 5 7 9 11 12 13 13 15 18 21 23 23 21 19 18 19 21 24 26 28 30 32 34 35 35 35 36 35 35
17 17 16 15 13 13 12 11 9 10 9 6 4 4 6 8 9 10 11 11 13 15 18 20 22 22 20 19 17 17 18 20 23 25 28 31 33 34 35 36 36 37
19 19 18 17 15 13 13 11 9 8 8 8 7 7 7 8 9 10 10 10 10 12 15 16 18 18 18 18 18 17 18 18 19 20 22 25 28 30 31 32 34 35
19 19 19 19 18 16 15 12 8 6 6 7 7 6 6 8 9 9 10 9 9 10 12 13 14 14 14 14 15 15 16 17 18 20 21 23 24 25 26 27 29 31

ECMWFNIL_925_spd_102.txt.gz
Wind_Speed
22 19 18 17 18 19 18 17 16 15 15 14 13 12 11 12 13 13 12 11 10 9 9 10 10 10 9 8 8 7 6 6 5 4 4 4 4 4 4 4 3 3
24 20 18 17 17 18 18 17 15 14 14 13 12 12 11 11 12 13 12 11 10 10 10 10 11 11 10 9 8 8 7 7 6 6 5 5 5 5 5 4 4 3
25 22 19 17 17 18 17 16 15 14 13 13 12 12 12 12 12 12 12 11 11 10 10 10 10 11 11 10 9 8 8 8 8 7 7 6 5 5 5 4 4 4
27 23 20 18 17 17 16 16 16 15 14 13 13 13 12 12 13 13 12 12 11 11 11 11 10 11 11 11 10 9 10 10 9 8 8 7 6 6 5 5 5 5
28 24 21 19 18 17 17 16 16 15 15 14 13 13 13 13 13 13 13 13 12 11 11 11 11 11 11 11 11 11 11 11 11 10 9 9 8 7 7 6 6 6
27 25 22 21 19 18 18 18 16 15 15 15 14 14 13 13 13 13 13 13 13 12 12 12 11 12 11 12 12 12 12 13 12 12 12 11 10 9 8 8 8 7
27 26 23 22 20 19 19 19 17 16 16 15 14 14 13 13 13 13 13 13 13 14 13 13 13 13 13 13 13 13 13 13 13 13 14 13 12 11 10 10 10 9
27 26 25 23 22 21 20 20 19 17 16 16 15 14 14 14 14 13 13 13 14 15 15 14 14 14 15 15 15 15 14 14 14 15 15 15 14 14 12 11 12 12
26 26 25 24 23 23 22 22 20 18 17 17 17 16 15 15 15 15 14 14 14 15 16 16 16 16 16 16 16 16 15 15 14 15 15 15 15 15 14 13 13 14
25 25 25 25 25 24 24 23 22 20 19 18 17 17 17 16 16 16 16 16 16 16 16 17 17 17 16 16 16 16 16 15 14 15 15 16 16 15 15 14 14 14
25 25 25 25 26 25 25 25 24 21 20 19 18 18 18 18 17 17 17 17 17 17 17 17 17 18 17 17 17 17 17 16 15 15 16 16 16 16 16 15 15 15
24 25 25 26 26 25 25 25 25 24 22 21 20 19 19 19 19 18 18 18 18 18 18 18 18 18 18 18 18 19 19 18 18 17 17 17 17 17 17 17 16 16
24 24 25 24 24 24 24 24 24 24 24 22 21 20 20 20 20 20 21 20 20 20 20 20 20 20 21 20 20 20 21 20 20 19 18 17 17 17 18 18 18 17
24 24 23 22 22 23 23 23 23 23 23 23 22 22 22 22 22 22 23 23 23 22 21 21 21 22 23 22 22 21 22 22 21 21 20 19 19 18 18 19 19 19
20 20 20 19 19 21 22 22 23 22 22 21 21 21 22 22 22 22 23 24 25 24 23 23 23 24 24 24 24 23 23 23 23 23 22 21 20 20 20 20 21 21
14 16 20 19 17 18 19 20 21 20 20 19 18 18 18 19 21 22 23 24 25 25 25 24 24 25 25 25 25 25 25 25 25 25 24 24 23 22 22 22 22 23
14 17 20 19 17 17 17 18 18 17 17 16 16 16 15 15 16 17 20 23 24 25 26 26 26 25 25 25 25 25 26 26 27 27 26 26 26 25 25 25 24 24
16 16 16 16 16 17 17 17 16 16 16 17 17 16 17 17 16 15 15 17 20 23 24 25 26 26 25 25 26 25 26 27 28 28 28 28 28 27 28 27 27 26
12 10 9 10 12 13 12 12 13 14 16 18 19 19 20 21 21 20 17 15 17 20 21 22 24 24 24 24 24 25 25 26 27 28 29 29 29 29 29 29 28 28
9 8 6 3 2 5 6 7 9 11 13 16 18 20 22 23 24 23 21 19 20 22 22 22 23 23 23 22 23 23 23 24 25 27 28 29 29 29 29 29 29 29
17 16 14 12 10 7 7 6 6 8 11 12 12 14 16 18 19 19 19 19 20 21 21 22 23 22 22 22 22 22 22 23 24 25 27 28 29 29 29 29 29 29
20 20 19 17 15 12 10 7 4 1 4 6 7 8 9 11 14 15 16 17 17 17 17 18 19 19 20 21 21 20 19 20 22 24 26 27 28 28 28 29 29 29
21 21 21 19 17 14 11 7 7 8 7 3 1 4 6 9 11 12 13 13 14 14 14 15 15 15 16 18 18 18 18 18 19 21 23 25 27 27 28 29 29 30
22 22 20 18 16 14 10 6 5 7 9 8 6 4 2 3 6 8 8 8 8 9 10 11 12 13 13 15 15 15 16 17 17 18 20 22 23 24 25 26 27 28
21 21 20 19 17 13 9 4 2 3 5 6 6 6 6 5 4 5 5 5 5 7 7 8 9 8 9 11 12 13 14 15 16 17 17 18 19 20 20 21 22 22
20 20 20 20 19 15 11 5 2 1 3 5 5 4 6 6 6 5 5 5 4 5 6 6 6 6 6 7 8 9 11 13 14 15 16 17 17 17 18 18 18 19

ECMWFNIL_925_spd_105.txt.gz
Wind_Speed
23 21 20 18 17 17 17 17 16 16 16 14 13 12 12 12 11 11 12 11 11 10 8 8 8 7 7 6 6 5 4 3 4 4 4 4 4 4 5 5 5 4
25 23 21 19 18 18 17 17 17 17 16 15 14 13 12 11 10 11 13 12 11 9 8 7 7 7 7 6 6 5 5 4 4 4 4 4 5 5 5 5 5 5
26 24 22 20 18 17 17 18 18 17 16 15 14 13 12 10 9 10 12 12 11 9 8 7 6 6 7 7 7 6 5 4 4 4 5 5 5 4 5 5 5 5
27 26 24 21 18 17 17 17 18 17 16 15 14 13 12 11 10 9 10 11 10 9 7 7 7 6 7 8 8 7 6 5 5 5 5 5 5 5 5 5 5 5
27 27 26 23 20 18 17 16 16 16 16 14 13 12 11 10 10 9 10 9 9 8 7 6 7 7 7 8 8 8 7 6 6 6 6 6 5 5 5 5 6 6
27 27 27 25 23 20 17 16 15 15 15 13 12 12 11 10 9 9 9 9 8 7 7 6 6 7 7 8 8 8 7 7 6 7 7 7 6 6 6 6 7 7
26 25 26 26 24 21 18 16 16 15 14 13 12 12 11 10 9 9 9 9 8 8 8 7 7 7 7 8 9 9 9 8 8 8 8 8 7 7 7 7 8 8
23 23 24 25 23 20 19 17 16 16 15 13 12 12 11 10 10 9 9 8 9 9 8 8 8 7 8 9 10 11 10 9 9 9 9 9 9 9 8 8 8 9
19 19 21 22 21 19 18 16 15 15 16 15 12 10 11 11 10 10 10 9 9 9 9 9 9 9 9 10 10 11 11 10 9 10 10 9 9 9 8 8 8 9
17 17 17 18 18 18 17 16 14 14 15 15 12 10 10 11 11 11 10 10 10 10 9 9 9 9 10 11 11 11 11 11 10 10 10 10 9 9 8 8 8 9
15 15 15 17 18 17 17 16 14 13 14 15 13 12 11 11 11 11 11 11 10 10 10 10 10 10 10 11 11 11 11 11 11 12 12 11 11 11 10 9 9 9
17 16 16 17 17 17 16 15 15 14 14 14 14 13 12 11 11 11 11 11 10 10 10 10 11 11 12 12 12 12 13 13 12 13 13 13 13 13 12 12 11 11
17 18 19 18 17 17 16 15 15 14 13 13 13 13 13 12 11 11 12 12 12 11 11 11 12 12 13 13 13 14 14 14 14 14 14 15 15 15 13 13 12 12
17 17 18 19 19 20 18 16 14 13 13 13 13 14 13 13 12 12 12 12 12 13 13 13 13 13 14 14 15 15 15 15 16 16 15 15 16 16 15 14 14 13
21 20 19 20 21 21 20 18 16 14 14 15 15 14 13 13 13 12 12 12 12 13 14 13 13 13 14 14 14 15 15 15 16 17 16 16 17 17 17 17 17 15
22 21 20 20 20 20 20 19 17 16 16 16 16 16 15 16 15 14 13 12 12 13 13 12 12 13 14 14 13 14 15 16 17 18 18 18 18 19 18 18 18 17
22 21 21 20 17 16 16 16 15 15 16 16 17 17 17 18 17 17 16 13 12 12 12 12 12 13 15 14 13 14 15 16 18 18 18 19 19 20 19 19 18 17
19 20 20 18 14 14 16 17 16 15 16 17 17 17 17 17 17 18 17 15 14 13 12 12 12 14 15 15 14 14 14 16 17 16 16 17 18 19 19 19 19 18
16 17 18 18 16 16 20 21 19 18 18 18 18 17 17 17 17 17 17 16 14 14 14 12 12 14 15 15 15 14 13 15 17 17 16 16 17 18 19 20 20 20
13 14 16 18 17 15 17 18 19 19 19 19 18 16 15 17 18 17 17 17 16 16 16 14 14 16 16 15 15 15 14 15 16 17 18 17 18 19 19 20 21 21
6 6 8 12 15 15 14 13 15 16 16 15 15 13 11 13 14 13 14 16 16 16 16 15 15 16 17 16 17 17 16 15 15 16 17 18 19 20 20 21 21 22
10 8 7 8 12 16 15 12 10 11 11 11 11 9 8 8 8 8 9 10 11 12 13 12 12 15 17 16 17 17 16 16 15 15 15 16 18 18 19 20 21 22
13 11 10 10 12 15 16 13 11 10 10 10 9 8 7 6 6 7 7 7 7 8 10 10 9 12 14 15 16 16 16 15 16 15 15 16 16 16 16 17 18 19
13 11 9 9 9 11 12 13 13 12 11 10 10 9 8 6 6 6 5 4 4 5 7 8 8 10 11 12 13 15 15 15 15 15 15 15 14 14 15 15 14 15
14 12 10 9 8 8 7 8 9 10 11 10 8 8 7 6 6 6 5 4 4 3 2 4 6 8 8 9 11 12 13 14 14 13 13 12 10 10 12 12 13 13
15 14 14 12 11 10 8 6 7 8 9 9 9 7 6 5 5 6 5 4 4 4 3 2 0 2 4 5 7 10 11 11 10 9 9 9 9 8 8 9 9 9

ECMWFNIL_925_spd_108.txt.gz
Wind_Speed
13 12 11 11 10 9 8 8 8 7 7 6 6 6 7 7 7 7 7 7 6 6 5 5 4 4 3 3 4 4 3 4 4 3 3 3 3 4 4 4 4 4
14 13 12 11 10 9 9 9 8 8 7 7 6 6 6 7 7 7 7 7 7 6 6 5 5 4 4 4 4 5 4 4 5 4 3 3 3 4 4 4 5 5
15 14 13 13 12 11 11 10 9 9 9 8 8 7 7 7 8 7 8 8 7 7 6 6 5 5 6 5 5 5 5 5 5 4 3 3 4 4 4 4 5 5
16 15 14 14 13 12 12 12 11 10 10 9 9 9 8 7 8 8 8 9 9 8 7 7 6 6 6 6 6 6 5 5 5 4 3 4 4 5 5 5 5 5
16 16 15 14 13 12 12 13 12 11 11 10 10 10 9 9 8 9 9 10 10 10 9 8 7 7 7 7 7 6 6 6 6 5 4 5 5 6 5 5 5 5
16 16 16 15 14 13 13 13 12 12 11 11 10 10 11 11 10 10 10 10 11 10 10 9 8 8 7 7 7 7 6 6 5 5 5 6 6 6 6 5 5 6
16 16 16 16 16 15 14 13 13 12 12 11 11 11 11 11 11 11 11 11 10 10 10 9 9 8 8 8 7 7 7 6 5 5 6 6 6 7 6 6 6 6
16 15 15 15 16 16 16 15 14 13 12 12 11 12 12 12 12 12 11 11 10 10 10 10 9 9 9 8 8 7 7 7 7 7 7 7 7 7 7 7 6 7
15 15 15 15 16 16 17 16 15 14 13 13 12 12 12 12 12 12 11 11 10 9 9 10 10 10 9 9 8 8 7 7 7 7 7 7 8 7 7 7 7 7
15 14 14 15 15 16 16 16 16 15 14 14 14 13 12 12 12 11 11 11 10 10 10 10 10 10 10 10 9 9 8 8 7 7 7 7 7 7 7 7 7 7
15 14 14 14 14 14 15 16 16 15 14 14 14 14 13 12 12 11 11 11 11 10 10 10 10 10 10 10 10 9 9 8 8 7 8 7 8 8 7 7 8 8
14 14 13 14 14 14 14 14 15 15 14 14 14 14 14 13 12 12 12 11 11 10 10 10 10 10 10 10 10 9 9 9 8 8 8 8 8 8 8 8 8 8
14 14 13 13 13 13 13 13 14 15 14 14 14 14 15 14 13 13 12 12 11 11 10 10 10 10 10 10 10 9 9 9 9 9 9 8 8 8 8 8 9 9
13 13 13 13 12 11 12 13 13 14 14 13 13 14 15 15 14 13 13 12 12 12 11 11 11 11 11 11 11 11 10 10 10 10 10 9 9 9 9 9 9 9
14 13 12 11 11 12 12 12 13 13 14 14 14 14 14 14 14 14 14 13 13 12 12 12 12 12 12 12 12 11 11 11 10 10 10 10 9 9 10 10 10 10
20 19 17 15 13 13 12 13 13 14 14 15 14 14 13 13 14 14 15 14 13 13 13 14 14 13 13 14 14 12 10 10 10 10 10 10 10 10 10 11 11 11
23 23 22 21 20 18 16 15 14 14 14 14 14 14 14 14 14 15 15 15 14 14 14 14 14 14 15 16 16 14 12 11 11 11 11 11 11 11 11 11 11 11
21 20 19 19 20 21 21 19 16 15 15 14 14 14 14 14 14 14 15 15 15 14 14 14 14 13 15 16 15 15 14 12 11 12 12 12 12 12 11 11 11 11
17 16 16 18 18 19 21 21 19 17 16 16 15 14 15 15 15 14 13 13 13 13 13 13 13 13 14 15 15 15 14 13 12 12 12 12 12 12 11 11 11 11
13 13 13 15 17 17 18 19 18 17 17 16 15 15 15 15 15 15 14 13 13 13 13 14 13 13 14 14 14 14 13 13 12 12 13 13 12 12 12 12 12 12
6 9 10 11 14 16 17 17 17 17 17 16 14 14 16 16 15 15 14 14 14 13 14 14 14 14 14 14 14 13 13 13 13 13 13 13 13 13 13 13 13 13
4 3 3 4 8 12 15 17 18 19 19 18 16 15 15 14 14 14 13 14 13 13 14 14 12 12 13 14 14 14 14 13 13 13 13 13 14 14 13 13 13 13
6 5 4 2 2 4 5 8 13 16 17 19 19 18 16 14 13 12 11 11 12 12 13 11 8 9 12 13 15 16 14 12 11 12 13 14 14 14 13 13 12 12
7 7 6 6 5 6 7 5 3 5 10 14 15 14 13 13 13 11 10 10 10 10 10 9 8 10 10 10 12 14 13 12 11 12 13 13 13 13 12 12 11 11
9 8 7 7 6 7 9 10 9 8 6 8 8 7 6 8 9 9 9 9 8 8 9 8 6 6 6 7 9 11 12 11 11 11 12 12 12 12 11 10 9 9
11 10 9 8 7 6 7 8 9 9 9 7 5 4 4 5 7 8 7 7 6 5 5 4 3 3 2 2 5 8 9 9 10 10 11 11 11 11 10 10 9 8

ECMWFNIL_925_spd_111.txt.gz
Wind_Speed
12 12 11 10 9 8 8 9 8 8 8 8 8 9 9 8 7 8 8 8 7 7 7 6 5 5 5 4 4 3 2 2 2 2 3 5 6 6 6 5 5 6
13 12 12 11 10 9 8 9 8 8 8 7 7 8 8 8 8 8 8 8 8 8 8 7 7 7 6 5 5 4 3 3 3 4 4 4 6 7 6 6 6 5
14 13 13 12 12 11 11 10 8 8 9 9 7 7 8 9 10 10 10 10 9 9 9 8 8 8 7 6 6 5 5 4 4 5 5 4 6 7 6 6 6 5
15 14 13 13 12 12 12 11 10 9 9 9 9 9 9 9 11 11 11 11 10 10 10 10 9 9 9 8 8 7 7 7 6 7 6 4 6 7 6 6 6 5
15 14 13 13 12 11 12 12 12 12 11 10 9 10 9 8 8 10 11 11 11 11 11 10 10 9 9 9 9 8 8 8 9 9 7 6 8 8 7 6 5 5
15 15 14 14 13 12 12 12 13 13 13 13 12 11 10 9 9 10 11 11 12 12 11 11 10 10 10 10 9 10 9 8 9 11 9 8 8 8 6 5 4 5
15 16 15 15 15 14 14 13 13 13 13 13 14 12 12 11 11 11 11 11 12 12 11 11 11 10 10 10 10 10 10 9 9 10 10 9 8 7 7 6 5 6
15 16 16 16 16 16 15 14 14 14 13 14 15 15 14 13 13 13 12 12 12 11 11 11 11 11 11 11 11 11 11 10 10 11 10 9 8 8 8 7 7 7
15 15 16 16 17 17 17 16 16 15 15 15 16 16 15 15 15 14 13 13 12 12 12 11 11 11 12 11 11 11 11 11 11 10 10 9 9 9 9 8 8 8
15 15 15 16 17 17 17 18 17 17 16 16 17 16 16 17 16 14 13 13 13 13 13 12 12 12 13 12 12 11 11 11 10 9 9 9 9 9 9 9 9 8
14 15 15 16 17 17 17 18 18 17 16 16 16 15 15 17 17 16 15 15 15 14 14 13 13 13 13 13 13 12 12 12 11 10 10 10 10 10 10 9 9 9
15 15 15 16 16 17 17 17 18 18 17 18 19 18 16 17 17 17 15 15 15 15 15 14 14 13 13 13 13 12 12 12 11 11 11 11 11 11 11 11 10 10
17 16 15 16 16 16 16 16 17 18 18 20 21 20 17 17 17 17 16 15 16 16 16 15 15 14 14 13 13 13 12 12 11 11 11 12 12 12 12 12 12 11
18 17 17 16 15 15 16 16 16 17 17 18 18 17 17 18 17 18 18 17 16 17 16 16 16 15 15 14 14 13 13 12 12 12 12 11 11 12 12 12 12 12
14 15 16 16 15 14 14 15 15 15 16 17 17 17 17 18 18 18 17 17 17 17 17 16 16 16 16 15 14 14 13 12 12 12 12 12 11 11 11 11 12 12
11 10 10 12 13 13 13 14 14 15 15 16 17 17 17 17 17 18 17 16 16 17 17 17 16 16 15 15 15 14 13 12 12 11 11 12 12 11 11 11 12 12
15 13 12 10 10 11 11 11 12 14 15 15 16 17 17 16 17 17 17 17 16 16 18 19 17 14 15 16 17 16 14 12 11 11 12 13 12 11 12 12 13 13
21 21 21 20 18 16 13 11 10 11 12 13 15 16 16 16 17 17 17 17 17 17 18 18 16 15 17 19 20 20 18 15 13 13 14 14 13 13 13 13 13 13
19 20 22 22 22 22 21 18 15 14 14 13 13 14 15 14 15 17 18 18 18 17 17 16 15 16 18 19 19 20 19 18 16 15 15 15 14 14 14 13 13 13
17 18 20 21 21 20 21 20 19 17 16 13 12 14 15 14 15 18 18 18 18 17 16 16 14 12 14 16 17 16 16 16 16 15 15 15 15 15 15 14 13 13
13 14 17 18 19 20 20 21 21 18 15 15 15 16 17 17 17 19 18 17 17 17 16 15 12 9 10 13 15 14 14 15 16 16 15 16 15 16 16 16 15 14
7 9 9 9 11 14 17 18 20 19 18 18 17 18 19 19 18 19 18 16 14 16 16 13 9 8 10 12 12 12 13 14 14 15 15 16 16 16 16 16 16 15
3 3 4 3 4 8 12 13 14 14 16 17 17 18 22 21 17 17 17 15 15 16 12 7 7 7 9 10 10 10 11 12 12 14 16 17 17 18 17 17 17 16
5 5 6 6 4 3 5 7 7 9 12 14 15 18 21 21 17 15 13 13 13 12 8 2 4 3 5 5 7 8 9 10 12 13 14 15 16 16 17 18 16 14
7 7 7 7 7 6 5 2 2 4 8 10 11 14 17 17 18 17 13 10 8 5 3 2 3 2 3 3 4 6 9 11 10 9 11 15 16 16 17 16 15 11
8 9 8 7 6 5 5 4 4 2 3 4 4 7 10 10 10 10 10 7 7 8 4 6 5 4 3 3 4 5 7 8 8 8 9 11 10 12 15 14 12 10

ECMWFNIL_925_spd_114.txt.gz
Wind_Speed
15 14 13 13 14 14 14 13 12 12 12 11 10 10 11 11 10 11 11 12 11 10 10 10 10 9 8 8 7 6 6 5 5 5 5 4 4 5 6 5 5 5
16 15 14 13 13 13 13 13 12 12 12 11 11 11 11 9 8 9 11 12 12 11 11 10 10 10 9 9 8 7 8 7 5 6 6 5 5 5 6 6 5 5
17 16 15 14 13 13 13 13 12 12 12 11 10 11 11 9 9 10 11 11 11 11 12 11 10 11 10 10 10 9 9 9 7 7 8 7 7 7 6 6 6 5
18 17 15 14 14 13 13 12 12 11 11 11 10 10 10 10 10 11 11 11 11 11 12 11 10 11 11 10 10 9 9 10 9 8 9 8 9 9 7 6 7 5
18 17 16 14 14 14 13 12 12 11 11 12 11 10 11 11 11 11 12 12 11 11 12 12 11 11 11 11 11 10 10 10 9 9 10 9 9 9 7 7 7 6
17 17 17 15 14 14 14 14 14 13 11 12 11 10 12 11 10 12 12 12 12 12 12 12 12 11 11 12 12 11 10 10 10 11 11 9 9 9 8 8 7 7
17 17 16 16 14 14 15 15 16 15 14 12 11 11 12 11 10 12 12 12 12 12 12 12 13 12 12 13 13 12 12 11 10 11 11 10 9 9 9 9 8 7
17 17 16 16 15 15 15 15 16 16 16 14 12 12 13 12 11 11 12 12 13 12 12 13 14 13 12 13 13 13 12 11 10 11 12 11 11 10 10 9 8 8
17 17 17 16 16 15 15 15 15 14 14 14 13 12 13 12 12 11 12 13 13 12 13 13 14 14 14 13 14 13 12 12 11 12 12 12 12 11 11 10 9 9
17 17 17 17 16 16 16 15 15 14 14 14 13 12 12 13 12 12 14 15 13 12 14 14 13 15 15 13 13 14 14 13 12 12 13 12 12 12 11 11 11 11
16 16 16 17 17 16 16 16 15 15 15 15 14 13 13 13 13 13 15 17 15 13 14 15 15 15 15 14 13 14 14 13 13 13 14 13 13 12 12 11 11 11
15 15 16 16 16 15 16 16 16 15 15 16 16 15 14 14 14 14 15 17 18 15 14 16 17 16 16 15 14 14 14 13 13 13 13 13 12 13 12 12 12 11
14 14 14 15 15 15 15 15 15 16 16 16 17 16 15 15 15 16 15 16 17 16 15 16 17 16 16 16 15 15 15 14 13 12 13 13 13 13 13 12 12 12
16 15 14 14 14 14 14 14 14 15 16 16 17 17 17 16 16 17 16 15 16 17 16 16 17 16 16 17 16 16 15 14 13 13 12 12 13 13 13 13 13 13
16 14 14 14 14 13 12 12 13 13 13 15 16 19 18 17 17 17 17 18 18 18 17 16 15 16 18 17 16 16 15 13 14 14 12 11 13 13 14 14 14 13
11 10 11 12 12 11 10 10 10 9 9 10 12 14 16 17 18 18 18 18 17 16 16 16 14 14 17 18 17 16 15 13 13 14 13 12 13 13 13 13 13 13
7 6 8 8 8 7 7 9 10 9 10 10 8 8 8 10 14 16 15 16 17 16 16 15 14 14 16 18 18 17 16 13 12 13 12 13 13 13 13 13 13 13
6 4 5 8 9 6 2 4 6 7 8 9 8 9 9 7 8 10 12 13 15 15 14 13 14 14 15 16 18 19 18 16 14 12 11 12 13 15 15 15 14 13
9 8 6 7 11 11 8 7 8 9 8 7 7 9 11 10 8 7 8 10 9 10 12 12 12 13 14 16 18 20 20 18 17 14 12 13 14 15 15 14 13 13
10 10 6 3 8 14 15 14 14 16 14 11 10 10 13 14 12 9 10 11 9 8 9 8 6 10 16 18 20 24 24 22 19 15 13 13 14 14 14 13 13 13
9 9 7 5 8 11 14 15 16 17 17 16 14 14 15 15 15 14 15 14 12 10 9 6 5 10 15 17 20 25 25 22 19 15 12 12 14 14 14 14 13 12
5 6 7 8 10 10 10 12 12 13 17 19 18 17 15 14 14 16 17 16 14 13 12 9 7 9 12 12 13 16 18 17 14 13 11 11 12 13 13 12 10 9
2 4 7 8 9 8 8 10 12 14 16 17 17 15 15 14 14 15 15 14 13 13 13 12 10 8 9 10 11 13 14 12 9 8 9 9 9 10 11 10 9 9
5 2 3 3 3 5 6 8 11 12 12 13 13 13 14 15 15 16 16 14 11 9 9 9 10 9 9 11 13 13 13 11 9 7 7 9 10 11 13 13 13 12
6 6 5 5 4 2 2 2 3 3 6 9 10 11 13 13 14 15 16 15 13 10 8 8 10 12 10 10 11 12 11 10 10 9 9 10 11 12 13 14 14 13
9 7 7 6 5 4 4 3 3 2 2 4 5 6 6 8 9 11 14 16 17 15 12 11 12 13 10 8 8 10 10 8 8 9 8 8 7 7 9 11 11 10

ECMWFNIL_925_spd_117.txt.gz
Wind_Speed
20 19 20 21 19 19 18 18 18 17 18 17 16 17 16 15 14 14 14 13 13 12 10 11 10 9 8 7 6 7 8 6 5 6 6 4 4 4 4 5 5 5
21 18 20 20 19 19 18 17 17 16 17 16 15 15 15 15 16 15 15 14 14 14 12 12 11 10 9 8 7 8 9 8 6 5 5 5 6 6 5 5 5 5
22 19 19 20 19 19 19 18 17 16 16 17 16 15 14 15 16 15 15 15 14 14 13 12 12 11 10 9 9 9 9 9 7 5 6 7 7 7 6 7 6 4
23 21 20 19 19 19 18 18 18 17 17 18 17 16 15 14 15 14 13 14 14 14 13 12 12 11 10 11 11 10 10 9 7 6 8 8 8 8 8 7 6 5
24 22 20 19 18 18 18 19 19 18 17 18 17 17 16 15 14 13 13 13 13 13 13 12 11 11 11 11 12 12 11 10 8 8 9 9 9 9 8 7 6 6
24 23 21 19 19 19 19 19 19 19 18 17 17 16 16 16 16 15 14 14 13 13 13 12 12 12 12 12 12 12 11 11 10 9 10 10 9 8 7 6 7 8
24 23 22 20 19 20 21 20 19 19 18 17 17 16 16 17 16 16 16 16 15 14 14 13 12 13 13 12 13 13 12 11 10 10 11 11 10 8 6 7 8 9
24 23 23 21 18 19 21 21 20 20 18 17 18 18 15 15 16 15 15 16 15 15 14 14 14 14 14 13 13 14 13 11 11 11 11 11 11 9 8 8 9 10
24 23 23 22 20 19 20 19 20 21 20 18 18 17 15 15 15 14 14 15 15 15 15 15 15 15 15 14 13 13 13 12 12 12 12 12 11 10 10 9 9 9
25 23 23 23 21 20 20 19 19 21 21 21 19 17 16 16 16 14 13 15 16 16 16 15 15 15 15 15 14 13 14 13 12 12 12 12 11 10 9 9 9 10
24 24 23 24 23 22 21 20 20 20 22 23 21 19 17 17 17 16 15 16 16 16 16 16 16 15 14 16 15 14 15 14 13 13 12 12 11 11 11 11 11 12
25 25 24 23 23 22 21 20 20 21 22 22 22 20 19 18 18 18 18 18 18 17 17 18 17 16 16 16 16 15 14 13 13 13 13 13 13 12 11 11 11 12
23 23 24 24 24 22 22 21 21 22 22 24 24 21 20 20 19 19 19 19 18 18 18 18 17 16 16 16 16 15 14 13 13 13 12 13 12 11 10 11 12 12
21 18 16 19 22 22 22 20 19 20 21 24 25 23 22 22 21 20 19 19 18 17 17 19 18 16 17 17 16 15 15 14 13 13 13 12 12 13 13 13 13 13
11 12 10 10 13 16 18 16 12 12 13 17 23 24 23 22 21 20 19 19 18 16 15 17 17 15 14 16 16 15 15 14 13 13 14 13 13 14 14 13 12 12
5 2 3 5 6 8 12 12 9 6 6 10 17 21 20 20 20 19 18 17 17 16 16 15 15 14 13 13 15 16 16 15 14 13 12 13 13 13 12 12 12 12
4 3 2 5 6 7 9 10 8 6 6 7 12 15 15 16 17 17 17 15 14 15 15 15 16 16 14 13 15 17 17 16 15 15 13 12 12 12 12 13 12 12
11 10 12 12 11 8 9 11 9 7 6 6 8 10 12 13 14 15 15 14 13 13 12 14 16 16 14 13 14 16 17 17 16 15 14 12 11 11 12 13 13 14
13 17 19 17 14 10 10 12 12 12 10 7 7 8 9 11 12 13 14 14 13 13 12 14 16 16 16 17 16 15 17 18 18 18 16 13 12 10 9 9 11 14
14 17 18 15 13 12 11 12 13 14 12 9 8 7 6 8 8 9 11 11 11 11 12 14 16 16 17 19 18 17 17 17 19 19 17 13 12 9 6 6 6 8
15 15 15 13 12 13 14 14 14 15 13 11 10 9 7 7 7 7 9 10 10 10 11 13 15 15 16 19 20 20 18 18 20 21 17 12 10 8 8 8 7 7
12 13 13 11 11 12 12 13 13 14 14 14 15 14 12 10 8 8 9 10 11 11 11 12 13 15 16 18 19 19 18 17 18 20 19 14 10 8 9 10 11 10
6 7 9 9 10 10 11 11 12 12 13 14 15 16 16 14 12 11 11 11 12 12 12 13 13 14 15 16 18 18 15 12 13 16 17 14 10 8 9 9 9 10
4 3 4 5 6 6 6 8 9 10 12 13 13 13 13 13 12 12 12 12 13 13 13 14 15 16 15 15 16 16 14 13 13 15 15 12 10 9 9 9 8 10
6 6 5 3 2 1 0 1 3 4 6 8 11 11 11 11 12 13 12 12 12 12 13 14 16 17 17 16 16 15 15 15 14 13 12 10 9 8 7 7 8 10
9 8 7 6 5 4 2 2 2 1 2 5 7 8 9 10 11 11 12 12 12 12 13 14 15 16 15 15 16 15 15 14 13 11 10 9 7 6 5 6 7 9

ECMWFNIL_925_spd_120.txt.gz
Wind_Speed
24 23 22 22 23 24 24 22 22 22 20 20 20 19 19 18 16 15 14 13 12 12 11 10 10 9 9 8 7 7 7 7 6 5 5 5 4 3 3 3 3 4
25 24 23 22 23 23 24 23 23 23 22 21 20 19 18 18 16 15 15 14 14 13 12 12 11 11 10 9 8 8 8 7 6 5 5 6 6 6 5 5 5 4
24 25 24 23 24 24 23 24 24 23 22 21 21 19 18 18 17 16 16 16 16 15 14 13 13 12 12 10 9 8 8 9 8 7 6 6 6 7 6 7 6 5
24 25 24 23 24 24 23 23 23 23 21 20 20 19 17 17 17 17 17 16 16 16 15 15 14 13 12 11 10 9 9 9 8 7 7 7 8 8 7 7 7 5
25 25 24 23 23 23 23 23 22 22 21 20 19 18 18 17 17 18 18 17 17 16 16 15 15 14 13 12 11 11 10 9 9 8 8 8 9 9 8 7 7 5
26 25 24 24 24 23 23 23 23 22 21 20 20 19 19 18 18 19 19 18 17 16 16 16 15 14 13 12 12 12 12 11 10 9 9 9 9 8 7 7 6 5
28 27 25 23 24 24 23 24 24 24 23 21 21 21 20 19 19 19 19 18 17 17 17 16 15 14 13 13 12 13 12 12 11 11 10 9 9 9 8 6 6 6
29 29 27 25 24 23 23 24 24 24 23 22 21 22 22 21 20 20 19 19 18 17 17 16 15 15 14 14 14 13 13 12 11 11 12 10 9 9 9 7 7 8
30 29 28 27 26 25 25 25 25 24 23 23 22 21 21 21 21 20 20 20 19 18 18 17 16 15 15 15 15 14 14 13 12 12 12 12 11 10 9 8 8 8
30 30 30 29 28 27 26 26 26 25 25 24 23 21 21 21 20 21 20 20 20 20 19 19 18 17 17 17 17 16 14 13 12 12 12 12 12 12 10 8 8 8
29 29 29 30 29 26 25 26 27 26 25 25 23 22 22 21 20 20 21 20 20 19 19 19 18 18 18 18 17 16 14 13 13 12 12 12 13 13 12 10 9 10
30 30 29 30 29 27 24 25 27 26 25 25 25 24 23 23 21 20 20 20 19 18 18 19 19 18 17 16 16 16 15 14 14 14 14 13 13 13 13 13 12 12
27 28 29 29 29 27 25 24 25 25 25 25 27 27 25 24 24 22 21 21 20 19 19 18 18 18 17 16 16 15 16 16 15 15 15 14 13 13 13 13 12 12
24 23 25 26 27 28 26 25 26 26 26 26 27 29 29 27 26 24 23 23 22 21 20 19 19 19 19 18 17 16 16 16 16 15 14 14 13 13 12 12 12 13
24 20 20 21 24 28 28 26 27 26 27 27 28 30 31 30 28 26 25 25 24 23 22 21 20 20 20 19 18 18 17 17 17 15 14 14 14 13 13 13 14 14
23 19 15 13 17 24 27 25 23 22 23 25 28 30 31 30 28 27 27 26 25 24 23 21 20 21 21 21 19 19 18 18 17 17 17 16 15 14 14 14 14 13
22 19 14 9 11 16 20 20 19 18 17 17 22 29 31 31 29 27 27 25 24 23 23 22 21 20 20 21 20 19 19 18 18 18 18 17 16 15 14 13 13 13
21 20 16 11 10 11 13 15 15 15 14 13 18 24 27 28 27 26 26 25 23 23 24 24 22 20 20 20 19 18 18 19 19 18 18 18 18 17 15 13 13 13
20 19 16 13 10 9 9 10 11 12 13 14 16 20 22 24 25 25 24 23 23 23 23 24 23 22 21 20 19 18 18 18 19 19 19 19 18 17 16 15 14 12
16 16 15 13 11 9 9 9 8 8 10 12 14 15 14 14 15 18 21 22 23 22 21 21 21 21 21 20 20 19 19 17 17 19 20 20 19 18 18 17 14 11
8 9 10 10 10 10 11 11 10 10 10 10 10 11 10 6 4 6 10 13 17 20 21 20 20 20 20 20 21 21 21 19 18 17 18 20 19 18 17 15 13 11
6 5 5 6 7 7 9 10 11 13 13 11 9 10 14 15 13 11 10 9 11 15 18 19 20 19 19 20 21 20 21 22 21 20 19 18 18 16 15 14 13 11
4 5 5 7 9 9 10 11 13 15 13 11 12 14 15 17 17 16 16 16 15 15 16 17 17 17 17 18 19 19 20 21 22 22 21 19 19 17 15 13 12 11
1 2 4 7 8 9 9 8 10 13 11 9 14 17 15 16 18 18 16 16 17 17 16 16 16 16 16 17 18 19 20 20 21 22 20 19 21 20 17 14 12 11
4 3 2 4 5 5 4 4 6 8 9 7 10 13 15 16 19 19 19 19 19 17 16 16 16 16 18 19 18 19 19 18 18 20 19 19 22 21 18 15 13 11
8 6 3 1 1 3 4 5 7 7 6 7 10 13 15 16 16 17 19 20 19 18 18 19 18 17 20 21 21 21 21 18 16 17 19 21 22 20 17 14 12 11